<?xml version="1.0" encoding="UTF-8" standalone="no" ?>
<gpx xmlns="http://www.topografix.com/GPX/1/1" xmlns:xsi="http://www.w3.org/2001/XMLSchema-instance" xsi:schemaLocation="http://www.topografix.com/GPX/1/1 http://www.topografix.com/GPX/1/1/gpx.xsd" version="1.1" creator="VisuGPX - https://www.visugpx.com">
  <metadata>
    <name>Sortie Mauzac</name>
    <desc><![CDATA[Sortie avec le spiridon sur Mauzac]]></desc>
  </metadata>
  <trk>
    <name><![CDATA[Sortie mauzac]]></name>
    <trkseg>
      <trkpt lat="44.86459" lon="0.79748">
        <ele>48.599998474121</ele>
        <time>2014-02-09T08:05:24.000Z</time>
      </trkpt>
      <trkpt lat="44.86464" lon="0.79746">
        <ele>49</ele>
        <time>2014-02-09T08:05:27.000Z</time>
      </trkpt>
      <trkpt lat="44.86463" lon="0.79731">
        <ele>50.200000762939</ele>
        <time>2014-02-09T08:05:32.000Z</time>
      </trkpt>
      <trkpt lat="44.86458" lon="0.79721">
        <ele>50.799999237061</ele>
        <time>2014-02-09T08:05:35.000Z</time>
      </trkpt>
      <trkpt lat="44.86453" lon="0.79701">
        <ele>51.799999237061</ele>
        <time>2014-02-09T08:05:42.000Z</time>
      </trkpt>
      <trkpt lat="44.86453" lon="0.79695">
        <ele>52.200000762939</ele>
        <time>2014-02-09T08:05:44.000Z</time>
      </trkpt>
      <trkpt lat="44.86452" lon="0.79683">
        <ele>52.799999237061</ele>
        <time>2014-02-09T08:05:48.000Z</time>
      </trkpt>
      <trkpt lat="44.86453" lon="0.79678">
        <ele>53.200000762939</ele>
        <time>2014-02-09T08:05:50.000Z</time>
      </trkpt>
      <trkpt lat="44.8645" lon="0.79666">
        <ele>53.799999237061</ele>
        <time>2014-02-09T08:05:55.000Z</time>
      </trkpt>
      <trkpt lat="44.86449" lon="0.79651">
        <ele>54.799999237061</ele>
        <time>2014-02-09T08:06:00.000Z</time>
      </trkpt>
      <trkpt lat="44.86445" lon="0.79633">
        <ele>55.599998474121</ele>
        <time>2014-02-09T08:06:06.000Z</time>
      </trkpt>
      <trkpt lat="44.86444" lon="0.7963">
        <ele>55.599998474121</ele>
        <time>2014-02-09T08:06:07.000Z</time>
      </trkpt>
      <trkpt lat="44.86442" lon="0.79613">
        <ele>56.400001525879</ele>
        <time>2014-02-09T08:06:13.000Z</time>
      </trkpt>
      <trkpt lat="44.8644" lon="0.79598">
        <ele>57</ele>
        <time>2014-02-09T08:06:18.000Z</time>
      </trkpt>
      <trkpt lat="44.8644" lon="0.79584">
        <ele>58.200000762939</ele>
        <time>2014-02-09T08:06:23.000Z</time>
      </trkpt>
      <trkpt lat="44.86447" lon="0.7958">
        <ele>60</ele>
        <time>2014-02-09T08:06:27.000Z</time>
      </trkpt>
      <trkpt lat="44.86454" lon="0.79584">
        <ele>62</ele>
        <time>2014-02-09T08:06:32.000Z</time>
      </trkpt>
      <trkpt lat="44.86462" lon="0.7959">
        <ele>63.200000762939</ele>
        <time>2014-02-09T08:06:37.000Z</time>
      </trkpt>
      <trkpt lat="44.86463" lon="0.79592">
        <ele>63.400001525879</ele>
        <time>2014-02-09T08:06:38.000Z</time>
      </trkpt>
      <trkpt lat="44.86469" lon="0.79604">
        <ele>63.400001525879</ele>
        <time>2014-02-09T08:06:43.000Z</time>
      </trkpt>
      <trkpt lat="44.86475" lon="0.79615">
        <ele>63.799999237061</ele>
        <time>2014-02-09T08:06:48.000Z</time>
      </trkpt>
      <trkpt lat="44.86483" lon="0.79624">
        <ele>64.400001525879</ele>
        <time>2014-02-09T08:06:53.000Z</time>
      </trkpt>
      <trkpt lat="44.86485" lon="0.79622">
        <ele>65.199996948242</ele>
        <time>2014-02-09T08:06:57.000Z</time>
      </trkpt>
      <trkpt lat="44.86482" lon="0.79608">
        <ele>66.199996948242</ele>
        <time>2014-02-09T08:07:03.000Z</time>
      </trkpt>
      <trkpt lat="44.86481" lon="0.79606">
        <ele>66.400001525879</ele>
        <time>2014-02-09T08:07:04.000Z</time>
      </trkpt>
      <trkpt lat="44.8648" lon="0.79595">
        <ele>67.199996948242</ele>
        <time>2014-02-09T08:07:10.000Z</time>
      </trkpt>
      <trkpt lat="44.86478" lon="0.79586">
        <ele>67.800003051758</ele>
        <time>2014-02-09T08:07:14.000Z</time>
      </trkpt>
      <trkpt lat="44.86475" lon="0.79574">
        <ele>67.400001525879</ele>
        <time>2014-02-09T08:07:19.000Z</time>
      </trkpt>
      <trkpt lat="44.86475" lon="0.79562">
        <ele>67</ele>
        <time>2014-02-09T08:07:24.000Z</time>
      </trkpt>
      <trkpt lat="44.86478" lon="0.79551">
        <ele>67.800003051758</ele>
        <time>2014-02-09T08:07:29.000Z</time>
      </trkpt>
      <trkpt lat="44.8648" lon="0.79542">
        <ele>68.400001525879</ele>
        <time>2014-02-09T08:07:33.000Z</time>
      </trkpt>
      <trkpt lat="44.86486" lon="0.79529">
        <ele>69.599998474121</ele>
        <time>2014-02-09T08:07:40.000Z</time>
      </trkpt>
      <trkpt lat="44.86492" lon="0.79518">
        <ele>70.599998474121</ele>
        <time>2014-02-09T08:07:46.000Z</time>
      </trkpt>
      <trkpt lat="44.86497" lon="0.79511">
        <ele>71.800003051758</ele>
        <time>2014-02-09T08:07:50.000Z</time>
      </trkpt>
      <trkpt lat="44.86503" lon="0.79504">
        <ele>73</ele>
        <time>2014-02-09T08:07:54.000Z</time>
      </trkpt>
      <trkpt lat="44.86509" lon="0.79495">
        <ele>74.400001525879</ele>
        <time>2014-02-09T08:07:59.000Z</time>
      </trkpt>
      <trkpt lat="44.86519" lon="0.79482">
        <ele>75.599998474121</ele>
        <time>2014-02-09T08:08:07.000Z</time>
      </trkpt>
      <trkpt lat="44.86528" lon="0.79471">
        <ele>76.800003051758</ele>
        <time>2014-02-09T08:08:14.000Z</time>
      </trkpt>
      <trkpt lat="44.86534" lon="0.79461">
        <ele>77</ele>
        <time>2014-02-09T08:08:19.000Z</time>
      </trkpt>
      <trkpt lat="44.86541" lon="0.79453">
        <ele>77.800003051758</ele>
        <time>2014-02-09T08:08:24.000Z</time>
      </trkpt>
      <trkpt lat="44.86547" lon="0.7945">
        <ele>79.199996948242</ele>
        <time>2014-02-09T08:08:27.000Z</time>
      </trkpt>
      <trkpt lat="44.86555" lon="0.79438">
        <ele>79.599998474121</ele>
        <time>2014-02-09T08:08:34.000Z</time>
      </trkpt>
      <trkpt lat="44.86563" lon="0.79429">
        <ele>80.400001525879</ele>
        <time>2014-02-09T08:08:39.000Z</time>
      </trkpt>
      <trkpt lat="44.86565" lon="0.79425">
        <ele>80</ele>
        <time>2014-02-09T08:08:41.000Z</time>
      </trkpt>
      <trkpt lat="44.86573" lon="0.79416">
        <ele>80.800003051758</ele>
        <time>2014-02-09T08:08:48.000Z</time>
      </trkpt>
      <trkpt lat="44.86576" lon="0.79413">
        <ele>81</ele>
        <time>2014-02-09T08:08:50.000Z</time>
      </trkpt>
      <trkpt lat="44.86582" lon="0.79407">
        <ele>81.599998474121</ele>
        <time>2014-02-09T08:08:54.000Z</time>
      </trkpt>
      <trkpt lat="44.86595" lon="0.79395">
        <ele>81</ele>
        <time>2014-02-09T08:09:02.000Z</time>
      </trkpt>
      <trkpt lat="44.86606" lon="0.79388">
        <ele>81.400001525879</ele>
        <time>2014-02-09T08:09:08.000Z</time>
      </trkpt>
      <trkpt lat="44.86614" lon="0.79381">
        <ele>81</ele>
        <time>2014-02-09T08:09:13.000Z</time>
      </trkpt>
      <trkpt lat="44.86623" lon="0.79377">
        <ele>82</ele>
        <time>2014-02-09T08:09:19.000Z</time>
      </trkpt>
      <trkpt lat="44.86625" lon="0.79378">
        <ele>82.400001525879</ele>
        <time>2014-02-09T08:09:20.000Z</time>
      </trkpt>
      <trkpt lat="44.86636" lon="0.79374">
        <ele>83.599998474121</ele>
        <time>2014-02-09T08:09:26.000Z</time>
      </trkpt>
      <trkpt lat="44.86645" lon="0.79372">
        <ele>85</ele>
        <time>2014-02-09T08:09:31.000Z</time>
      </trkpt>
      <trkpt lat="44.86657" lon="0.79368">
        <ele>86</ele>
        <time>2014-02-09T08:09:36.000Z</time>
      </trkpt>
      <trkpt lat="44.86663" lon="0.79368">
        <ele>87</ele>
        <time>2014-02-09T08:09:39.000Z</time>
      </trkpt>
      <trkpt lat="44.86674" lon="0.79369">
        <ele>88.800003051758</ele>
        <time>2014-02-09T08:09:45.000Z</time>
      </trkpt>
      <trkpt lat="44.86682" lon="0.79371">
        <ele>90.199996948242</ele>
        <time>2014-02-09T08:09:50.000Z</time>
      </trkpt>
      <trkpt lat="44.86683" lon="0.79374">
        <ele>91</ele>
        <time>2014-02-09T08:09:51.000Z</time>
      </trkpt>
      <trkpt lat="44.8668" lon="0.79386">
        <ele>93.599998474121</ele>
        <time>2014-02-09T08:09:56.000Z</time>
      </trkpt>
      <trkpt lat="44.86678" lon="0.79388">
        <ele>93.800003051758</ele>
        <time>2014-02-09T08:09:58.000Z</time>
      </trkpt>
      <trkpt lat="44.86667" lon="0.7939">
        <ele>93.199996948242</ele>
        <time>2014-02-09T08:10:04.000Z</time>
      </trkpt>
      <trkpt lat="44.86661" lon="0.7939">
        <ele>92.400001525879</ele>
        <time>2014-02-09T08:10:07.000Z</time>
      </trkpt>
      <trkpt lat="44.86652" lon="0.79396">
        <ele>92</ele>
        <time>2014-02-09T08:10:12.000Z</time>
      </trkpt>
      <trkpt lat="44.86651" lon="0.79397">
        <ele>92.199996948242</ele>
        <time>2014-02-09T08:10:13.000Z</time>
      </trkpt>
      <trkpt lat="44.86645" lon="0.79401">
        <ele>91.800003051758</ele>
        <time>2014-02-09T08:10:17.000Z</time>
      </trkpt>
      <trkpt lat="44.86638" lon="0.79403">
        <ele>91.199996948242</ele>
        <time>2014-02-09T08:10:21.000Z</time>
      </trkpt>
      <trkpt lat="44.8663" lon="0.7941">
        <ele>91.199996948242</ele>
        <time>2014-02-09T08:10:26.000Z</time>
      </trkpt>
      <trkpt lat="44.86625" lon="0.7941">
        <ele>90.400001525879</ele>
        <time>2014-02-09T08:10:28.000Z</time>
      </trkpt>
      <trkpt lat="44.86618" lon="0.79418">
        <ele>91</ele>
        <time>2014-02-09T08:10:33.000Z</time>
      </trkpt>
      <trkpt lat="44.86612" lon="0.79423">
        <ele>90.599998474121</ele>
        <time>2014-02-09T08:10:37.000Z</time>
      </trkpt>
      <trkpt lat="44.86607" lon="0.79431">
        <ele>91.199996948242</ele>
        <time>2014-02-09T08:10:41.000Z</time>
      </trkpt>
      <trkpt lat="44.86603" lon="0.79437">
        <ele>91.199996948242</ele>
        <time>2014-02-09T08:10:44.000Z</time>
      </trkpt>
      <trkpt lat="44.86596" lon="0.7945">
        <ele>92.599998474121</ele>
        <time>2014-02-09T08:10:49.000Z</time>
      </trkpt>
      <trkpt lat="44.86587" lon="0.79468">
        <ele>94.599998474121</ele>
        <time>2014-02-09T08:10:57.000Z</time>
      </trkpt>
      <trkpt lat="44.86586" lon="0.79473">
        <ele>95.199996948242</ele>
        <time>2014-02-09T08:10:59.000Z</time>
      </trkpt>
      <trkpt lat="44.86581" lon="0.79481">
        <ele>95.800003051758</ele>
        <time>2014-02-09T08:11:03.000Z</time>
      </trkpt>
      <trkpt lat="44.86576" lon="0.79491">
        <ele>95.800003051758</ele>
        <time>2014-02-09T08:11:07.000Z</time>
      </trkpt>
      <trkpt lat="44.86575" lon="0.79502">
        <ele>97.400001525879</ele>
        <time>2014-02-09T08:11:11.000Z</time>
      </trkpt>
      <trkpt lat="44.86569" lon="0.79512">
        <ele>96</ele>
        <time>2014-02-09T08:11:16.000Z</time>
      </trkpt>
      <trkpt lat="44.86569" lon="0.79515">
        <ele>95.800003051758</ele>
        <time>2014-02-09T08:11:17.000Z</time>
      </trkpt>
      <trkpt lat="44.86561" lon="0.79528">
        <ele>94</ele>
        <time>2014-02-09T08:11:23.000Z</time>
      </trkpt>
      <trkpt lat="44.86555" lon="0.79537">
        <ele>92.199996948242</ele>
        <time>2014-02-09T08:11:28.000Z</time>
      </trkpt>
      <trkpt lat="44.86556" lon="0.79539">
        <ele>92.800003051758</ele>
        <time>2014-02-09T08:11:33.000Z</time>
      </trkpt>
      <trkpt lat="44.86558" lon="0.79539">
        <ele>93.199996948242</ele>
        <time>2014-02-09T08:11:34.000Z</time>
      </trkpt>
      <trkpt lat="44.86572" lon="0.79543">
        <ele>98.599998474121</ele>
        <time>2014-02-09T08:11:41.000Z</time>
      </trkpt>
      <trkpt lat="44.86579" lon="0.79543">
        <ele>101</ele>
        <time>2014-02-09T08:11:45.000Z</time>
      </trkpt>
      <trkpt lat="44.86589" lon="0.79545">
        <ele>103.40000152588</ele>
        <time>2014-02-09T08:11:51.000Z</time>
      </trkpt>
      <trkpt lat="44.86602" lon="0.79546">
        <ele>105</ele>
        <time>2014-02-09T08:11:58.000Z</time>
      </trkpt>
      <trkpt lat="44.86614" lon="0.79546">
        <ele>106.59999847412</ele>
        <time>2014-02-09T08:12:05.000Z</time>
      </trkpt>
      <trkpt lat="44.86623" lon="0.79544">
        <ele>107.59999847412</ele>
        <time>2014-02-09T08:12:10.000Z</time>
      </trkpt>
      <trkpt lat="44.86633" lon="0.79547">
        <ele>109</ele>
        <time>2014-02-09T08:12:16.000Z</time>
      </trkpt>
      <trkpt lat="44.86642" lon="0.79549">
        <ele>110.40000152588</ele>
        <time>2014-02-09T08:12:21.000Z</time>
      </trkpt>
      <trkpt lat="44.86653" lon="0.79551">
        <ele>111.80000305176</ele>
        <time>2014-02-09T08:12:27.000Z</time>
      </trkpt>
      <trkpt lat="44.86664" lon="0.79553">
        <ele>113.19999694824</ele>
        <time>2014-02-09T08:12:33.000Z</time>
      </trkpt>
      <trkpt lat="44.86665" lon="0.79553">
        <ele>113.40000152588</ele>
        <time>2014-02-09T08:12:34.000Z</time>
      </trkpt>
      <trkpt lat="44.86672" lon="0.79558">
        <ele>114.19999694824</ele>
        <time>2014-02-09T08:12:38.000Z</time>
      </trkpt>
      <trkpt lat="44.86683" lon="0.79566">
        <ele>115.59999847412</ele>
        <time>2014-02-09T08:12:45.000Z</time>
      </trkpt>
      <trkpt lat="44.86686" lon="0.79569">
        <ele>116</ele>
        <time>2014-02-09T08:12:47.000Z</time>
      </trkpt>
      <trkpt lat="44.86693" lon="0.79575">
        <ele>116.80000305176</ele>
        <time>2014-02-09T08:12:51.000Z</time>
      </trkpt>
      <trkpt lat="44.86703" lon="0.79585">
        <ele>117.80000305176</ele>
        <time>2014-02-09T08:12:58.000Z</time>
      </trkpt>
      <trkpt lat="44.86706" lon="0.79589">
        <ele>117.59999847412</ele>
        <time>2014-02-09T08:13:00.000Z</time>
      </trkpt>
      <trkpt lat="44.86717" lon="0.79603">
        <ele>117.19999694824</ele>
        <time>2014-02-09T08:13:06.000Z</time>
      </trkpt>
      <trkpt lat="44.86726" lon="0.79611">
        <ele>117.19999694824</ele>
        <time>2014-02-09T08:13:11.000Z</time>
      </trkpt>
      <trkpt lat="44.86733" lon="0.79618">
        <ele>117.19999694824</ele>
        <time>2014-02-09T08:13:15.000Z</time>
      </trkpt>
      <trkpt lat="44.86741" lon="0.79628">
        <ele>117.19999694824</ele>
        <time>2014-02-09T08:13:20.000Z</time>
      </trkpt>
      <trkpt lat="44.86748" lon="0.7964">
        <ele>117</ele>
        <time>2014-02-09T08:13:25.000Z</time>
      </trkpt>
      <trkpt lat="44.86751" lon="0.79652">
        <ele>116.19999694824</ele>
        <time>2014-02-09T08:13:29.000Z</time>
      </trkpt>
      <trkpt lat="44.86751" lon="0.79655">
        <ele>116</ele>
        <time>2014-02-09T08:13:30.000Z</time>
      </trkpt>
      <trkpt lat="44.86754" lon="0.79666">
        <ele>115.40000152588</ele>
        <time>2014-02-09T08:13:35.000Z</time>
      </trkpt>
      <trkpt lat="44.86757" lon="0.79668">
        <ele>115.19999694824</ele>
        <time>2014-02-09T08:13:37.000Z</time>
      </trkpt>
      <trkpt lat="44.86771" lon="0.79671">
        <ele>115</ele>
        <time>2014-02-09T08:13:43.000Z</time>
      </trkpt>
      <trkpt lat="44.86773" lon="0.79671">
        <ele>115.40000152588</ele>
        <time>2014-02-09T08:13:44.000Z</time>
      </trkpt>
      <trkpt lat="44.86777" lon="0.79672">
        <ele>115.40000152588</ele>
        <time>2014-02-09T08:13:46.000Z</time>
      </trkpt>
      <trkpt lat="44.86786" lon="0.79673">
        <ele>115.80000305176</ele>
        <time>2014-02-09T08:13:51.000Z</time>
      </trkpt>
      <trkpt lat="44.86797" lon="0.7967">
        <ele>117.80000305176</ele>
        <time>2014-02-09T08:13:58.000Z</time>
      </trkpt>
      <trkpt lat="44.86806" lon="0.79672">
        <ele>118</ele>
        <time>2014-02-09T08:14:03.000Z</time>
      </trkpt>
      <trkpt lat="44.8681" lon="0.79673">
        <ele>117.80000305176</ele>
        <time>2014-02-09T08:14:05.000Z</time>
      </trkpt>
      <trkpt lat="44.86818" lon="0.79671">
        <ele>119.40000152588</ele>
        <time>2014-02-09T08:14:10.000Z</time>
      </trkpt>
      <trkpt lat="44.86821" lon="0.7967">
        <ele>120</ele>
        <time>2014-02-09T08:14:12.000Z</time>
      </trkpt>
      <trkpt lat="44.86835" lon="0.7967">
        <ele>121.40000152588</ele>
        <time>2014-02-09T08:14:18.000Z</time>
      </trkpt>
      <trkpt lat="44.8684" lon="0.79666">
        <ele>122.80000305176</ele>
        <time>2014-02-09T08:14:21.000Z</time>
      </trkpt>
      <trkpt lat="44.86852" lon="0.79659">
        <ele>122.80000305176</ele>
        <time>2014-02-09T08:14:27.000Z</time>
      </trkpt>
      <trkpt lat="44.86865" lon="0.79658">
        <ele>122.40000152588</ele>
        <time>2014-02-09T08:14:32.000Z</time>
      </trkpt>
      <trkpt lat="44.86867" lon="0.79657">
        <ele>122.40000152588</ele>
        <time>2014-02-09T08:14:33.000Z</time>
      </trkpt>
      <trkpt lat="44.86875" lon="0.7965">
        <ele>122.80000305176</ele>
        <time>2014-02-09T08:14:38.000Z</time>
      </trkpt>
      <trkpt lat="44.86886" lon="0.79646">
        <ele>122.80000305176</ele>
        <time>2014-02-09T08:14:44.000Z</time>
      </trkpt>
      <trkpt lat="44.86896" lon="0.79644">
        <ele>122.59999847412</ele>
        <time>2014-02-09T08:14:49.000Z</time>
      </trkpt>
      <trkpt lat="44.86898" lon="0.79644">
        <ele>122.59999847412</ele>
        <time>2014-02-09T08:14:50.000Z</time>
      </trkpt>
      <trkpt lat="44.86911" lon="0.79643">
        <ele>122.40000152588</ele>
        <time>2014-02-09T08:14:56.000Z</time>
      </trkpt>
      <trkpt lat="44.86918" lon="0.79641">
        <ele>122.40000152588</ele>
        <time>2014-02-09T08:14:59.000Z</time>
      </trkpt>
      <trkpt lat="44.86931" lon="0.79641">
        <ele>121.80000305176</ele>
        <time>2014-02-09T08:15:06.000Z</time>
      </trkpt>
      <trkpt lat="44.86942" lon="0.79637">
        <ele>121.80000305176</ele>
        <time>2014-02-09T08:15:12.000Z</time>
      </trkpt>
      <trkpt lat="44.86953" lon="0.79632">
        <ele>122.19999694824</ele>
        <time>2014-02-09T08:15:17.000Z</time>
      </trkpt>
      <trkpt lat="44.86963" lon="0.79632">
        <ele>121.80000305176</ele>
        <time>2014-02-09T08:15:22.000Z</time>
      </trkpt>
      <trkpt lat="44.86967" lon="0.79632">
        <ele>121.59999847412</ele>
        <time>2014-02-09T08:15:24.000Z</time>
      </trkpt>
      <trkpt lat="44.86977" lon="0.79628">
        <ele>122</ele>
        <time>2014-02-09T08:15:29.000Z</time>
      </trkpt>
      <trkpt lat="44.8699" lon="0.79624">
        <ele>122.59999847412</ele>
        <time>2014-02-09T08:15:35.000Z</time>
      </trkpt>
      <trkpt lat="44.87001" lon="0.79617">
        <ele>123.59999847412</ele>
        <time>2014-02-09T08:15:41.000Z</time>
      </trkpt>
      <trkpt lat="44.87009" lon="0.79612">
        <ele>124</ele>
        <time>2014-02-09T08:15:46.000Z</time>
      </trkpt>
      <trkpt lat="44.87022" lon="0.79611">
        <ele>123.40000152588</ele>
        <time>2014-02-09T08:15:53.000Z</time>
      </trkpt>
      <trkpt lat="44.87034" lon="0.79609">
        <ele>123</ele>
        <time>2014-02-09T08:15:59.000Z</time>
      </trkpt>
      <trkpt lat="44.87044" lon="0.79606">
        <ele>123.19999694824</ele>
        <time>2014-02-09T08:16:03.000Z</time>
      </trkpt>
      <trkpt lat="44.87061" lon="0.79596">
        <ele>125</ele>
        <time>2014-02-09T08:16:11.000Z</time>
      </trkpt>
      <trkpt lat="44.87073" lon="0.79591">
        <ele>126</ele>
        <time>2014-02-09T08:16:16.000Z</time>
      </trkpt>
      <trkpt lat="44.87082" lon="0.7959">
        <ele>126</ele>
        <time>2014-02-09T08:16:20.000Z</time>
      </trkpt>
      <trkpt lat="44.87094" lon="0.79589">
        <ele>125.59999847412</ele>
        <time>2014-02-09T08:16:25.000Z</time>
      </trkpt>
      <trkpt lat="44.87105" lon="0.7959">
        <ele>125</ele>
        <time>2014-02-09T08:16:30.000Z</time>
      </trkpt>
      <trkpt lat="44.87119" lon="0.79587">
        <ele>125</ele>
        <time>2014-02-09T08:16:36.000Z</time>
      </trkpt>
      <trkpt lat="44.87131" lon="0.79587">
        <ele>124.59999847412</ele>
        <time>2014-02-09T08:16:40.000Z</time>
      </trkpt>
      <trkpt lat="44.87141" lon="0.79588">
        <ele>124</ele>
        <time>2014-02-09T08:16:45.000Z</time>
      </trkpt>
      <trkpt lat="44.87153" lon="0.79588">
        <ele>123.40000152588</ele>
        <time>2014-02-09T08:16:50.000Z</time>
      </trkpt>
      <trkpt lat="44.87165" lon="0.7959">
        <ele>122.40000152588</ele>
        <time>2014-02-09T08:16:55.000Z</time>
      </trkpt>
      <trkpt lat="44.87177" lon="0.7959">
        <ele>121.80000305176</ele>
        <time>2014-02-09T08:17:00.000Z</time>
      </trkpt>
      <trkpt lat="44.87188" lon="0.79591">
        <ele>121.59999847412</ele>
        <time>2014-02-09T08:17:05.000Z</time>
      </trkpt>
      <trkpt lat="44.87202" lon="0.79589">
        <ele>122</ele>
        <time>2014-02-09T08:17:10.000Z</time>
      </trkpt>
      <trkpt lat="44.87212" lon="0.79592">
        <ele>121</ele>
        <time>2014-02-09T08:17:14.000Z</time>
      </trkpt>
      <trkpt lat="44.87227" lon="0.79596">
        <ele>119.40000152588</ele>
        <time>2014-02-09T08:17:20.000Z</time>
      </trkpt>
      <trkpt lat="44.87234" lon="0.79598">
        <ele>118.59999847412</ele>
        <time>2014-02-09T08:17:24.000Z</time>
      </trkpt>
      <trkpt lat="44.87238" lon="0.79599">
        <ele>118.19999694824</ele>
        <time>2014-02-09T08:17:26.000Z</time>
      </trkpt>
      <trkpt lat="44.8725" lon="0.79597">
        <ele>118.59999847412</ele>
        <time>2014-02-09T08:17:31.000Z</time>
      </trkpt>
      <trkpt lat="44.8726" lon="0.79601">
        <ele>117.40000152588</ele>
        <time>2014-02-09T08:17:35.000Z</time>
      </trkpt>
      <trkpt lat="44.87266" lon="0.79601">
        <ele>117.19999694824</ele>
        <time>2014-02-09T08:17:37.000Z</time>
      </trkpt>
      <trkpt lat="44.87281" lon="0.79604">
        <ele>116</ele>
        <time>2014-02-09T08:17:43.000Z</time>
      </trkpt>
      <trkpt lat="44.87283" lon="0.79604">
        <ele>116</ele>
        <time>2014-02-09T08:17:44.000Z</time>
      </trkpt>
      <trkpt lat="44.87297" lon="0.79596">
        <ele>118.80000305176</ele>
        <time>2014-02-09T08:17:50.000Z</time>
      </trkpt>
      <trkpt lat="44.87306" lon="0.79594">
        <ele>119.40000152588</ele>
        <time>2014-02-09T08:17:53.000Z</time>
      </trkpt>
      <trkpt lat="44.87316" lon="0.79593">
        <ele>119.80000305176</ele>
        <time>2014-02-09T08:17:59.000Z</time>
      </trkpt>
      <trkpt lat="44.87319" lon="0.79593">
        <ele>120</ele>
        <time>2014-02-09T08:18:01.000Z</time>
      </trkpt>
      <trkpt lat="44.87322" lon="0.79594">
        <ele>119.40000152588</ele>
        <time>2014-02-09T08:18:03.000Z</time>
      </trkpt>
      <trkpt lat="44.87327" lon="0.79591">
        <ele>120.59999847412</ele>
        <time>2014-02-09T08:18:06.000Z</time>
      </trkpt>
      <trkpt lat="44.8733" lon="0.79591">
        <ele>120.40000152588</ele>
        <time>2014-02-09T08:18:08.000Z</time>
      </trkpt>
      <trkpt lat="44.87335" lon="0.79588">
        <ele>122</ele>
        <time>2014-02-09T08:18:12.000Z</time>
      </trkpt>
      <trkpt lat="44.87349" lon="0.79584">
        <ele>124</ele>
        <time>2014-02-09T08:18:20.000Z</time>
      </trkpt>
      <trkpt lat="44.87357" lon="0.79587">
        <ele>122.80000305176</ele>
        <time>2014-02-09T08:18:24.000Z</time>
      </trkpt>
      <trkpt lat="44.87369" lon="0.79585">
        <ele>124.19999694824</ele>
        <time>2014-02-09T08:18:30.000Z</time>
      </trkpt>
      <trkpt lat="44.8738" lon="0.79583">
        <ele>125.19999694824</ele>
        <time>2014-02-09T08:18:35.000Z</time>
      </trkpt>
      <trkpt lat="44.87383" lon="0.79583">
        <ele>125.19999694824</ele>
        <time>2014-02-09T08:18:37.000Z</time>
      </trkpt>
      <trkpt lat="44.87393" lon="0.79575">
        <ele>126.19999694824</ele>
        <time>2014-02-09T08:18:42.000Z</time>
      </trkpt>
      <trkpt lat="44.87402" lon="0.79572">
        <ele>126.80000305176</ele>
        <time>2014-02-09T08:18:46.000Z</time>
      </trkpt>
      <trkpt lat="44.87409" lon="0.79569">
        <ele>127.40000152588</ele>
        <time>2014-02-09T08:18:50.000Z</time>
      </trkpt>
      <trkpt lat="44.87416" lon="0.79569">
        <ele>127.80000305176</ele>
        <time>2014-02-09T08:18:54.000Z</time>
      </trkpt>
      <trkpt lat="44.87422" lon="0.79569">
        <ele>128</ele>
        <time>2014-02-09T08:18:57.000Z</time>
      </trkpt>
      <trkpt lat="44.87427" lon="0.79569">
        <ele>128.39999389648</ele>
        <time>2014-02-09T08:19:01.000Z</time>
      </trkpt>
      <trkpt lat="44.87438" lon="0.79569">
        <ele>128.80000305176</ele>
        <time>2014-02-09T08:19:08.000Z</time>
      </trkpt>
      <trkpt lat="44.8744" lon="0.79569">
        <ele>129</ele>
        <time>2014-02-09T08:19:09.000Z</time>
      </trkpt>
      <trkpt lat="44.87456" lon="0.7957">
        <ele>129.60000610352</ele>
        <time>2014-02-09T08:19:17.000Z</time>
      </trkpt>
      <trkpt lat="44.87467" lon="0.79571">
        <ele>130.19999694824</ele>
        <time>2014-02-09T08:19:23.000Z</time>
      </trkpt>
      <trkpt lat="44.87471" lon="0.79571">
        <ele>130.19999694824</ele>
        <time>2014-02-09T08:19:25.000Z</time>
      </trkpt>
      <trkpt lat="44.87475" lon="0.79567">
        <ele>131</ele>
        <time>2014-02-09T08:19:28.000Z</time>
      </trkpt>
      <trkpt lat="44.87487" lon="0.79564">
        <ele>132.19999694824</ele>
        <time>2014-02-09T08:19:35.000Z</time>
      </trkpt>
      <trkpt lat="44.87499" lon="0.79564">
        <ele>132.80000305176</ele>
        <time>2014-02-09T08:19:41.000Z</time>
      </trkpt>
      <trkpt lat="44.87504" lon="0.79565">
        <ele>133</ele>
        <time>2014-02-09T08:19:44.000Z</time>
      </trkpt>
      <trkpt lat="44.87516" lon="0.79559">
        <ele>134.80000305176</ele>
        <time>2014-02-09T08:19:50.000Z</time>
      </trkpt>
      <trkpt lat="44.87522" lon="0.79555">
        <ele>136</ele>
        <time>2014-02-09T08:19:54.000Z</time>
      </trkpt>
      <trkpt lat="44.8753" lon="0.79554">
        <ele>136.80000305176</ele>
        <time>2014-02-09T08:19:58.000Z</time>
      </trkpt>
      <trkpt lat="44.87542" lon="0.79557">
        <ele>137.60000610352</ele>
        <time>2014-02-09T08:20:04.000Z</time>
      </trkpt>
      <trkpt lat="44.87547" lon="0.79556">
        <ele>138</ele>
        <time>2014-02-09T08:20:07.000Z</time>
      </trkpt>
      <trkpt lat="44.87555" lon="0.79556">
        <ele>138.80000305176</ele>
        <time>2014-02-09T08:20:11.000Z</time>
      </trkpt>
      <trkpt lat="44.87568" lon="0.79557">
        <ele>139.80000305176</ele>
        <time>2014-02-09T08:20:17.000Z</time>
      </trkpt>
      <trkpt lat="44.87578" lon="0.79556">
        <ele>141</ele>
        <time>2014-02-09T08:20:23.000Z</time>
      </trkpt>
      <trkpt lat="44.87587" lon="0.79555">
        <ele>141.39999389648</ele>
        <time>2014-02-09T08:20:27.000Z</time>
      </trkpt>
      <trkpt lat="44.87598" lon="0.79559">
        <ele>141.60000610352</ele>
        <time>2014-02-09T08:20:34.000Z</time>
      </trkpt>
      <trkpt lat="44.87606" lon="0.79559">
        <ele>141.80000305176</ele>
        <time>2014-02-09T08:20:38.000Z</time>
      </trkpt>
      <trkpt lat="44.8762" lon="0.79561">
        <ele>142.19999694824</ele>
        <time>2014-02-09T08:20:45.000Z</time>
      </trkpt>
      <trkpt lat="44.87631" lon="0.79563">
        <ele>142.39999389648</ele>
        <time>2014-02-09T08:20:50.000Z</time>
      </trkpt>
      <trkpt lat="44.87634" lon="0.79563">
        <ele>142.39999389648</ele>
        <time>2014-02-09T08:20:51.000Z</time>
      </trkpt>
      <trkpt lat="44.8764" lon="0.79566">
        <ele>142.60000610352</ele>
        <time>2014-02-09T08:20:54.000Z</time>
      </trkpt>
      <trkpt lat="44.87651" lon="0.79567">
        <ele>142.80000305176</ele>
        <time>2014-02-09T08:20:59.000Z</time>
      </trkpt>
      <trkpt lat="44.87661" lon="0.79568">
        <ele>143</ele>
        <time>2014-02-09T08:21:05.000Z</time>
      </trkpt>
      <trkpt lat="44.87673" lon="0.79573">
        <ele>143.19999694824</ele>
        <time>2014-02-09T08:21:11.000Z</time>
      </trkpt>
      <trkpt lat="44.87682" lon="0.79578">
        <ele>143</ele>
        <time>2014-02-09T08:21:16.000Z</time>
      </trkpt>
      <trkpt lat="44.87688" lon="0.7958">
        <ele>143.19999694824</ele>
        <time>2014-02-09T08:21:19.000Z</time>
      </trkpt>
      <trkpt lat="44.87701" lon="0.79583">
        <ele>143.60000610352</ele>
        <time>2014-02-09T08:21:25.000Z</time>
      </trkpt>
      <trkpt lat="44.87716" lon="0.79585">
        <ele>143.60000610352</ele>
        <time>2014-02-09T08:21:33.000Z</time>
      </trkpt>
      <trkpt lat="44.87723" lon="0.79588">
        <ele>142.80000305176</ele>
        <time>2014-02-09T08:21:36.000Z</time>
      </trkpt>
      <trkpt lat="44.87729" lon="0.7959">
        <ele>142.60000610352</ele>
        <time>2014-02-09T08:21:40.000Z</time>
      </trkpt>
      <trkpt lat="44.87733" lon="0.79589">
        <ele>143</ele>
        <time>2014-02-09T08:21:43.000Z</time>
      </trkpt>
      <trkpt lat="44.87743" lon="0.79592">
        <ele>142.60000610352</ele>
        <time>2014-02-09T08:21:51.000Z</time>
      </trkpt>
      <trkpt lat="44.87745" lon="0.79593">
        <ele>142.39999389648</ele>
        <time>2014-02-09T08:21:53.000Z</time>
      </trkpt>
      <trkpt lat="44.87752" lon="0.79595">
        <ele>142.19999694824</ele>
        <time>2014-02-09T08:21:59.000Z</time>
      </trkpt>
      <trkpt lat="44.87757" lon="0.79596">
        <ele>142.39999389648</ele>
        <time>2014-02-09T08:22:04.000Z</time>
      </trkpt>
      <trkpt lat="44.87763" lon="0.79598">
        <ele>142.19999694824</ele>
        <time>2014-02-09T08:22:09.000Z</time>
      </trkpt>
      <trkpt lat="44.87772" lon="0.79601">
        <ele>142.19999694824</ele>
        <time>2014-02-09T08:22:16.000Z</time>
      </trkpt>
      <trkpt lat="44.87781" lon="0.79603">
        <ele>142.60000610352</ele>
        <time>2014-02-09T08:22:23.000Z</time>
      </trkpt>
      <trkpt lat="44.87792" lon="0.79605">
        <ele>143.39999389648</ele>
        <time>2014-02-09T08:22:30.000Z</time>
      </trkpt>
      <trkpt lat="44.87801" lon="0.79607">
        <ele>144.19999694824</ele>
        <time>2014-02-09T08:22:34.000Z</time>
      </trkpt>
      <trkpt lat="44.87811" lon="0.79608">
        <ele>145</ele>
        <time>2014-02-09T08:22:38.000Z</time>
      </trkpt>
      <trkpt lat="44.87824" lon="0.79609">
        <ele>146.39999389648</ele>
        <time>2014-02-09T08:22:44.000Z</time>
      </trkpt>
      <trkpt lat="44.87834" lon="0.7961">
        <ele>147.39999389648</ele>
        <time>2014-02-09T08:22:49.000Z</time>
      </trkpt>
      <trkpt lat="44.87846" lon="0.79612">
        <ele>147.60000610352</ele>
        <time>2014-02-09T08:22:55.000Z</time>
      </trkpt>
      <trkpt lat="44.87855" lon="0.79617">
        <ele>147.60000610352</ele>
        <time>2014-02-09T08:22:59.000Z</time>
      </trkpt>
      <trkpt lat="44.8786" lon="0.79618">
        <ele>147.60000610352</ele>
        <time>2014-02-09T08:23:01.000Z</time>
      </trkpt>
      <trkpt lat="44.87877" lon="0.7962">
        <ele>148.19999694824</ele>
        <time>2014-02-09T08:23:08.000Z</time>
      </trkpt>
      <trkpt lat="44.87886" lon="0.79621">
        <ele>148.60000610352</ele>
        <time>2014-02-09T08:23:12.000Z</time>
      </trkpt>
      <trkpt lat="44.879" lon="0.79627">
        <ele>149</ele>
        <time>2014-02-09T08:23:18.000Z</time>
      </trkpt>
      <trkpt lat="44.87914" lon="0.79639">
        <ele>149.39999389648</ele>
        <time>2014-02-09T08:23:24.000Z</time>
      </trkpt>
      <trkpt lat="44.87922" lon="0.79651">
        <ele>149.19999694824</ele>
        <time>2014-02-09T08:23:29.000Z</time>
      </trkpt>
      <trkpt lat="44.8793" lon="0.79669">
        <ele>147.60000610352</ele>
        <time>2014-02-09T08:23:35.000Z</time>
      </trkpt>
      <trkpt lat="44.8794" lon="0.79683">
        <ele>142.39999389648</ele>
        <time>2014-02-09T08:23:40.000Z</time>
      </trkpt>
      <trkpt lat="44.87953" lon="0.79692">
        <ele>140.19999694824</ele>
        <time>2014-02-09T08:23:45.000Z</time>
      </trkpt>
      <trkpt lat="44.87968" lon="0.797">
        <ele>139</ele>
        <time>2014-02-09T08:23:51.000Z</time>
      </trkpt>
      <trkpt lat="44.8798" lon="0.79707">
        <ele>138.80000305176</ele>
        <time>2014-02-09T08:23:56.000Z</time>
      </trkpt>
      <trkpt lat="44.8799" lon="0.79711">
        <ele>139.39999389648</ele>
        <time>2014-02-09T08:24:01.000Z</time>
      </trkpt>
      <trkpt lat="44.88001" lon="0.79715">
        <ele>140.19999694824</ele>
        <time>2014-02-09T08:24:06.000Z</time>
      </trkpt>
      <trkpt lat="44.88017" lon="0.79721">
        <ele>140.80000305176</ele>
        <time>2014-02-09T08:24:12.000Z</time>
      </trkpt>
      <trkpt lat="44.88029" lon="0.79728">
        <ele>141.39999389648</ele>
        <time>2014-02-09T08:24:17.000Z</time>
      </trkpt>
      <trkpt lat="44.8804" lon="0.79735">
        <ele>142.19999694824</ele>
        <time>2014-02-09T08:24:22.000Z</time>
      </trkpt>
      <trkpt lat="44.88051" lon="0.79742">
        <ele>143.39999389648</ele>
        <time>2014-02-09T08:24:27.000Z</time>
      </trkpt>
      <trkpt lat="44.88055" lon="0.79745">
        <ele>144</ele>
        <time>2014-02-09T08:24:29.000Z</time>
      </trkpt>
      <trkpt lat="44.88066" lon="0.79755">
        <ele>143.60000610352</ele>
        <time>2014-02-09T08:24:35.000Z</time>
      </trkpt>
      <trkpt lat="44.88081" lon="0.79766">
        <ele>142.60000610352</ele>
        <time>2014-02-09T08:24:42.000Z</time>
      </trkpt>
      <trkpt lat="44.88094" lon="0.79774">
        <ele>141.80000305176</ele>
        <time>2014-02-09T08:24:48.000Z</time>
      </trkpt>
      <trkpt lat="44.88105" lon="0.79779">
        <ele>141.60000610352</ele>
        <time>2014-02-09T08:24:53.000Z</time>
      </trkpt>
      <trkpt lat="44.88116" lon="0.79787">
        <ele>141.19999694824</ele>
        <time>2014-02-09T08:24:58.000Z</time>
      </trkpt>
      <trkpt lat="44.88125" lon="0.79793">
        <ele>141.60000610352</ele>
        <time>2014-02-09T08:25:03.000Z</time>
      </trkpt>
      <trkpt lat="44.88137" lon="0.79799">
        <ele>142.60000610352</ele>
        <time>2014-02-09T08:25:09.000Z</time>
      </trkpt>
      <trkpt lat="44.88145" lon="0.79802">
        <ele>143.80000305176</ele>
        <time>2014-02-09T08:25:13.000Z</time>
      </trkpt>
      <trkpt lat="44.88158" lon="0.79807">
        <ele>145.80000305176</ele>
        <time>2014-02-09T08:25:19.000Z</time>
      </trkpt>
      <trkpt lat="44.88163" lon="0.7981">
        <ele>146.60000610352</ele>
        <time>2014-02-09T08:25:22.000Z</time>
      </trkpt>
      <trkpt lat="44.88174" lon="0.79815">
        <ele>147.80000305176</ele>
        <time>2014-02-09T08:25:28.000Z</time>
      </trkpt>
      <trkpt lat="44.88184" lon="0.79823">
        <ele>148</ele>
        <time>2014-02-09T08:25:33.000Z</time>
      </trkpt>
      <trkpt lat="44.88191" lon="0.79823">
        <ele>148.60000610352</ele>
        <time>2014-02-09T08:25:36.000Z</time>
      </trkpt>
      <trkpt lat="44.88203" lon="0.79825">
        <ele>149.39999389648</ele>
        <time>2014-02-09T08:25:42.000Z</time>
      </trkpt>
      <trkpt lat="44.88214" lon="0.79824">
        <ele>150.39999389648</ele>
        <time>2014-02-09T08:25:47.000Z</time>
      </trkpt>
      <trkpt lat="44.88225" lon="0.79824">
        <ele>151.19999694824</ele>
        <time>2014-02-09T08:25:52.000Z</time>
      </trkpt>
      <trkpt lat="44.88236" lon="0.79821">
        <ele>152.39999389648</ele>
        <time>2014-02-09T08:25:58.000Z</time>
      </trkpt>
      <trkpt lat="44.88239" lon="0.79821">
        <ele>152.60000610352</ele>
        <time>2014-02-09T08:25:59.000Z</time>
      </trkpt>
      <trkpt lat="44.88249" lon="0.79819">
        <ele>153.39999389648</ele>
        <time>2014-02-09T08:26:04.000Z</time>
      </trkpt>
      <trkpt lat="44.88255" lon="0.79818">
        <ele>153.80000305176</ele>
        <time>2014-02-09T08:26:07.000Z</time>
      </trkpt>
      <trkpt lat="44.88268" lon="0.79813">
        <ele>155</ele>
        <time>2014-02-09T08:26:14.000Z</time>
      </trkpt>
      <trkpt lat="44.88274" lon="0.79811">
        <ele>155.60000610352</ele>
        <time>2014-02-09T08:26:18.000Z</time>
      </trkpt>
      <trkpt lat="44.88277" lon="0.79812">
        <ele>155.80000305176</ele>
        <time>2014-02-09T08:26:20.000Z</time>
      </trkpt>
      <trkpt lat="44.88282" lon="0.79811">
        <ele>156.19999694824</ele>
        <time>2014-02-09T08:26:23.000Z</time>
      </trkpt>
      <trkpt lat="44.88293" lon="0.79815">
        <ele>156.80000305176</ele>
        <time>2014-02-09T08:26:29.000Z</time>
      </trkpt>
      <trkpt lat="44.88302" lon="0.7982">
        <ele>157</ele>
        <time>2014-02-09T08:26:33.000Z</time>
      </trkpt>
      <trkpt lat="44.88311" lon="0.79825">
        <ele>157.19999694824</ele>
        <time>2014-02-09T08:26:38.000Z</time>
      </trkpt>
      <trkpt lat="44.88313" lon="0.79826">
        <ele>157.19999694824</ele>
        <time>2014-02-09T08:26:39.000Z</time>
      </trkpt>
      <trkpt lat="44.88323" lon="0.79826">
        <ele>158</ele>
        <time>2014-02-09T08:26:45.000Z</time>
      </trkpt>
      <trkpt lat="44.88329" lon="0.79825">
        <ele>158.39999389648</ele>
        <time>2014-02-09T08:26:48.000Z</time>
      </trkpt>
      <trkpt lat="44.8835" lon="0.79819">
        <ele>157.39999389648</ele>
        <time>2014-02-09T08:26:55.000Z</time>
      </trkpt>
      <trkpt lat="44.88361" lon="0.7981">
        <ele>156.80000305176</ele>
        <time>2014-02-09T08:27:00.000Z</time>
      </trkpt>
      <trkpt lat="44.88369" lon="0.79799">
        <ele>157</ele>
        <time>2014-02-09T08:27:05.000Z</time>
      </trkpt>
      <trkpt lat="44.88379" lon="0.79784">
        <ele>156.80000305176</ele>
        <time>2014-02-09T08:27:11.000Z</time>
      </trkpt>
      <trkpt lat="44.8838" lon="0.79782">
        <ele>156.80000305176</ele>
        <time>2014-02-09T08:27:12.000Z</time>
      </trkpt>
      <trkpt lat="44.88392" lon="0.79775">
        <ele>156.19999694824</ele>
        <time>2014-02-09T08:27:17.000Z</time>
      </trkpt>
      <trkpt lat="44.88405" lon="0.79763">
        <ele>155.39999389648</ele>
        <time>2014-02-09T08:27:23.000Z</time>
      </trkpt>
      <trkpt lat="44.88417" lon="0.79754">
        <ele>154.60000610352</ele>
        <time>2014-02-09T08:27:28.000Z</time>
      </trkpt>
      <trkpt lat="44.88428" lon="0.79745">
        <ele>153</ele>
        <time>2014-02-09T08:27:33.000Z</time>
      </trkpt>
      <trkpt lat="44.8844" lon="0.79735">
        <ele>151.39999389648</ele>
        <time>2014-02-09T08:27:38.000Z</time>
      </trkpt>
      <trkpt lat="44.88452" lon="0.79727">
        <ele>149.80000305176</ele>
        <time>2014-02-09T08:27:43.000Z</time>
      </trkpt>
      <trkpt lat="44.88456" lon="0.79724">
        <ele>149.39999389648</ele>
        <time>2014-02-09T08:27:45.000Z</time>
      </trkpt>
      <trkpt lat="44.88461" lon="0.79713">
        <ele>149</ele>
        <time>2014-02-09T08:27:49.000Z</time>
      </trkpt>
      <trkpt lat="44.88463" lon="0.7971">
        <ele>149</ele>
        <time>2014-02-09T08:27:50.000Z</time>
      </trkpt>
      <trkpt lat="44.88472" lon="0.79696">
        <ele>148.39999389648</ele>
        <time>2014-02-09T08:27:56.000Z</time>
      </trkpt>
      <trkpt lat="44.88481" lon="0.79691">
        <ele>147.60000610352</ele>
        <time>2014-02-09T08:28:00.000Z</time>
      </trkpt>
      <trkpt lat="44.88494" lon="0.79681">
        <ele>146.60000610352</ele>
        <time>2014-02-09T08:28:05.000Z</time>
      </trkpt>
      <trkpt lat="44.8851" lon="0.79671">
        <ele>146.19999694824</ele>
        <time>2014-02-09T08:28:11.000Z</time>
      </trkpt>
      <trkpt lat="44.88522" lon="0.79673">
        <ele>145.39999389648</ele>
        <time>2014-02-09T08:28:17.000Z</time>
      </trkpt>
      <trkpt lat="44.88531" lon="0.79676">
        <ele>144.80000305176</ele>
        <time>2014-02-09T08:28:21.000Z</time>
      </trkpt>
      <trkpt lat="44.88544" lon="0.79678">
        <ele>144</ele>
        <time>2014-02-09T08:28:26.000Z</time>
      </trkpt>
      <trkpt lat="44.88549" lon="0.79671">
        <ele>144.39999389648</ele>
        <time>2014-02-09T08:28:31.000Z</time>
      </trkpt>
      <trkpt lat="44.8855" lon="0.7967">
        <ele>144.39999389648</ele>
        <time>2014-02-09T08:28:39.000Z</time>
      </trkpt>
      <trkpt lat="44.88554" lon="0.79668">
        <ele>144.39999389648</ele>
        <time>2014-02-09T08:28:46.000Z</time>
      </trkpt>
      <trkpt lat="44.88556" lon="0.79668">
        <ele>144.19999694824</ele>
        <time>2014-02-09T08:28:47.000Z</time>
      </trkpt>
      <trkpt lat="44.8857" lon="0.79661">
        <ele>143.80000305176</ele>
        <time>2014-02-09T08:28:53.000Z</time>
      </trkpt>
      <trkpt lat="44.88581" lon="0.79655">
        <ele>143.19999694824</ele>
        <time>2014-02-09T08:28:58.000Z</time>
      </trkpt>
      <trkpt lat="44.88594" lon="0.79649">
        <ele>142.39999389648</ele>
        <time>2014-02-09T08:29:03.000Z</time>
      </trkpt>
      <trkpt lat="44.88599" lon="0.79646">
        <ele>142</ele>
        <time>2014-02-09T08:29:05.000Z</time>
      </trkpt>
      <trkpt lat="44.88611" lon="0.79641">
        <ele>141</ele>
        <time>2014-02-09T08:29:10.000Z</time>
      </trkpt>
      <trkpt lat="44.88624" lon="0.79632">
        <ele>140</ele>
        <time>2014-02-09T08:29:14.000Z</time>
      </trkpt>
      <trkpt lat="44.8863" lon="0.79616">
        <ele>139.60000610352</ele>
        <time>2014-02-09T08:29:18.000Z</time>
      </trkpt>
      <trkpt lat="44.88631" lon="0.79606">
        <ele>139.80000305176</ele>
        <time>2014-02-09T08:29:20.000Z</time>
      </trkpt>
      <trkpt lat="44.88633" lon="0.79583">
        <ele>139.80000305176</ele>
        <time>2014-02-09T08:29:25.000Z</time>
      </trkpt>
      <trkpt lat="44.88651" lon="0.79574">
        <ele>139</ele>
        <time>2014-02-09T08:29:30.000Z</time>
      </trkpt>
      <trkpt lat="44.88658" lon="0.79584">
        <ele>137.80000305176</ele>
        <time>2014-02-09T08:29:34.000Z</time>
      </trkpt>
      <trkpt lat="44.88662" lon="0.79587">
        <ele>137.39999389648</ele>
        <time>2014-02-09T08:29:36.000Z</time>
      </trkpt>
      <trkpt lat="44.88675" lon="0.79601">
        <ele>136.80000305176</ele>
        <time>2014-02-09T08:29:40.000Z</time>
      </trkpt>
      <trkpt lat="44.88691" lon="0.79618">
        <ele>135.80000305176</ele>
        <time>2014-02-09T08:29:45.000Z</time>
      </trkpt>
      <trkpt lat="44.88699" lon="0.79631">
        <ele>134.60000610352</ele>
        <time>2014-02-09T08:29:49.000Z</time>
      </trkpt>
      <trkpt lat="44.88713" lon="0.7965">
        <ele>132</ele>
        <time>2014-02-09T08:29:54.000Z</time>
      </trkpt>
      <trkpt lat="44.88724" lon="0.79662">
        <ele>129.60000610352</ele>
        <time>2014-02-09T08:29:59.000Z</time>
      </trkpt>
      <trkpt lat="44.8872" lon="0.79669">
        <ele>129.39999389648</ele>
        <time>2014-02-09T08:30:03.000Z</time>
      </trkpt>
      <trkpt lat="44.8872" lon="0.79674">
        <ele>128.80000305176</ele>
        <time>2014-02-09T08:30:07.000Z</time>
      </trkpt>
      <trkpt lat="44.88722" lon="0.79681">
        <ele>127.80000305176</ele>
        <time>2014-02-09T08:30:12.000Z</time>
      </trkpt>
      <trkpt lat="44.88724" lon="0.79688">
        <ele>126.80000305176</ele>
        <time>2014-02-09T08:30:19.000Z</time>
      </trkpt>
      <trkpt lat="44.88718" lon="0.79695">
        <ele>127</ele>
        <time>2014-02-09T08:30:27.000Z</time>
      </trkpt>
      <trkpt lat="44.88722" lon="0.79691">
        <ele>127</ele>
        <time>2014-02-09T08:30:30.000Z</time>
      </trkpt>
      <trkpt lat="44.88726" lon="0.79686">
        <ele>126.80000305176</ele>
        <time>2014-02-09T08:30:39.000Z</time>
      </trkpt>
      <trkpt lat="44.88725" lon="0.79676">
        <ele>128</ele>
        <time>2014-02-09T08:30:46.000Z</time>
      </trkpt>
      <trkpt lat="44.88725" lon="0.79668">
        <ele>128.80000305176</ele>
        <time>2014-02-09T08:30:51.000Z</time>
      </trkpt>
      <trkpt lat="44.88728" lon="0.79665">
        <ele>128.80000305176</ele>
        <time>2014-02-09T08:30:54.000Z</time>
      </trkpt>
      <trkpt lat="44.88735" lon="0.79661">
        <ele>128.60000610352</ele>
        <time>2014-02-09T08:31:02.000Z</time>
      </trkpt>
      <trkpt lat="44.88738" lon="0.79658">
        <ele>128.60000610352</ele>
        <time>2014-02-09T08:31:06.000Z</time>
      </trkpt>
      <trkpt lat="44.88744" lon="0.79655">
        <ele>128.39999389648</ele>
        <time>2014-02-09T08:31:13.000Z</time>
      </trkpt>
      <trkpt lat="44.88755" lon="0.79653">
        <ele>128.39999389648</ele>
        <time>2014-02-09T08:31:19.000Z</time>
      </trkpt>
      <trkpt lat="44.88767" lon="0.79652">
        <ele>129</ele>
        <time>2014-02-09T08:31:27.000Z</time>
      </trkpt>
      <trkpt lat="44.88777" lon="0.79656">
        <ele>129</ele>
        <time>2014-02-09T08:31:33.000Z</time>
      </trkpt>
      <trkpt lat="44.88785" lon="0.79659">
        <ele>128.80000305176</ele>
        <time>2014-02-09T08:31:38.000Z</time>
      </trkpt>
      <trkpt lat="44.88792" lon="0.79662">
        <ele>128.60000610352</ele>
        <time>2014-02-09T08:31:42.000Z</time>
      </trkpt>
      <trkpt lat="44.88802" lon="0.79667">
        <ele>128.39999389648</ele>
        <time>2014-02-09T08:31:47.000Z</time>
      </trkpt>
      <trkpt lat="44.88813" lon="0.79674">
        <ele>128.39999389648</ele>
        <time>2014-02-09T08:31:53.000Z</time>
      </trkpt>
      <trkpt lat="44.88822" lon="0.79683">
        <ele>128.60000610352</ele>
        <time>2014-02-09T08:31:59.000Z</time>
      </trkpt>
      <trkpt lat="44.88827" lon="0.79689">
        <ele>128.39999389648</ele>
        <time>2014-02-09T08:32:04.000Z</time>
      </trkpt>
      <trkpt lat="44.88827" lon="0.7969">
        <ele>128.39999389648</ele>
        <time>2014-02-09T08:32:05.000Z</time>
      </trkpt>
      <trkpt lat="44.88833" lon="0.797">
        <ele>128.39999389648</ele>
        <time>2014-02-09T08:32:10.000Z</time>
      </trkpt>
      <trkpt lat="44.88837" lon="0.79703">
        <ele>128.60000610352</ele>
        <time>2014-02-09T08:32:13.000Z</time>
      </trkpt>
      <trkpt lat="44.88848" lon="0.79707">
        <ele>130</ele>
        <time>2014-02-09T08:32:19.000Z</time>
      </trkpt>
      <trkpt lat="44.88853" lon="0.79709">
        <ele>130.60000610352</ele>
        <time>2014-02-09T08:32:21.000Z</time>
      </trkpt>
      <trkpt lat="44.88865" lon="0.79716">
        <ele>131.80000305176</ele>
        <time>2014-02-09T08:32:26.000Z</time>
      </trkpt>
      <trkpt lat="44.88879" lon="0.79723">
        <ele>133</ele>
        <time>2014-02-09T08:32:33.000Z</time>
      </trkpt>
      <trkpt lat="44.8889" lon="0.79727">
        <ele>134.39999389648</ele>
        <time>2014-02-09T08:32:39.000Z</time>
      </trkpt>
      <trkpt lat="44.889" lon="0.7972">
        <ele>136</ele>
        <time>2014-02-09T08:32:46.000Z</time>
      </trkpt>
      <trkpt lat="44.88904" lon="0.79719">
        <ele>136.60000610352</ele>
        <time>2014-02-09T08:32:51.000Z</time>
      </trkpt>
      <trkpt lat="44.88906" lon="0.7972">
        <ele>136.80000305176</ele>
        <time>2014-02-09T08:32:53.000Z</time>
      </trkpt>
      <trkpt lat="44.88916" lon="0.79715">
        <ele>138.39999389648</ele>
        <time>2014-02-09T08:32:59.000Z</time>
      </trkpt>
      <trkpt lat="44.88921" lon="0.79713">
        <ele>138.60000610352</ele>
        <time>2014-02-09T08:33:03.000Z</time>
      </trkpt>
      <trkpt lat="44.88932" lon="0.79706">
        <ele>139</ele>
        <time>2014-02-09T08:33:10.000Z</time>
      </trkpt>
      <trkpt lat="44.88943" lon="0.79705">
        <ele>138.80000305176</ele>
        <time>2014-02-09T08:33:15.000Z</time>
      </trkpt>
      <trkpt lat="44.88956" lon="0.79702">
        <ele>138.80000305176</ele>
        <time>2014-02-09T08:33:22.000Z</time>
      </trkpt>
      <trkpt lat="44.88967" lon="0.79691">
        <ele>139.80000305176</ele>
        <time>2014-02-09T08:33:28.000Z</time>
      </trkpt>
      <trkpt lat="44.88971" lon="0.79685">
        <ele>140.19999694824</ele>
        <time>2014-02-09T08:33:31.000Z</time>
      </trkpt>
      <trkpt lat="44.8898" lon="0.79674">
        <ele>141.19999694824</ele>
        <time>2014-02-09T08:33:37.000Z</time>
      </trkpt>
      <trkpt lat="44.88986" lon="0.79666">
        <ele>142</ele>
        <time>2014-02-09T08:33:40.000Z</time>
      </trkpt>
      <trkpt lat="44.88993" lon="0.79657">
        <ele>142.80000305176</ele>
        <time>2014-02-09T08:33:45.000Z</time>
      </trkpt>
      <trkpt lat="44.88998" lon="0.79653">
        <ele>143.19999694824</ele>
        <time>2014-02-09T08:33:48.000Z</time>
      </trkpt>
      <trkpt lat="44.89009" lon="0.79645">
        <ele>142.60000610352</ele>
        <time>2014-02-09T08:33:53.000Z</time>
      </trkpt>
      <trkpt lat="44.89017" lon="0.7963">
        <ele>142.60000610352</ele>
        <time>2014-02-09T08:34:00.000Z</time>
      </trkpt>
      <trkpt lat="44.89029" lon="0.79613">
        <ele>142.39999389648</ele>
        <time>2014-02-09T08:34:07.000Z</time>
      </trkpt>
      <trkpt lat="44.89034" lon="0.79607">
        <ele>142.19999694824</ele>
        <time>2014-02-09T08:34:10.000Z</time>
      </trkpt>
      <trkpt lat="44.89041" lon="0.79596">
        <ele>142</ele>
        <time>2014-02-09T08:34:15.000Z</time>
      </trkpt>
      <trkpt lat="44.89046" lon="0.79587">
        <ele>142</ele>
        <time>2014-02-09T08:34:19.000Z</time>
      </trkpt>
      <trkpt lat="44.89049" lon="0.79582">
        <ele>142</ele>
        <time>2014-02-09T08:34:21.000Z</time>
      </trkpt>
      <trkpt lat="44.8906" lon="0.79565">
        <ele>141.19999694824</ele>
        <time>2014-02-09T08:34:28.000Z</time>
      </trkpt>
      <trkpt lat="44.89063" lon="0.79562">
        <ele>140.80000305176</ele>
        <time>2014-02-09T08:34:29.000Z</time>
      </trkpt>
      <trkpt lat="44.89073" lon="0.79544">
        <ele>139.80000305176</ele>
        <time>2014-02-09T08:34:36.000Z</time>
      </trkpt>
      <trkpt lat="44.89079" lon="0.79531">
        <ele>139.19999694824</ele>
        <time>2014-02-09T08:34:41.000Z</time>
      </trkpt>
      <trkpt lat="44.89081" lon="0.79519">
        <ele>139</ele>
        <time>2014-02-09T08:34:45.000Z</time>
      </trkpt>
      <trkpt lat="44.89085" lon="0.79508">
        <ele>138.60000610352</ele>
        <time>2014-02-09T08:34:49.000Z</time>
      </trkpt>
      <trkpt lat="44.89092" lon="0.79497">
        <ele>138.19999694824</ele>
        <time>2014-02-09T08:34:53.000Z</time>
      </trkpt>
      <trkpt lat="44.89098" lon="0.79482">
        <ele>137.80000305176</ele>
        <time>2014-02-09T08:34:59.000Z</time>
      </trkpt>
      <trkpt lat="44.89108" lon="0.79465">
        <ele>137.19999694824</ele>
        <time>2014-02-09T08:35:05.000Z</time>
      </trkpt>
      <trkpt lat="44.89117" lon="0.79458">
        <ele>136.60000610352</ele>
        <time>2014-02-09T08:35:09.000Z</time>
      </trkpt>
      <trkpt lat="44.89123" lon="0.79455">
        <ele>136</ele>
        <time>2014-02-09T08:35:11.000Z</time>
      </trkpt>
      <trkpt lat="44.89142" lon="0.79451">
        <ele>134.19999694824</ele>
        <time>2014-02-09T08:35:18.000Z</time>
      </trkpt>
      <trkpt lat="44.89157" lon="0.79457">
        <ele>132.60000610352</ele>
        <time>2014-02-09T08:35:24.000Z</time>
      </trkpt>
      <trkpt lat="44.89165" lon="0.79459">
        <ele>131.60000610352</ele>
        <time>2014-02-09T08:35:28.000Z</time>
      </trkpt>
      <trkpt lat="44.89167" lon="0.79467">
        <ele>131.19999694824</ele>
        <time>2014-02-09T08:35:32.000Z</time>
      </trkpt>
      <trkpt lat="44.89167" lon="0.79471">
        <ele>131</ele>
        <time>2014-02-09T08:35:34.000Z</time>
      </trkpt>
      <trkpt lat="44.89176" lon="0.7948">
        <ele>130.19999694824</ele>
        <time>2014-02-09T08:35:39.000Z</time>
      </trkpt>
      <trkpt lat="44.89177" lon="0.79482">
        <ele>130.19999694824</ele>
        <time>2014-02-09T08:35:40.000Z</time>
      </trkpt>
      <trkpt lat="44.8918" lon="0.79485">
        <ele>129.80000305176</ele>
        <time>2014-02-09T08:35:42.000Z</time>
      </trkpt>
      <trkpt lat="44.89192" lon="0.79492">
        <ele>129</ele>
        <time>2014-02-09T08:35:48.000Z</time>
      </trkpt>
      <trkpt lat="44.89195" lon="0.79496">
        <ele>128.39999389648</ele>
        <time>2014-02-09T08:35:52.000Z</time>
      </trkpt>
      <trkpt lat="44.89209" lon="0.79512">
        <ele>126</ele>
        <time>2014-02-09T08:35:58.000Z</time>
      </trkpt>
      <trkpt lat="44.89221" lon="0.79514">
        <ele>125</ele>
        <time>2014-02-09T08:36:03.000Z</time>
      </trkpt>
      <trkpt lat="44.89224" lon="0.79507">
        <ele>125.59999847412</ele>
        <time>2014-02-09T08:36:07.000Z</time>
      </trkpt>
      <trkpt lat="44.89227" lon="0.79503">
        <ele>125.80000305176</ele>
        <time>2014-02-09T08:36:10.000Z</time>
      </trkpt>
      <trkpt lat="44.89234" lon="0.79494">
        <ele>126.40000152588</ele>
        <time>2014-02-09T08:36:15.000Z</time>
      </trkpt>
      <trkpt lat="44.89241" lon="0.79487">
        <ele>126.80000305176</ele>
        <time>2014-02-09T08:36:19.000Z</time>
      </trkpt>
      <trkpt lat="44.89253" lon="0.79472">
        <ele>127.19999694824</ele>
        <time>2014-02-09T08:36:27.000Z</time>
      </trkpt>
      <trkpt lat="44.89263" lon="0.79463">
        <ele>126.59999847412</ele>
        <time>2014-02-09T08:36:33.000Z</time>
      </trkpt>
      <trkpt lat="44.89274" lon="0.79458">
        <ele>125.40000152588</ele>
        <time>2014-02-09T08:36:38.000Z</time>
      </trkpt>
      <trkpt lat="44.89284" lon="0.79451">
        <ele>124.80000305176</ele>
        <time>2014-02-09T08:36:42.000Z</time>
      </trkpt>
      <trkpt lat="44.89294" lon="0.79444">
        <ele>124.40000152588</ele>
        <time>2014-02-09T08:36:47.000Z</time>
      </trkpt>
      <trkpt lat="44.89306" lon="0.79437">
        <ele>124.19999694824</ele>
        <time>2014-02-09T08:36:52.000Z</time>
      </trkpt>
      <trkpt lat="44.89316" lon="0.7943">
        <ele>124.19999694824</ele>
        <time>2014-02-09T08:36:57.000Z</time>
      </trkpt>
      <trkpt lat="44.89324" lon="0.7942">
        <ele>125.19999694824</ele>
        <time>2014-02-09T08:37:02.000Z</time>
      </trkpt>
      <trkpt lat="44.89326" lon="0.79419">
        <ele>125.40000152588</ele>
        <time>2014-02-09T08:37:03.000Z</time>
      </trkpt>
      <trkpt lat="44.89334" lon="0.79411">
        <ele>125.40000152588</ele>
        <time>2014-02-09T08:37:08.000Z</time>
      </trkpt>
      <trkpt lat="44.89344" lon="0.79407">
        <ele>124.80000305176</ele>
        <time>2014-02-09T08:37:13.000Z</time>
      </trkpt>
      <trkpt lat="44.89349" lon="0.79399">
        <ele>125.19999694824</ele>
        <time>2014-02-09T08:37:16.000Z</time>
      </trkpt>
      <trkpt lat="44.89356" lon="0.79388">
        <ele>125.80000305176</ele>
        <time>2014-02-09T08:37:20.000Z</time>
      </trkpt>
      <trkpt lat="44.89372" lon="0.79375">
        <ele>126.19999694824</ele>
        <time>2014-02-09T08:37:27.000Z</time>
      </trkpt>
      <trkpt lat="44.89379" lon="0.79375">
        <ele>125.80000305176</ele>
        <time>2014-02-09T08:37:31.000Z</time>
      </trkpt>
      <trkpt lat="44.89391" lon="0.79385">
        <ele>123.80000305176</ele>
        <time>2014-02-09T08:37:37.000Z</time>
      </trkpt>
      <trkpt lat="44.89397" lon="0.79387">
        <ele>123</ele>
        <time>2014-02-09T08:37:39.000Z</time>
      </trkpt>
      <trkpt lat="44.89405" lon="0.79386">
        <ele>122.59999847412</ele>
        <time>2014-02-09T08:37:42.000Z</time>
      </trkpt>
      <trkpt lat="44.89415" lon="0.79386">
        <ele>122</ele>
        <time>2014-02-09T08:37:46.000Z</time>
      </trkpt>
      <trkpt lat="44.8943" lon="0.79386">
        <ele>121.59999847412</ele>
        <time>2014-02-09T08:37:53.000Z</time>
      </trkpt>
      <trkpt lat="44.89442" lon="0.79384">
        <ele>121.80000305176</ele>
        <time>2014-02-09T08:37:59.000Z</time>
      </trkpt>
      <trkpt lat="44.89444" lon="0.79383">
        <ele>122</ele>
        <time>2014-02-09T08:38:00.000Z</time>
      </trkpt>
      <trkpt lat="44.89455" lon="0.7938">
        <ele>122.19999694824</ele>
        <time>2014-02-09T08:38:05.000Z</time>
      </trkpt>
      <trkpt lat="44.89464" lon="0.79378">
        <ele>122.40000152588</ele>
        <time>2014-02-09T08:38:09.000Z</time>
      </trkpt>
      <trkpt lat="44.89483" lon="0.79371">
        <ele>123.40000152588</ele>
        <time>2014-02-09T08:38:16.000Z</time>
      </trkpt>
      <trkpt lat="44.89493" lon="0.7937">
        <ele>123.19999694824</ele>
        <time>2014-02-09T08:38:20.000Z</time>
      </trkpt>
      <trkpt lat="44.89507" lon="0.79372">
        <ele>123</ele>
        <time>2014-02-09T08:38:25.000Z</time>
      </trkpt>
      <trkpt lat="44.89521" lon="0.79377">
        <ele>122.40000152588</ele>
        <time>2014-02-09T08:38:30.000Z</time>
      </trkpt>
      <trkpt lat="44.89527" lon="0.79381">
        <ele>122</ele>
        <time>2014-02-09T08:38:33.000Z</time>
      </trkpt>
      <trkpt lat="44.89537" lon="0.79387">
        <ele>121.80000305176</ele>
        <time>2014-02-09T08:38:38.000Z</time>
      </trkpt>
      <trkpt lat="44.89548" lon="0.794">
        <ele>121.19999694824</ele>
        <time>2014-02-09T08:38:43.000Z</time>
      </trkpt>
      <trkpt lat="44.89552" lon="0.79414">
        <ele>120.59999847412</ele>
        <time>2014-02-09T08:38:48.000Z</time>
      </trkpt>
      <trkpt lat="44.89555" lon="0.79425">
        <ele>121.19999694824</ele>
        <time>2014-02-09T08:38:52.000Z</time>
      </trkpt>
      <trkpt lat="44.89564" lon="0.79425">
        <ele>122</ele>
        <time>2014-02-09T08:38:57.000Z</time>
      </trkpt>
      <trkpt lat="44.89566" lon="0.79424">
        <ele>122</ele>
        <time>2014-02-09T08:38:58.000Z</time>
      </trkpt>
      <trkpt lat="44.89582" lon="0.79414">
        <ele>122.80000305176</ele>
        <time>2014-02-09T08:39:05.000Z</time>
      </trkpt>
      <trkpt lat="44.89588" lon="0.79411">
        <ele>123.40000152588</ele>
        <time>2014-02-09T08:39:08.000Z</time>
      </trkpt>
      <trkpt lat="44.89595" lon="0.7941">
        <ele>123.80000305176</ele>
        <time>2014-02-09T08:39:11.000Z</time>
      </trkpt>
      <trkpt lat="44.89609" lon="0.79418">
        <ele>125</ele>
        <time>2014-02-09T08:39:18.000Z</time>
      </trkpt>
      <trkpt lat="44.89613" lon="0.79419">
        <ele>125.40000152588</ele>
        <time>2014-02-09T08:39:20.000Z</time>
      </trkpt>
      <trkpt lat="44.8962" lon="0.79424">
        <ele>126.19999694824</ele>
        <time>2014-02-09T08:39:24.000Z</time>
      </trkpt>
      <trkpt lat="44.89625" lon="0.79433">
        <ele>127.19999694824</ele>
        <time>2014-02-09T08:39:28.000Z</time>
      </trkpt>
      <trkpt lat="44.89633" lon="0.79448">
        <ele>129</ele>
        <time>2014-02-09T08:39:35.000Z</time>
      </trkpt>
      <trkpt lat="44.89644" lon="0.79458">
        <ele>130.39999389648</ele>
        <time>2014-02-09T08:39:41.000Z</time>
      </trkpt>
      <trkpt lat="44.89655" lon="0.79464">
        <ele>131.60000610352</ele>
        <time>2014-02-09T08:39:46.000Z</time>
      </trkpt>
      <trkpt lat="44.89669" lon="0.79473">
        <ele>133.19999694824</ele>
        <time>2014-02-09T08:39:53.000Z</time>
      </trkpt>
      <trkpt lat="44.89678" lon="0.7948">
        <ele>134.19999694824</ele>
        <time>2014-02-09T08:39:58.000Z</time>
      </trkpt>
      <trkpt lat="44.89685" lon="0.79486">
        <ele>135.19999694824</ele>
        <time>2014-02-09T08:40:02.000Z</time>
      </trkpt>
      <trkpt lat="44.89696" lon="0.79499">
        <ele>137</ele>
        <time>2014-02-09T08:40:09.000Z</time>
      </trkpt>
      <trkpt lat="44.89704" lon="0.79508">
        <ele>138.39999389648</ele>
        <time>2014-02-09T08:40:14.000Z</time>
      </trkpt>
      <trkpt lat="44.89714" lon="0.79518">
        <ele>140</ele>
        <time>2014-02-09T08:40:20.000Z</time>
      </trkpt>
      <trkpt lat="44.89725" lon="0.79529">
        <ele>142</ele>
        <time>2014-02-09T08:40:26.000Z</time>
      </trkpt>
      <trkpt lat="44.89736" lon="0.79537">
        <ele>143.60000610352</ele>
        <time>2014-02-09T08:40:32.000Z</time>
      </trkpt>
      <trkpt lat="44.89746" lon="0.79548">
        <ele>145.39999389648</ele>
        <time>2014-02-09T08:40:38.000Z</time>
      </trkpt>
      <trkpt lat="44.89757" lon="0.79558">
        <ele>146.80000305176</ele>
        <time>2014-02-09T08:40:43.000Z</time>
      </trkpt>
      <trkpt lat="44.89764" lon="0.79567">
        <ele>147.60000610352</ele>
        <time>2014-02-09T08:40:47.000Z</time>
      </trkpt>
      <trkpt lat="44.89775" lon="0.79582">
        <ele>149.19999694824</ele>
        <time>2014-02-09T08:40:54.000Z</time>
      </trkpt>
      <trkpt lat="44.8978" lon="0.7959">
        <ele>150.19999694824</ele>
        <time>2014-02-09T08:40:58.000Z</time>
      </trkpt>
      <trkpt lat="44.89785" lon="0.79599">
        <ele>151.39999389648</ele>
        <time>2014-02-09T08:41:02.000Z</time>
      </trkpt>
      <trkpt lat="44.89793" lon="0.79611">
        <ele>153.39999389648</ele>
        <time>2014-02-09T08:41:08.000Z</time>
      </trkpt>
      <trkpt lat="44.898" lon="0.79626">
        <ele>155.80000305176</ele>
        <time>2014-02-09T08:41:14.000Z</time>
      </trkpt>
      <trkpt lat="44.89805" lon="0.79636">
        <ele>157.60000610352</ele>
        <time>2014-02-09T08:41:18.000Z</time>
      </trkpt>
      <trkpt lat="44.89812" lon="0.7965">
        <ele>160.39999389648</ele>
        <time>2014-02-09T08:41:24.000Z</time>
      </trkpt>
      <trkpt lat="44.89822" lon="0.79666">
        <ele>163.80000305176</ele>
        <time>2014-02-09T08:41:31.000Z</time>
      </trkpt>
      <trkpt lat="44.89827" lon="0.79675">
        <ele>165.19999694824</ele>
        <time>2014-02-09T08:41:35.000Z</time>
      </trkpt>
      <trkpt lat="44.89837" lon="0.79687">
        <ele>167.19999694824</ele>
        <time>2014-02-09T08:41:41.000Z</time>
      </trkpt>
      <trkpt lat="44.89846" lon="0.79696">
        <ele>168.39999389648</ele>
        <time>2014-02-09T08:41:46.000Z</time>
      </trkpt>
      <trkpt lat="44.89854" lon="0.79706">
        <ele>169.80000305176</ele>
        <time>2014-02-09T08:41:51.000Z</time>
      </trkpt>
      <trkpt lat="44.89865" lon="0.79718">
        <ele>171.39999389648</ele>
        <time>2014-02-09T08:41:57.000Z</time>
      </trkpt>
      <trkpt lat="44.89871" lon="0.79725">
        <ele>172.60000610352</ele>
        <time>2014-02-09T08:42:01.000Z</time>
      </trkpt>
      <trkpt lat="44.89879" lon="0.79737">
        <ele>174.39999389648</ele>
        <time>2014-02-09T08:42:07.000Z</time>
      </trkpt>
      <trkpt lat="44.89888" lon="0.79749">
        <ele>176.19999694824</ele>
        <time>2014-02-09T08:42:13.000Z</time>
      </trkpt>
      <trkpt lat="44.899" lon="0.79764">
        <ele>177.80000305176</ele>
        <time>2014-02-09T08:42:20.000Z</time>
      </trkpt>
      <trkpt lat="44.89903" lon="0.79768">
        <ele>178.19999694824</ele>
        <time>2014-02-09T08:42:22.000Z</time>
      </trkpt>
      <trkpt lat="44.8991" lon="0.79777">
        <ele>179.19999694824</ele>
        <time>2014-02-09T08:42:26.000Z</time>
      </trkpt>
      <trkpt lat="44.89916" lon="0.79791">
        <ele>180.39999389648</ele>
        <time>2014-02-09T08:42:32.000Z</time>
      </trkpt>
      <trkpt lat="44.89918" lon="0.79806">
        <ele>181.39999389648</ele>
        <time>2014-02-09T08:42:37.000Z</time>
      </trkpt>
      <trkpt lat="44.89918" lon="0.79808">
        <ele>181.60000610352</ele>
        <time>2014-02-09T08:42:38.000Z</time>
      </trkpt>
      <trkpt lat="44.89919" lon="0.7981">
        <ele>181.60000610352</ele>
        <time>2014-02-09T08:42:45.000Z</time>
      </trkpt>
      <trkpt lat="44.89917" lon="0.79807">
        <ele>181.39999389648</ele>
        <time>2014-02-09T08:42:52.000Z</time>
      </trkpt>
      <trkpt lat="44.89914" lon="0.79806">
        <ele>181.19999694824</ele>
        <time>2014-02-09T08:42:57.000Z</time>
      </trkpt>
      <trkpt lat="44.89916" lon="0.79804">
        <ele>181.19999694824</ele>
        <time>2014-02-09T08:43:02.000Z</time>
      </trkpt>
      <trkpt lat="44.89917" lon="0.79808">
        <ele>181.39999389648</ele>
        <time>2014-02-09T08:43:09.000Z</time>
      </trkpt>
      <trkpt lat="44.89919" lon="0.79808">
        <ele>181.60000610352</ele>
        <time>2014-02-09T08:43:14.000Z</time>
      </trkpt>
      <trkpt lat="44.89922" lon="0.79812">
        <ele>182</ele>
        <time>2014-02-09T08:43:21.000Z</time>
      </trkpt>
      <trkpt lat="44.89926" lon="0.79817">
        <ele>182.39999389648</ele>
        <time>2014-02-09T08:43:27.000Z</time>
      </trkpt>
      <trkpt lat="44.8993" lon="0.79822">
        <ele>183</ele>
        <time>2014-02-09T08:43:33.000Z</time>
      </trkpt>
      <trkpt lat="44.89932" lon="0.79825">
        <ele>183.19999694824</ele>
        <time>2014-02-09T08:43:39.000Z</time>
      </trkpt>
      <trkpt lat="44.89932" lon="0.79825">
        <ele>183.19999694824</ele>
        <time>2014-02-09T08:43:46.000Z</time>
      </trkpt>
      <trkpt lat="44.8993" lon="0.79824">
        <ele>183</ele>
        <time>2014-02-09T08:43:53.000Z</time>
      </trkpt>
      <trkpt lat="44.8993" lon="0.79823">
        <ele>183</ele>
        <time>2014-02-09T08:44:00.000Z</time>
      </trkpt>
      <trkpt lat="44.89932" lon="0.79823">
        <ele>183.19999694824</ele>
        <time>2014-02-09T08:44:06.000Z</time>
      </trkpt>
      <trkpt lat="44.89931" lon="0.79825">
        <ele>183.19999694824</ele>
        <time>2014-02-09T08:44:11.000Z</time>
      </trkpt>
      <trkpt lat="44.89931" lon="0.79824">
        <ele>183.19999694824</ele>
        <time>2014-02-09T08:44:17.000Z</time>
      </trkpt>
      <trkpt lat="44.89933" lon="0.79825">
        <ele>183.19999694824</ele>
        <time>2014-02-09T08:44:25.000Z</time>
      </trkpt>
      <trkpt lat="44.89936" lon="0.79829">
        <ele>183.60000610352</ele>
        <time>2014-02-09T08:44:35.000Z</time>
      </trkpt>
      <trkpt lat="44.89937" lon="0.79829">
        <ele>183.60000610352</ele>
        <time>2014-02-09T08:44:41.000Z</time>
      </trkpt>
      <trkpt lat="44.89937" lon="0.79828">
        <ele>183.60000610352</ele>
        <time>2014-02-09T08:44:51.000Z</time>
      </trkpt>
      <trkpt lat="44.89938" lon="0.7983">
        <ele>183.80000305176</ele>
        <time>2014-02-09T08:44:58.000Z</time>
      </trkpt>
      <trkpt lat="44.89943" lon="0.79833">
        <ele>184.19999694824</ele>
        <time>2014-02-09T08:45:05.000Z</time>
      </trkpt>
      <trkpt lat="44.89947" lon="0.79838">
        <ele>184.60000610352</ele>
        <time>2014-02-09T08:45:12.000Z</time>
      </trkpt>
      <trkpt lat="44.89951" lon="0.79842">
        <ele>184.80000305176</ele>
        <time>2014-02-09T08:45:18.000Z</time>
      </trkpt>
      <trkpt lat="44.89956" lon="0.79847">
        <ele>185</ele>
        <time>2014-02-09T08:45:25.000Z</time>
      </trkpt>
      <trkpt lat="44.89964" lon="0.79853">
        <ele>185.39999389648</ele>
        <time>2014-02-09T08:45:33.000Z</time>
      </trkpt>
      <trkpt lat="44.89972" lon="0.7986">
        <ele>185.60000610352</ele>
        <time>2014-02-09T08:45:42.000Z</time>
      </trkpt>
      <trkpt lat="44.8998" lon="0.79865">
        <ele>186</ele>
        <time>2014-02-09T08:45:51.000Z</time>
      </trkpt>
      <trkpt lat="44.89983" lon="0.79871">
        <ele>186</ele>
        <time>2014-02-09T08:45:58.000Z</time>
      </trkpt>
      <trkpt lat="44.89984" lon="0.79875">
        <ele>186</ele>
        <time>2014-02-09T08:46:05.000Z</time>
      </trkpt>
      <trkpt lat="44.89983" lon="0.79875">
        <ele>186</ele>
        <time>2014-02-09T08:46:12.000Z</time>
      </trkpt>
      <trkpt lat="44.89983" lon="0.79875">
        <ele>186</ele>
        <time>2014-02-09T08:46:23.000Z</time>
      </trkpt>
      <trkpt lat="44.89983" lon="0.79877">
        <ele>186</ele>
        <time>2014-02-09T08:46:31.000Z</time>
      </trkpt>
      <trkpt lat="44.89983" lon="0.79878">
        <ele>186</ele>
        <time>2014-02-09T08:46:46.000Z</time>
      </trkpt>
      <trkpt lat="44.89981" lon="0.79884">
        <ele>186</ele>
        <time>2014-02-09T08:47:00.000Z</time>
      </trkpt>
      <trkpt lat="44.89979" lon="0.79889">
        <ele>185.80000305176</ele>
        <time>2014-02-09T08:47:06.000Z</time>
      </trkpt>
      <trkpt lat="44.89976" lon="0.79895">
        <ele>185.80000305176</ele>
        <time>2014-02-09T08:47:10.000Z</time>
      </trkpt>
      <trkpt lat="44.89971" lon="0.79905">
        <ele>185.60000610352</ele>
        <time>2014-02-09T08:47:14.000Z</time>
      </trkpt>
      <trkpt lat="44.89961" lon="0.79923">
        <ele>185.39999389648</ele>
        <time>2014-02-09T08:47:21.000Z</time>
      </trkpt>
      <trkpt lat="44.89958" lon="0.79929">
        <ele>185.19999694824</ele>
        <time>2014-02-09T08:47:23.000Z</time>
      </trkpt>
      <trkpt lat="44.89953" lon="0.79941">
        <ele>185</ele>
        <time>2014-02-09T08:47:27.000Z</time>
      </trkpt>
      <trkpt lat="44.89942" lon="0.7996">
        <ele>185</ele>
        <time>2014-02-09T08:47:33.000Z</time>
      </trkpt>
      <trkpt lat="44.89933" lon="0.79975">
        <ele>185.19999694824</ele>
        <time>2014-02-09T08:47:38.000Z</time>
      </trkpt>
      <trkpt lat="44.89919" lon="0.79996">
        <ele>185.80000305176</ele>
        <time>2014-02-09T08:47:45.000Z</time>
      </trkpt>
      <trkpt lat="44.89908" lon="0.80013">
        <ele>185.19999694824</ele>
        <time>2014-02-09T08:47:51.000Z</time>
      </trkpt>
      <trkpt lat="44.89898" lon="0.8003">
        <ele>184.19999694824</ele>
        <time>2014-02-09T08:47:57.000Z</time>
      </trkpt>
      <trkpt lat="44.89885" lon="0.8005">
        <ele>183.19999694824</ele>
        <time>2014-02-09T08:48:04.000Z</time>
      </trkpt>
      <trkpt lat="44.89874" lon="0.80067">
        <ele>182.39999389648</ele>
        <time>2014-02-09T08:48:10.000Z</time>
      </trkpt>
      <trkpt lat="44.89863" lon="0.80086">
        <ele>181.80000305176</ele>
        <time>2014-02-09T08:48:16.000Z</time>
      </trkpt>
      <trkpt lat="44.89852" lon="0.80103">
        <ele>180.80000305176</ele>
        <time>2014-02-09T08:48:22.000Z</time>
      </trkpt>
      <trkpt lat="44.89844" lon="0.80115">
        <ele>180.19999694824</ele>
        <time>2014-02-09T08:48:27.000Z</time>
      </trkpt>
      <trkpt lat="44.89833" lon="0.80133">
        <ele>179.60000610352</ele>
        <time>2014-02-09T08:48:33.000Z</time>
      </trkpt>
      <trkpt lat="44.89822" lon="0.8015">
        <ele>178.60000610352</ele>
        <time>2014-02-09T08:48:39.000Z</time>
      </trkpt>
      <trkpt lat="44.89812" lon="0.80168">
        <ele>177.80000305176</ele>
        <time>2014-02-09T08:48:45.000Z</time>
      </trkpt>
      <trkpt lat="44.89802" lon="0.80192">
        <ele>177.80000305176</ele>
        <time>2014-02-09T08:48:52.000Z</time>
      </trkpt>
      <trkpt lat="44.89796" lon="0.80213">
        <ele>177.80000305176</ele>
        <time>2014-02-09T08:48:58.000Z</time>
      </trkpt>
      <trkpt lat="44.89793" lon="0.80232">
        <ele>177.80000305176</ele>
        <time>2014-02-09T08:49:03.000Z</time>
      </trkpt>
      <trkpt lat="44.8979" lon="0.80258">
        <ele>177.60000610352</ele>
        <time>2014-02-09T08:49:10.000Z</time>
      </trkpt>
      <trkpt lat="44.89789" lon="0.80279">
        <ele>176.19999694824</ele>
        <time>2014-02-09T08:49:16.000Z</time>
      </trkpt>
      <trkpt lat="44.89789" lon="0.80296">
        <ele>175.19999694824</ele>
        <time>2014-02-09T08:49:21.000Z</time>
      </trkpt>
      <trkpt lat="44.89788" lon="0.80316">
        <ele>174</ele>
        <time>2014-02-09T08:49:26.000Z</time>
      </trkpt>
      <trkpt lat="44.89789" lon="0.80343">
        <ele>172.80000305176</ele>
        <time>2014-02-09T08:49:33.000Z</time>
      </trkpt>
      <trkpt lat="44.89787" lon="0.80374">
        <ele>172.39999389648</ele>
        <time>2014-02-09T08:49:41.000Z</time>
      </trkpt>
      <trkpt lat="44.89784" lon="0.80395">
        <ele>172</ele>
        <time>2014-02-09T08:49:47.000Z</time>
      </trkpt>
      <trkpt lat="44.89782" lon="0.80416">
        <ele>171.80000305176</ele>
        <time>2014-02-09T08:49:53.000Z</time>
      </trkpt>
      <trkpt lat="44.89778" lon="0.80437">
        <ele>171.80000305176</ele>
        <time>2014-02-09T08:49:59.000Z</time>
      </trkpt>
      <trkpt lat="44.89774" lon="0.80462">
        <ele>172.19999694824</ele>
        <time>2014-02-09T08:50:06.000Z</time>
      </trkpt>
      <trkpt lat="44.89772" lon="0.80483">
        <ele>172.39999389648</ele>
        <time>2014-02-09T08:50:12.000Z</time>
      </trkpt>
      <trkpt lat="44.89769" lon="0.80502">
        <ele>172.80000305176</ele>
        <time>2014-02-09T08:50:17.000Z</time>
      </trkpt>
      <trkpt lat="44.89765" lon="0.80522">
        <ele>173.19999694824</ele>
        <time>2014-02-09T08:50:23.000Z</time>
      </trkpt>
      <trkpt lat="44.89759" lon="0.80537">
        <ele>174</ele>
        <time>2014-02-09T08:50:28.000Z</time>
      </trkpt>
      <trkpt lat="44.89748" lon="0.80553">
        <ele>175.19999694824</ele>
        <time>2014-02-09T08:50:34.000Z</time>
      </trkpt>
      <trkpt lat="44.8974" lon="0.80568">
        <ele>175.19999694824</ele>
        <time>2014-02-09T08:50:39.000Z</time>
      </trkpt>
      <trkpt lat="44.89729" lon="0.80583">
        <ele>175.19999694824</ele>
        <time>2014-02-09T08:50:45.000Z</time>
      </trkpt>
      <trkpt lat="44.89719" lon="0.80597">
        <ele>175</ele>
        <time>2014-02-09T08:50:51.000Z</time>
      </trkpt>
      <trkpt lat="44.89709" lon="0.8061">
        <ele>174.80000305176</ele>
        <time>2014-02-09T08:50:57.000Z</time>
      </trkpt>
      <trkpt lat="44.89708" lon="0.80629">
        <ele>174.80000305176</ele>
        <time>2014-02-09T08:51:03.000Z</time>
      </trkpt>
      <trkpt lat="44.89714" lon="0.80647">
        <ele>175.19999694824</ele>
        <time>2014-02-09T08:51:09.000Z</time>
      </trkpt>
      <trkpt lat="44.89719" lon="0.80661">
        <ele>175.60000610352</ele>
        <time>2014-02-09T08:51:14.000Z</time>
      </trkpt>
      <trkpt lat="44.89724" lon="0.80677">
        <ele>175.80000305176</ele>
        <time>2014-02-09T08:51:19.000Z</time>
      </trkpt>
      <trkpt lat="44.89725" lon="0.80683">
        <ele>175.80000305176</ele>
        <time>2014-02-09T08:51:21.000Z</time>
      </trkpt>
      <trkpt lat="44.89731" lon="0.80698">
        <ele>175.80000305176</ele>
        <time>2014-02-09T08:51:26.000Z</time>
      </trkpt>
      <trkpt lat="44.89735" lon="0.80711">
        <ele>176</ele>
        <time>2014-02-09T08:51:30.000Z</time>
      </trkpt>
      <trkpt lat="44.89736" lon="0.80714">
        <ele>176</ele>
        <time>2014-02-09T08:51:31.000Z</time>
      </trkpt>
      <trkpt lat="44.89742" lon="0.80728">
        <ele>176.39999389648</ele>
        <time>2014-02-09T08:51:36.000Z</time>
      </trkpt>
      <trkpt lat="44.89749" lon="0.80744">
        <ele>177</ele>
        <time>2014-02-09T08:51:41.000Z</time>
      </trkpt>
      <trkpt lat="44.89758" lon="0.80761">
        <ele>175.39999389648</ele>
        <time>2014-02-09T08:51:47.000Z</time>
      </trkpt>
      <trkpt lat="44.8976" lon="0.80763">
        <ele>175.19999694824</ele>
        <time>2014-02-09T08:51:48.000Z</time>
      </trkpt>
      <trkpt lat="44.89763" lon="0.80768">
        <ele>174.60000610352</ele>
        <time>2014-02-09T08:51:50.000Z</time>
      </trkpt>
      <trkpt lat="44.89766" lon="0.80782">
        <ele>173.19999694824</ele>
        <time>2014-02-09T08:51:55.000Z</time>
      </trkpt>
      <trkpt lat="44.89767" lon="0.80785">
        <ele>173</ele>
        <time>2014-02-09T08:51:56.000Z</time>
      </trkpt>
      <trkpt lat="44.89774" lon="0.80802">
        <ele>171.39999389648</ele>
        <time>2014-02-09T08:52:01.000Z</time>
      </trkpt>
      <trkpt lat="44.89775" lon="0.80804">
        <ele>171.19999694824</ele>
        <time>2014-02-09T08:52:02.000Z</time>
      </trkpt>
      <trkpt lat="44.89783" lon="0.80824">
        <ele>169.60000610352</ele>
        <time>2014-02-09T08:52:08.000Z</time>
      </trkpt>
      <trkpt lat="44.8979" lon="0.8085">
        <ele>167.19999694824</ele>
        <time>2014-02-09T08:52:14.000Z</time>
      </trkpt>
      <trkpt lat="44.8979" lon="0.80869">
        <ele>165.39999389648</ele>
        <time>2014-02-09T08:52:19.000Z</time>
      </trkpt>
      <trkpt lat="44.8979" lon="0.80894">
        <ele>162.80000305176</ele>
        <time>2014-02-09T08:52:24.000Z</time>
      </trkpt>
      <trkpt lat="44.89797" lon="0.80921">
        <ele>160.19999694824</ele>
        <time>2014-02-09T08:52:30.000Z</time>
      </trkpt>
      <trkpt lat="44.89788" lon="0.80933">
        <ele>159.19999694824</ele>
        <time>2014-02-09T08:52:35.000Z</time>
      </trkpt>
      <trkpt lat="44.89778" lon="0.80942">
        <ele>158.39999389648</ele>
        <time>2014-02-09T08:52:39.000Z</time>
      </trkpt>
      <trkpt lat="44.89769" lon="0.80964">
        <ele>156.60000610352</ele>
        <time>2014-02-09T08:52:44.000Z</time>
      </trkpt>
      <trkpt lat="44.89765" lon="0.80971">
        <ele>156</ele>
        <time>2014-02-09T08:52:46.000Z</time>
      </trkpt>
      <trkpt lat="44.89754" lon="0.80991">
        <ele>154.60000610352</ele>
        <time>2014-02-09T08:52:52.000Z</time>
      </trkpt>
      <trkpt lat="44.89745" lon="0.81005">
        <ele>153.19999694824</ele>
        <time>2014-02-09T08:52:57.000Z</time>
      </trkpt>
      <trkpt lat="44.89734" lon="0.81021">
        <ele>151.19999694824</ele>
        <time>2014-02-09T08:53:03.000Z</time>
      </trkpt>
      <trkpt lat="44.89721" lon="0.81034">
        <ele>149</ele>
        <time>2014-02-09T08:53:09.000Z</time>
      </trkpt>
      <trkpt lat="44.89711" lon="0.81048">
        <ele>147.39999389648</ele>
        <time>2014-02-09T08:53:15.000Z</time>
      </trkpt>
      <trkpt lat="44.89707" lon="0.81071">
        <ele>146.60000610352</ele>
        <time>2014-02-09T08:53:21.000Z</time>
      </trkpt>
      <trkpt lat="44.89706" lon="0.81092">
        <ele>145.80000305176</ele>
        <time>2014-02-09T08:53:27.000Z</time>
      </trkpt>
      <trkpt lat="44.89709" lon="0.81114">
        <ele>145.19999694824</ele>
        <time>2014-02-09T08:53:33.000Z</time>
      </trkpt>
      <trkpt lat="44.89713" lon="0.8113">
        <ele>145</ele>
        <time>2014-02-09T08:53:38.000Z</time>
      </trkpt>
      <trkpt lat="44.89711" lon="0.8115">
        <ele>144</ele>
        <time>2014-02-09T08:53:44.000Z</time>
      </trkpt>
      <trkpt lat="44.89711" lon="0.81174">
        <ele>142.60000610352</ele>
        <time>2014-02-09T08:53:50.000Z</time>
      </trkpt>
      <trkpt lat="44.89714" lon="0.81192">
        <ele>141</ele>
        <time>2014-02-09T08:53:55.000Z</time>
      </trkpt>
      <trkpt lat="44.8972" lon="0.81214">
        <ele>139</ele>
        <time>2014-02-09T08:54:01.000Z</time>
      </trkpt>
      <trkpt lat="44.89724" lon="0.81235">
        <ele>137</ele>
        <time>2014-02-09T08:54:06.000Z</time>
      </trkpt>
      <trkpt lat="44.89728" lon="0.81255">
        <ele>135</ele>
        <time>2014-02-09T08:54:11.000Z</time>
      </trkpt>
      <trkpt lat="44.8973" lon="0.81272">
        <ele>133.60000610352</ele>
        <time>2014-02-09T08:54:15.000Z</time>
      </trkpt>
      <trkpt lat="44.89733" lon="0.81288">
        <ele>132.19999694824</ele>
        <time>2014-02-09T08:54:19.000Z</time>
      </trkpt>
      <trkpt lat="44.89734" lon="0.81308">
        <ele>130.39999389648</ele>
        <time>2014-02-09T08:54:24.000Z</time>
      </trkpt>
      <trkpt lat="44.8973" lon="0.81324">
        <ele>128.80000305176</ele>
        <time>2014-02-09T08:54:28.000Z</time>
      </trkpt>
      <trkpt lat="44.89726" lon="0.81343">
        <ele>127.19999694824</ele>
        <time>2014-02-09T08:54:33.000Z</time>
      </trkpt>
      <trkpt lat="44.8972" lon="0.8136">
        <ele>126</ele>
        <time>2014-02-09T08:54:38.000Z</time>
      </trkpt>
      <trkpt lat="44.89711" lon="0.81378">
        <ele>124.40000152588</ele>
        <time>2014-02-09T08:54:43.000Z</time>
      </trkpt>
      <trkpt lat="44.89699" lon="0.81393">
        <ele>123</ele>
        <time>2014-02-09T08:54:49.000Z</time>
      </trkpt>
      <trkpt lat="44.89691" lon="0.81404">
        <ele>122</ele>
        <time>2014-02-09T08:54:53.000Z</time>
      </trkpt>
      <trkpt lat="44.89693" lon="0.81417">
        <ele>121.19999694824</ele>
        <time>2014-02-09T08:54:57.000Z</time>
      </trkpt>
      <trkpt lat="44.89699" lon="0.81432">
        <ele>121</ele>
        <time>2014-02-09T08:55:02.000Z</time>
      </trkpt>
      <trkpt lat="44.89702" lon="0.81443">
        <ele>120.59999847412</ele>
        <time>2014-02-09T08:55:05.000Z</time>
      </trkpt>
      <trkpt lat="44.89694" lon="0.8146">
        <ele>119.80000305176</ele>
        <time>2014-02-09T08:55:10.000Z</time>
      </trkpt>
      <trkpt lat="44.89686" lon="0.8147">
        <ele>119.40000152588</ele>
        <time>2014-02-09T08:55:15.000Z</time>
      </trkpt>
      <trkpt lat="44.89676" lon="0.81483">
        <ele>119.19999694824</ele>
        <time>2014-02-09T08:55:20.000Z</time>
      </trkpt>
      <trkpt lat="44.89667" lon="0.81499">
        <ele>119</ele>
        <time>2014-02-09T08:55:27.000Z</time>
      </trkpt>
      <trkpt lat="44.89659" lon="0.81518">
        <ele>119.59999847412</ele>
        <time>2014-02-09T08:55:33.000Z</time>
      </trkpt>
      <trkpt lat="44.89658" lon="0.8152">
        <ele>119.80000305176</ele>
        <time>2014-02-09T08:55:36.000Z</time>
      </trkpt>
      <trkpt lat="44.89657" lon="0.81523">
        <ele>119.80000305176</ele>
        <time>2014-02-09T08:55:43.000Z</time>
      </trkpt>
      <trkpt lat="44.89656" lon="0.81527">
        <ele>120</ele>
        <time>2014-02-09T08:55:52.000Z</time>
      </trkpt>
      <trkpt lat="44.89652" lon="0.8153">
        <ele>120.40000152588</ele>
        <time>2014-02-09T08:56:02.000Z</time>
      </trkpt>
      <trkpt lat="44.89651" lon="0.81527">
        <ele>120.59999847412</ele>
        <time>2014-02-09T08:56:10.000Z</time>
      </trkpt>
      <trkpt lat="44.89653" lon="0.81532">
        <ele>120.19999694824</ele>
        <time>2014-02-09T08:56:23.000Z</time>
      </trkpt>
      <trkpt lat="44.89651" lon="0.81539">
        <ele>120.59999847412</ele>
        <time>2014-02-09T08:56:29.000Z</time>
      </trkpt>
      <trkpt lat="44.8965" lon="0.81543">
        <ele>120.59999847412</ele>
        <time>2014-02-09T08:56:31.000Z</time>
      </trkpt>
      <trkpt lat="44.89641" lon="0.81556">
        <ele>122</ele>
        <time>2014-02-09T08:56:37.000Z</time>
      </trkpt>
      <trkpt lat="44.8964" lon="0.81558">
        <ele>122.19999694824</ele>
        <time>2014-02-09T08:56:38.000Z</time>
      </trkpt>
      <trkpt lat="44.89632" lon="0.81571">
        <ele>123.59999847412</ele>
        <time>2014-02-09T08:56:44.000Z</time>
      </trkpt>
      <trkpt lat="44.89625" lon="0.81579">
        <ele>124.80000305176</ele>
        <time>2014-02-09T08:56:48.000Z</time>
      </trkpt>
      <trkpt lat="44.89614" lon="0.81597">
        <ele>127</ele>
        <time>2014-02-09T08:56:55.000Z</time>
      </trkpt>
      <trkpt lat="44.89606" lon="0.8161">
        <ele>128.60000610352</ele>
        <time>2014-02-09T08:57:00.000Z</time>
      </trkpt>
      <trkpt lat="44.89592" lon="0.81631">
        <ele>131.19999694824</ele>
        <time>2014-02-09T08:57:07.000Z</time>
      </trkpt>
      <trkpt lat="44.89585" lon="0.81642">
        <ele>132.39999389648</ele>
        <time>2014-02-09T08:57:11.000Z</time>
      </trkpt>
      <trkpt lat="44.89576" lon="0.81655">
        <ele>133.19999694824</ele>
        <time>2014-02-09T08:57:16.000Z</time>
      </trkpt>
      <trkpt lat="44.89569" lon="0.81664">
        <ele>133.39999389648</ele>
        <time>2014-02-09T08:57:21.000Z</time>
      </trkpt>
      <trkpt lat="44.89562" lon="0.81675">
        <ele>133.39999389648</ele>
        <time>2014-02-09T08:57:26.000Z</time>
      </trkpt>
      <trkpt lat="44.89548" lon="0.81694">
        <ele>133</ele>
        <time>2014-02-09T08:57:34.000Z</time>
      </trkpt>
      <trkpt lat="44.89539" lon="0.81706">
        <ele>132.80000305176</ele>
        <time>2014-02-09T08:57:40.000Z</time>
      </trkpt>
      <trkpt lat="44.89536" lon="0.81711">
        <ele>132.60000610352</ele>
        <time>2014-02-09T08:57:45.000Z</time>
      </trkpt>
      <trkpt lat="44.89535" lon="0.81712">
        <ele>132.60000610352</ele>
        <time>2014-02-09T08:57:47.000Z</time>
      </trkpt>
      <trkpt lat="44.89532" lon="0.81717">
        <ele>132.39999389648</ele>
        <time>2014-02-09T08:57:54.000Z</time>
      </trkpt>
      <trkpt lat="44.89528" lon="0.81725">
        <ele>132.19999694824</ele>
        <time>2014-02-09T08:58:01.000Z</time>
      </trkpt>
      <trkpt lat="44.89516" lon="0.81739">
        <ele>132</ele>
        <time>2014-02-09T08:58:08.000Z</time>
      </trkpt>
      <trkpt lat="44.89504" lon="0.81745">
        <ele>132</ele>
        <time>2014-02-09T08:58:13.000Z</time>
      </trkpt>
      <trkpt lat="44.89492" lon="0.81756">
        <ele>131.60000610352</ele>
        <time>2014-02-09T08:58:18.000Z</time>
      </trkpt>
      <trkpt lat="44.89476" lon="0.81772">
        <ele>130.39999389648</ele>
        <time>2014-02-09T08:58:25.000Z</time>
      </trkpt>
      <trkpt lat="44.89462" lon="0.81783">
        <ele>129.60000610352</ele>
        <time>2014-02-09T08:58:31.000Z</time>
      </trkpt>
      <trkpt lat="44.89451" lon="0.81792">
        <ele>128.80000305176</ele>
        <time>2014-02-09T08:58:36.000Z</time>
      </trkpt>
      <trkpt lat="44.89435" lon="0.81805">
        <ele>127.40000152588</ele>
        <time>2014-02-09T08:58:43.000Z</time>
      </trkpt>
      <trkpt lat="44.89433" lon="0.81806">
        <ele>127.19999694824</ele>
        <time>2014-02-09T08:58:44.000Z</time>
      </trkpt>
      <trkpt lat="44.89424" lon="0.81817">
        <ele>126.19999694824</ele>
        <time>2014-02-09T08:58:48.000Z</time>
      </trkpt>
      <trkpt lat="44.89414" lon="0.81825">
        <ele>125.40000152588</ele>
        <time>2014-02-09T08:58:53.000Z</time>
      </trkpt>
      <trkpt lat="44.89403" lon="0.81835">
        <ele>124.19999694824</ele>
        <time>2014-02-09T08:58:58.000Z</time>
      </trkpt>
      <trkpt lat="44.8939" lon="0.81849">
        <ele>123</ele>
        <time>2014-02-09T08:59:03.000Z</time>
      </trkpt>
      <trkpt lat="44.89376" lon="0.81858">
        <ele>121.80000305176</ele>
        <time>2014-02-09T08:59:08.000Z</time>
      </trkpt>
      <trkpt lat="44.89364" lon="0.81868">
        <ele>120.80000305176</ele>
        <time>2014-02-09T08:59:13.000Z</time>
      </trkpt>
      <trkpt lat="44.8935" lon="0.81879">
        <ele>119.80000305176</ele>
        <time>2014-02-09T08:59:19.000Z</time>
      </trkpt>
      <trkpt lat="44.89332" lon="0.81896">
        <ele>118.59999847412</ele>
        <time>2014-02-09T08:59:27.000Z</time>
      </trkpt>
      <trkpt lat="44.8932" lon="0.81907">
        <ele>119.19999694824</ele>
        <time>2014-02-09T08:59:33.000Z</time>
      </trkpt>
      <trkpt lat="44.89304" lon="0.81919">
        <ele>120.19999694824</ele>
        <time>2014-02-09T08:59:40.000Z</time>
      </trkpt>
      <trkpt lat="44.89293" lon="0.81926">
        <ele>121.19999694824</ele>
        <time>2014-02-09T08:59:45.000Z</time>
      </trkpt>
      <trkpt lat="44.89284" lon="0.81932">
        <ele>122.19999694824</ele>
        <time>2014-02-09T08:59:50.000Z</time>
      </trkpt>
      <trkpt lat="44.89275" lon="0.81942">
        <ele>123.19999694824</ele>
        <time>2014-02-09T08:59:55.000Z</time>
      </trkpt>
      <trkpt lat="44.89264" lon="0.81952">
        <ele>124.80000305176</ele>
        <time>2014-02-09T09:00:00.000Z</time>
      </trkpt>
      <trkpt lat="44.8925" lon="0.81961">
        <ele>126.59999847412</ele>
        <time>2014-02-09T09:00:06.000Z</time>
      </trkpt>
      <trkpt lat="44.89243" lon="0.81963">
        <ele>127.40000152588</ele>
        <time>2014-02-09T09:00:09.000Z</time>
      </trkpt>
      <trkpt lat="44.89229" lon="0.81967">
        <ele>128.60000610352</ele>
        <time>2014-02-09T09:00:15.000Z</time>
      </trkpt>
      <trkpt lat="44.89219" lon="0.81972">
        <ele>129.60000610352</ele>
        <time>2014-02-09T09:00:20.000Z</time>
      </trkpt>
      <trkpt lat="44.8921" lon="0.81983">
        <ele>131</ele>
        <time>2014-02-09T09:00:25.000Z</time>
      </trkpt>
      <trkpt lat="44.89205" lon="0.8199">
        <ele>131.80000305176</ele>
        <time>2014-02-09T09:00:28.000Z</time>
      </trkpt>
      <trkpt lat="44.89193" lon="0.82001">
        <ele>133.19999694824</ele>
        <time>2014-02-09T09:00:34.000Z</time>
      </trkpt>
      <trkpt lat="44.89185" lon="0.82008">
        <ele>133.80000305176</ele>
        <time>2014-02-09T09:00:38.000Z</time>
      </trkpt>
      <trkpt lat="44.89175" lon="0.82017">
        <ele>134.80000305176</ele>
        <time>2014-02-09T09:00:43.000Z</time>
      </trkpt>
      <trkpt lat="44.89162" lon="0.82023">
        <ele>136</ele>
        <time>2014-02-09T09:00:49.000Z</time>
      </trkpt>
      <trkpt lat="44.89147" lon="0.82028">
        <ele>137.80000305176</ele>
        <time>2014-02-09T09:00:56.000Z</time>
      </trkpt>
      <trkpt lat="44.89139" lon="0.82035">
        <ele>139</ele>
        <time>2014-02-09T09:01:00.000Z</time>
      </trkpt>
      <trkpt lat="44.89119" lon="0.82048">
        <ele>141.60000610352</ele>
        <time>2014-02-09T09:01:09.000Z</time>
      </trkpt>
      <trkpt lat="44.89106" lon="0.82049">
        <ele>143.19999694824</ele>
        <time>2014-02-09T09:01:15.000Z</time>
      </trkpt>
      <trkpt lat="44.89094" lon="0.82049">
        <ele>144.60000610352</ele>
        <time>2014-02-09T09:01:21.000Z</time>
      </trkpt>
      <trkpt lat="44.89081" lon="0.82042">
        <ele>145.80000305176</ele>
        <time>2014-02-09T09:01:28.000Z</time>
      </trkpt>
      <trkpt lat="44.89079" lon="0.82042">
        <ele>146</ele>
        <time>2014-02-09T09:01:29.000Z</time>
      </trkpt>
      <trkpt lat="44.89066" lon="0.82047">
        <ele>147.39999389648</ele>
        <time>2014-02-09T09:01:35.000Z</time>
      </trkpt>
      <trkpt lat="44.89049" lon="0.82052">
        <ele>149</ele>
        <time>2014-02-09T09:01:42.000Z</time>
      </trkpt>
      <trkpt lat="44.89036" lon="0.82054">
        <ele>150.19999694824</ele>
        <time>2014-02-09T09:01:48.000Z</time>
      </trkpt>
      <trkpt lat="44.8902" lon="0.8206">
        <ele>151.80000305176</ele>
        <time>2014-02-09T09:01:55.000Z</time>
      </trkpt>
      <trkpt lat="44.89007" lon="0.82066">
        <ele>152.60000610352</ele>
        <time>2014-02-09T09:02:00.000Z</time>
      </trkpt>
      <trkpt lat="44.88996" lon="0.82072">
        <ele>153.39999389648</ele>
        <time>2014-02-09T09:02:05.000Z</time>
      </trkpt>
      <trkpt lat="44.88982" lon="0.82078">
        <ele>153.80000305176</ele>
        <time>2014-02-09T09:02:11.000Z</time>
      </trkpt>
      <trkpt lat="44.88965" lon="0.82082">
        <ele>154.39999389648</ele>
        <time>2014-02-09T09:02:18.000Z</time>
      </trkpt>
      <trkpt lat="44.88954" lon="0.82087">
        <ele>154.39999389648</ele>
        <time>2014-02-09T09:02:23.000Z</time>
      </trkpt>
      <trkpt lat="44.88942" lon="0.82093">
        <ele>154</ele>
        <time>2014-02-09T09:02:28.000Z</time>
      </trkpt>
      <trkpt lat="44.88929" lon="0.82104">
        <ele>153.19999694824</ele>
        <time>2014-02-09T09:02:33.000Z</time>
      </trkpt>
      <trkpt lat="44.88915" lon="0.82114">
        <ele>152</ele>
        <time>2014-02-09T09:02:38.000Z</time>
      </trkpt>
      <trkpt lat="44.88904" lon="0.82124">
        <ele>151.19999694824</ele>
        <time>2014-02-09T09:02:43.000Z</time>
      </trkpt>
      <trkpt lat="44.88891" lon="0.82141">
        <ele>149.39999389648</ele>
        <time>2014-02-09T09:02:49.000Z</time>
      </trkpt>
      <trkpt lat="44.8888" lon="0.82152">
        <ele>148.60000610352</ele>
        <time>2014-02-09T09:02:53.000Z</time>
      </trkpt>
      <trkpt lat="44.88868" lon="0.82159">
        <ele>148.19999694824</ele>
        <time>2014-02-09T09:02:58.000Z</time>
      </trkpt>
      <trkpt lat="44.88853" lon="0.82172">
        <ele>147.39999389648</ele>
        <time>2014-02-09T09:03:04.000Z</time>
      </trkpt>
      <trkpt lat="44.8884" lon="0.82191">
        <ele>145.80000305176</ele>
        <time>2014-02-09T09:03:10.000Z</time>
      </trkpt>
      <trkpt lat="44.88828" lon="0.82209">
        <ele>143.80000305176</ele>
        <time>2014-02-09T09:03:16.000Z</time>
      </trkpt>
      <trkpt lat="44.88812" lon="0.82229">
        <ele>141.60000610352</ele>
        <time>2014-02-09T09:03:22.000Z</time>
      </trkpt>
      <trkpt lat="44.88803" lon="0.82241">
        <ele>140.60000610352</ele>
        <time>2014-02-09T09:03:26.000Z</time>
      </trkpt>
      <trkpt lat="44.8879" lon="0.82264">
        <ele>139</ele>
        <time>2014-02-09T09:03:32.000Z</time>
      </trkpt>
      <trkpt lat="44.8878" lon="0.82275">
        <ele>138.60000610352</ele>
        <time>2014-02-09T09:03:38.000Z</time>
      </trkpt>
      <trkpt lat="44.88773" lon="0.82285">
        <ele>138.19999694824</ele>
        <time>2014-02-09T09:03:42.000Z</time>
      </trkpt>
      <trkpt lat="44.88764" lon="0.82296">
        <ele>138</ele>
        <time>2014-02-09T09:03:47.000Z</time>
      </trkpt>
      <trkpt lat="44.88754" lon="0.82306">
        <ele>138</ele>
        <time>2014-02-09T09:03:52.000Z</time>
      </trkpt>
      <trkpt lat="44.88745" lon="0.82323">
        <ele>136.39999389648</ele>
        <time>2014-02-09T09:03:58.000Z</time>
      </trkpt>
      <trkpt lat="44.88738" lon="0.82333">
        <ele>134.80000305176</ele>
        <time>2014-02-09T09:04:02.000Z</time>
      </trkpt>
      <trkpt lat="44.88737" lon="0.82336">
        <ele>134.60000610352</ele>
        <time>2014-02-09T09:04:04.000Z</time>
      </trkpt>
      <trkpt lat="44.88734" lon="0.82345">
        <ele>134.19999694824</ele>
        <time>2014-02-09T09:04:11.000Z</time>
      </trkpt>
      <trkpt lat="44.88734" lon="0.8235">
        <ele>134</ele>
        <time>2014-02-09T09:04:16.000Z</time>
      </trkpt>
      <trkpt lat="44.88732" lon="0.82352">
        <ele>133.80000305176</ele>
        <time>2014-02-09T09:04:22.000Z</time>
      </trkpt>
      <trkpt lat="44.88732" lon="0.82353">
        <ele>133.60000610352</ele>
        <time>2014-02-09T09:04:30.000Z</time>
      </trkpt>
      <trkpt lat="44.88732" lon="0.82352">
        <ele>133.80000305176</ele>
        <time>2014-02-09T09:04:35.000Z</time>
      </trkpt>
      <trkpt lat="44.88733" lon="0.82359">
        <ele>134</ele>
        <time>2014-02-09T09:04:47.000Z</time>
      </trkpt>
      <trkpt lat="44.88731" lon="0.82372">
        <ele>133.39999389648</ele>
        <time>2014-02-09T09:04:54.000Z</time>
      </trkpt>
      <trkpt lat="44.88725" lon="0.82385">
        <ele>132.60000610352</ele>
        <time>2014-02-09T09:04:58.000Z</time>
      </trkpt>
      <trkpt lat="44.88717" lon="0.82413">
        <ele>131.60000610352</ele>
        <time>2014-02-09T09:05:06.000Z</time>
      </trkpt>
      <trkpt lat="44.88711" lon="0.82435">
        <ele>132.19999694824</ele>
        <time>2014-02-09T09:05:12.000Z</time>
      </trkpt>
      <trkpt lat="44.88708" lon="0.82445">
        <ele>132.60000610352</ele>
        <time>2014-02-09T09:05:15.000Z</time>
      </trkpt>
      <trkpt lat="44.88707" lon="0.82452">
        <ele>132.80000305176</ele>
        <time>2014-02-09T09:05:17.000Z</time>
      </trkpt>
      <trkpt lat="44.88702" lon="0.82469">
        <ele>133.80000305176</ele>
        <time>2014-02-09T09:05:22.000Z</time>
      </trkpt>
      <trkpt lat="44.88698" lon="0.82487">
        <ele>135</ele>
        <time>2014-02-09T09:05:27.000Z</time>
      </trkpt>
      <trkpt lat="44.88696" lon="0.82494">
        <ele>135.39999389648</ele>
        <time>2014-02-09T09:05:29.000Z</time>
      </trkpt>
      <trkpt lat="44.88689" lon="0.82513">
        <ele>136.39999389648</ele>
        <time>2014-02-09T09:05:35.000Z</time>
      </trkpt>
      <trkpt lat="44.88681" lon="0.82529">
        <ele>137</ele>
        <time>2014-02-09T09:05:40.000Z</time>
      </trkpt>
      <trkpt lat="44.88672" lon="0.82547">
        <ele>138.60000610352</ele>
        <time>2014-02-09T09:05:46.000Z</time>
      </trkpt>
      <trkpt lat="44.88662" lon="0.82568">
        <ele>139.60000610352</ele>
        <time>2014-02-09T09:05:52.000Z</time>
      </trkpt>
      <trkpt lat="44.88658" lon="0.82587">
        <ele>139.39999389648</ele>
        <time>2014-02-09T09:05:57.000Z</time>
      </trkpt>
      <trkpt lat="44.88653" lon="0.82604">
        <ele>138.39999389648</ele>
        <time>2014-02-09T09:06:02.000Z</time>
      </trkpt>
      <trkpt lat="44.88648" lon="0.82621">
        <ele>137.80000305176</ele>
        <time>2014-02-09T09:06:07.000Z</time>
      </trkpt>
      <trkpt lat="44.8864" lon="0.82642">
        <ele>137</ele>
        <time>2014-02-09T09:06:13.000Z</time>
      </trkpt>
      <trkpt lat="44.88634" lon="0.8266">
        <ele>137</ele>
        <time>2014-02-09T09:06:18.000Z</time>
      </trkpt>
      <trkpt lat="44.88629" lon="0.82677">
        <ele>137.39999389648</ele>
        <time>2014-02-09T09:06:23.000Z</time>
      </trkpt>
      <trkpt lat="44.88623" lon="0.82694">
        <ele>138</ele>
        <time>2014-02-09T09:06:28.000Z</time>
      </trkpt>
      <trkpt lat="44.88619" lon="0.82707">
        <ele>138.60000610352</ele>
        <time>2014-02-09T09:06:32.000Z</time>
      </trkpt>
      <trkpt lat="44.88612" lon="0.82728">
        <ele>140</ele>
        <time>2014-02-09T09:06:38.000Z</time>
      </trkpt>
      <trkpt lat="44.88609" lon="0.82734">
        <ele>140.39999389648</ele>
        <time>2014-02-09T09:06:41.000Z</time>
      </trkpt>
      <trkpt lat="44.88606" lon="0.82739">
        <ele>140.60000610352</ele>
        <time>2014-02-09T09:06:50.000Z</time>
      </trkpt>
      <trkpt lat="44.88607" lon="0.8274">
        <ele>140.80000305176</ele>
        <time>2014-02-09T09:07:00.000Z</time>
      </trkpt>
      <trkpt lat="44.88608" lon="0.8274">
        <ele>140.80000305176</ele>
        <time>2014-02-09T09:07:06.000Z</time>
      </trkpt>
      <trkpt lat="44.88608" lon="0.8274">
        <ele>141</ele>
        <time>2014-02-09T09:07:11.000Z</time>
      </trkpt>
      <trkpt lat="44.88609" lon="0.8274">
        <ele>141</ele>
        <time>2014-02-09T09:07:20.000Z</time>
      </trkpt>
      <trkpt lat="44.88609" lon="0.8274">
        <ele>141</ele>
        <time>2014-02-09T09:07:34.000Z</time>
      </trkpt>
      <trkpt lat="44.88608" lon="0.82741">
        <ele>141</ele>
        <time>2014-02-09T09:07:44.000Z</time>
      </trkpt>
      <trkpt lat="44.88607" lon="0.82744">
        <ele>141.19999694824</ele>
        <time>2014-02-09T09:07:53.000Z</time>
      </trkpt>
      <trkpt lat="44.88607" lon="0.82744">
        <ele>141.19999694824</ele>
        <time>2014-02-09T09:08:00.000Z</time>
      </trkpt>
      <trkpt lat="44.88608" lon="0.82746">
        <ele>141.39999389648</ele>
        <time>2014-02-09T09:08:10.000Z</time>
      </trkpt>
      <trkpt lat="44.88608" lon="0.82748">
        <ele>141.60000610352</ele>
        <time>2014-02-09T09:08:19.000Z</time>
      </trkpt>
      <trkpt lat="44.88609" lon="0.82749">
        <ele>141.80000305176</ele>
        <time>2014-02-09T09:08:26.000Z</time>
      </trkpt>
      <trkpt lat="44.88608" lon="0.82755">
        <ele>142</ele>
        <time>2014-02-09T09:08:34.000Z</time>
      </trkpt>
      <trkpt lat="44.88606" lon="0.82759">
        <ele>142</ele>
        <time>2014-02-09T09:08:41.000Z</time>
      </trkpt>
      <trkpt lat="44.88604" lon="0.82763">
        <ele>142</ele>
        <time>2014-02-09T09:08:47.000Z</time>
      </trkpt>
      <trkpt lat="44.88603" lon="0.82761">
        <ele>141.80000305176</ele>
        <time>2014-02-09T09:08:55.000Z</time>
      </trkpt>
      <trkpt lat="44.88601" lon="0.82766">
        <ele>141.80000305176</ele>
        <time>2014-02-09T09:09:06.000Z</time>
      </trkpt>
      <trkpt lat="44.886" lon="0.82773">
        <ele>142</ele>
        <time>2014-02-09T09:09:13.000Z</time>
      </trkpt>
      <trkpt lat="44.88598" lon="0.82776">
        <ele>142</ele>
        <time>2014-02-09T09:09:18.000Z</time>
      </trkpt>
      <trkpt lat="44.88596" lon="0.82782">
        <ele>142</ele>
        <time>2014-02-09T09:09:25.000Z</time>
      </trkpt>
      <trkpt lat="44.88594" lon="0.82788">
        <ele>142.19999694824</ele>
        <time>2014-02-09T09:09:31.000Z</time>
      </trkpt>
      <trkpt lat="44.88593" lon="0.82789">
        <ele>142.19999694824</ele>
        <time>2014-02-09T09:09:32.000Z</time>
      </trkpt>
      <trkpt lat="44.88588" lon="0.82801">
        <ele>142.19999694824</ele>
        <time>2014-02-09T09:09:39.000Z</time>
      </trkpt>
      <trkpt lat="44.88583" lon="0.82809">
        <ele>142.39999389648</ele>
        <time>2014-02-09T09:09:44.000Z</time>
      </trkpt>
      <trkpt lat="44.88576" lon="0.8282">
        <ele>141</ele>
        <time>2014-02-09T09:09:51.000Z</time>
      </trkpt>
      <trkpt lat="44.8857" lon="0.82826">
        <ele>140</ele>
        <time>2014-02-09T09:09:58.000Z</time>
      </trkpt>
      <trkpt lat="44.88566" lon="0.82835">
        <ele>139.39999389648</ele>
        <time>2014-02-09T09:10:04.000Z</time>
      </trkpt>
      <trkpt lat="44.88561" lon="0.82843">
        <ele>138.39999389648</ele>
        <time>2014-02-09T09:10:09.000Z</time>
      </trkpt>
      <trkpt lat="44.88556" lon="0.82851">
        <ele>137.80000305176</ele>
        <time>2014-02-09T09:10:15.000Z</time>
      </trkpt>
      <trkpt lat="44.8855" lon="0.82865">
        <ele>137</ele>
        <time>2014-02-09T09:10:21.000Z</time>
      </trkpt>
      <trkpt lat="44.88546" lon="0.82872">
        <ele>136.80000305176</ele>
        <time>2014-02-09T09:10:24.000Z</time>
      </trkpt>
      <trkpt lat="44.88537" lon="0.82886">
        <ele>136.19999694824</ele>
        <time>2014-02-09T09:10:30.000Z</time>
      </trkpt>
      <trkpt lat="44.88528" lon="0.82902">
        <ele>136.19999694824</ele>
        <time>2014-02-09T09:10:36.000Z</time>
      </trkpt>
      <trkpt lat="44.88519" lon="0.82917">
        <ele>136.60000610352</ele>
        <time>2014-02-09T09:10:42.000Z</time>
      </trkpt>
      <trkpt lat="44.88509" lon="0.82932">
        <ele>136</ele>
        <time>2014-02-09T09:10:48.000Z</time>
      </trkpt>
      <trkpt lat="44.88499" lon="0.82947">
        <ele>135.39999389648</ele>
        <time>2014-02-09T09:10:54.000Z</time>
      </trkpt>
      <trkpt lat="44.88491" lon="0.82959">
        <ele>133.80000305176</ele>
        <time>2014-02-09T09:10:59.000Z</time>
      </trkpt>
      <trkpt lat="44.8848" lon="0.82975">
        <ele>131.80000305176</ele>
        <time>2014-02-09T09:11:05.000Z</time>
      </trkpt>
      <trkpt lat="44.88476" lon="0.82984">
        <ele>131.19999694824</ele>
        <time>2014-02-09T09:11:09.000Z</time>
      </trkpt>
      <trkpt lat="44.88475" lon="0.82993">
        <ele>131.60000610352</ele>
        <time>2014-02-09T09:11:15.000Z</time>
      </trkpt>
      <trkpt lat="44.88485" lon="0.83006">
        <ele>134</ele>
        <time>2014-02-09T09:11:21.000Z</time>
      </trkpt>
      <trkpt lat="44.88493" lon="0.83018">
        <ele>135.60000610352</ele>
        <time>2014-02-09T09:11:26.000Z</time>
      </trkpt>
      <trkpt lat="44.885" lon="0.83034">
        <ele>137</ele>
        <time>2014-02-09T09:11:31.000Z</time>
      </trkpt>
      <trkpt lat="44.88505" lon="0.83054">
        <ele>137</ele>
        <time>2014-02-09T09:11:37.000Z</time>
      </trkpt>
      <trkpt lat="44.88509" lon="0.8307">
        <ele>137</ele>
        <time>2014-02-09T09:11:42.000Z</time>
      </trkpt>
      <trkpt lat="44.88513" lon="0.83083">
        <ele>136.80000305176</ele>
        <time>2014-02-09T09:11:46.000Z</time>
      </trkpt>
      <trkpt lat="44.88514" lon="0.83098">
        <ele>135.80000305176</ele>
        <time>2014-02-09T09:11:50.000Z</time>
      </trkpt>
      <trkpt lat="44.88519" lon="0.83116">
        <ele>134.39999389648</ele>
        <time>2014-02-09T09:11:56.000Z</time>
      </trkpt>
      <trkpt lat="44.88521" lon="0.83131">
        <ele>133.39999389648</ele>
        <time>2014-02-09T09:12:00.000Z</time>
      </trkpt>
      <trkpt lat="44.88523" lon="0.83138">
        <ele>132.80000305176</ele>
        <time>2014-02-09T09:12:02.000Z</time>
      </trkpt>
      <trkpt lat="44.88527" lon="0.83162">
        <ele>131</ele>
        <time>2014-02-09T09:12:09.000Z</time>
      </trkpt>
      <trkpt lat="44.88529" lon="0.83171">
        <ele>130.39999389648</ele>
        <time>2014-02-09T09:12:12.000Z</time>
      </trkpt>
      <trkpt lat="44.88533" lon="0.83192">
        <ele>128.60000610352</ele>
        <time>2014-02-09T09:12:18.000Z</time>
      </trkpt>
      <trkpt lat="44.8854" lon="0.83213">
        <ele>127</ele>
        <time>2014-02-09T09:12:23.000Z</time>
      </trkpt>
      <trkpt lat="44.88543" lon="0.83232">
        <ele>125.40000152588</ele>
        <time>2014-02-09T09:12:27.000Z</time>
      </trkpt>
      <trkpt lat="44.88546" lon="0.83254">
        <ele>123.40000152588</ele>
        <time>2014-02-09T09:12:32.000Z</time>
      </trkpt>
      <trkpt lat="44.88549" lon="0.83268">
        <ele>121.80000305176</ele>
        <time>2014-02-09T09:12:37.000Z</time>
      </trkpt>
      <trkpt lat="44.88551" lon="0.83273">
        <ele>121.19999694824</ele>
        <time>2014-02-09T09:12:43.000Z</time>
      </trkpt>
      <trkpt lat="44.88557" lon="0.83261">
        <ele>122.19999694824</ele>
        <time>2014-02-09T09:12:47.000Z</time>
      </trkpt>
      <trkpt lat="44.88578" lon="0.83247">
        <ele>122.59999847412</ele>
        <time>2014-02-09T09:12:55.000Z</time>
      </trkpt>
      <trkpt lat="44.88591" lon="0.83239">
        <ele>122.40000152588</ele>
        <time>2014-02-09T09:13:00.000Z</time>
      </trkpt>
      <trkpt lat="44.88603" lon="0.83236">
        <ele>121.59999847412</ele>
        <time>2014-02-09T09:13:05.000Z</time>
      </trkpt>
      <trkpt lat="44.88617" lon="0.83231">
        <ele>120.80000305176</ele>
        <time>2014-02-09T09:13:11.000Z</time>
      </trkpt>
      <trkpt lat="44.88634" lon="0.83226">
        <ele>120</ele>
        <time>2014-02-09T09:13:18.000Z</time>
      </trkpt>
      <trkpt lat="44.88643" lon="0.83222">
        <ele>119.40000152588</ele>
        <time>2014-02-09T09:13:23.000Z</time>
      </trkpt>
      <trkpt lat="44.88656" lon="0.83218">
        <ele>118.59999847412</ele>
        <time>2014-02-09T09:13:29.000Z</time>
      </trkpt>
      <trkpt lat="44.88672" lon="0.83211">
        <ele>118.19999694824</ele>
        <time>2014-02-09T09:13:36.000Z</time>
      </trkpt>
      <trkpt lat="44.88689" lon="0.83203">
        <ele>118.59999847412</ele>
        <time>2014-02-09T09:13:43.000Z</time>
      </trkpt>
      <trkpt lat="44.88703" lon="0.83197">
        <ele>119</ele>
        <time>2014-02-09T09:13:49.000Z</time>
      </trkpt>
      <trkpt lat="44.88721" lon="0.8319">
        <ele>119</ele>
        <time>2014-02-09T09:13:57.000Z</time>
      </trkpt>
      <trkpt lat="44.88737" lon="0.83186">
        <ele>119.19999694824</ele>
        <time>2014-02-09T09:14:04.000Z</time>
      </trkpt>
      <trkpt lat="44.88748" lon="0.83181">
        <ele>119.19999694824</ele>
        <time>2014-02-09T09:14:09.000Z</time>
      </trkpt>
      <trkpt lat="44.8875" lon="0.8318">
        <ele>119.19999694824</ele>
        <time>2014-02-09T09:14:10.000Z</time>
      </trkpt>
      <trkpt lat="44.88759" lon="0.83173">
        <ele>119.40000152588</ele>
        <time>2014-02-09T09:14:14.000Z</time>
      </trkpt>
      <trkpt lat="44.88772" lon="0.83162">
        <ele>119.19999694824</ele>
        <time>2014-02-09T09:14:20.000Z</time>
      </trkpt>
      <trkpt lat="44.88787" lon="0.8315">
        <ele>118.59999847412</ele>
        <time>2014-02-09T09:14:27.000Z</time>
      </trkpt>
      <trkpt lat="44.88799" lon="0.83139">
        <ele>118</ele>
        <time>2014-02-09T09:14:33.000Z</time>
      </trkpt>
      <trkpt lat="44.88815" lon="0.83128">
        <ele>116.80000305176</ele>
        <time>2014-02-09T09:14:39.000Z</time>
      </trkpt>
      <trkpt lat="44.88824" lon="0.8312">
        <ele>116</ele>
        <time>2014-02-09T09:14:43.000Z</time>
      </trkpt>
      <trkpt lat="44.88836" lon="0.83109">
        <ele>114.80000305176</ele>
        <time>2014-02-09T09:14:48.000Z</time>
      </trkpt>
      <trkpt lat="44.88849" lon="0.83099">
        <ele>114.40000152588</ele>
        <time>2014-02-09T09:14:53.000Z</time>
      </trkpt>
      <trkpt lat="44.88866" lon="0.83087">
        <ele>114</ele>
        <time>2014-02-09T09:14:59.000Z</time>
      </trkpt>
      <trkpt lat="44.88877" lon="0.83076">
        <ele>114.40000152588</ele>
        <time>2014-02-09T09:15:04.000Z</time>
      </trkpt>
      <trkpt lat="44.88885" lon="0.83068">
        <ele>114.80000305176</ele>
        <time>2014-02-09T09:15:08.000Z</time>
      </trkpt>
      <trkpt lat="44.88898" lon="0.83057">
        <ele>115.40000152588</ele>
        <time>2014-02-09T09:15:14.000Z</time>
      </trkpt>
      <trkpt lat="44.88909" lon="0.83047">
        <ele>116</ele>
        <time>2014-02-09T09:15:20.000Z</time>
      </trkpt>
      <trkpt lat="44.88914" lon="0.83036">
        <ele>116.80000305176</ele>
        <time>2014-02-09T09:15:24.000Z</time>
      </trkpt>
      <trkpt lat="44.88924" lon="0.83022">
        <ele>117.80000305176</ele>
        <time>2014-02-09T09:15:30.000Z</time>
      </trkpt>
      <trkpt lat="44.88931" lon="0.83009">
        <ele>118.40000152588</ele>
        <time>2014-02-09T09:15:35.000Z</time>
      </trkpt>
      <trkpt lat="44.88942" lon="0.82999">
        <ele>118.80000305176</ele>
        <time>2014-02-09T09:15:40.000Z</time>
      </trkpt>
      <trkpt lat="44.88956" lon="0.82986">
        <ele>119</ele>
        <time>2014-02-09T09:15:47.000Z</time>
      </trkpt>
      <trkpt lat="44.88965" lon="0.82975">
        <ele>119.19999694824</ele>
        <time>2014-02-09T09:15:52.000Z</time>
      </trkpt>
      <trkpt lat="44.88979" lon="0.82962">
        <ele>119.19999694824</ele>
        <time>2014-02-09T09:15:59.000Z</time>
      </trkpt>
      <trkpt lat="44.8899" lon="0.82952">
        <ele>119.40000152588</ele>
        <time>2014-02-09T09:16:04.000Z</time>
      </trkpt>
      <trkpt lat="44.89001" lon="0.82944">
        <ele>119.19999694824</ele>
        <time>2014-02-09T09:16:09.000Z</time>
      </trkpt>
      <trkpt lat="44.89013" lon="0.82932">
        <ele>119</ele>
        <time>2014-02-09T09:16:15.000Z</time>
      </trkpt>
      <trkpt lat="44.89026" lon="0.82923">
        <ele>118.80000305176</ele>
        <time>2014-02-09T09:16:21.000Z</time>
      </trkpt>
      <trkpt lat="44.8904" lon="0.82915">
        <ele>118.59999847412</ele>
        <time>2014-02-09T09:16:27.000Z</time>
      </trkpt>
      <trkpt lat="44.89053" lon="0.82909">
        <ele>118.19999694824</ele>
        <time>2014-02-09T09:16:32.000Z</time>
      </trkpt>
      <trkpt lat="44.89063" lon="0.82898">
        <ele>118</ele>
        <time>2014-02-09T09:16:37.000Z</time>
      </trkpt>
      <trkpt lat="44.89066" lon="0.82884">
        <ele>118</ele>
        <time>2014-02-09T09:16:41.000Z</time>
      </trkpt>
      <trkpt lat="44.89068" lon="0.8287">
        <ele>118</ele>
        <time>2014-02-09T09:16:45.000Z</time>
      </trkpt>
      <trkpt lat="44.89072" lon="0.82849">
        <ele>118.19999694824</ele>
        <time>2014-02-09T09:16:51.000Z</time>
      </trkpt>
      <trkpt lat="44.89076" lon="0.82833">
        <ele>118.19999694824</ele>
        <time>2014-02-09T09:16:56.000Z</time>
      </trkpt>
      <trkpt lat="44.89085" lon="0.82817">
        <ele>116.80000305176</ele>
        <time>2014-02-09T09:17:02.000Z</time>
      </trkpt>
      <trkpt lat="44.89098" lon="0.82816">
        <ele>115.80000305176</ele>
        <time>2014-02-09T09:17:07.000Z</time>
      </trkpt>
      <trkpt lat="44.89111" lon="0.82819">
        <ele>115</ele>
        <time>2014-02-09T09:17:12.000Z</time>
      </trkpt>
      <trkpt lat="44.89123" lon="0.8282">
        <ele>114.19999694824</ele>
        <time>2014-02-09T09:17:17.000Z</time>
      </trkpt>
      <trkpt lat="44.89138" lon="0.82825">
        <ele>113.19999694824</ele>
        <time>2014-02-09T09:17:22.000Z</time>
      </trkpt>
      <trkpt lat="44.89154" lon="0.8283">
        <ele>112</ele>
        <time>2014-02-09T09:17:28.000Z</time>
      </trkpt>
      <trkpt lat="44.89167" lon="0.82837">
        <ele>111</ele>
        <time>2014-02-09T09:17:33.000Z</time>
      </trkpt>
      <trkpt lat="44.89181" lon="0.82847">
        <ele>109.59999847412</ele>
        <time>2014-02-09T09:17:39.000Z</time>
      </trkpt>
      <trkpt lat="44.89189" lon="0.82856">
        <ele>108.80000305176</ele>
        <time>2014-02-09T09:17:43.000Z</time>
      </trkpt>
      <trkpt lat="44.89204" lon="0.82866">
        <ele>107.40000152588</ele>
        <time>2014-02-09T09:17:49.000Z</time>
      </trkpt>
      <trkpt lat="44.89218" lon="0.82871">
        <ele>105.80000305176</ele>
        <time>2014-02-09T09:17:55.000Z</time>
      </trkpt>
      <trkpt lat="44.89229" lon="0.8286">
        <ele>104.59999847412</ele>
        <time>2014-02-09T09:18:00.000Z</time>
      </trkpt>
      <trkpt lat="44.89236" lon="0.82847">
        <ele>103.59999847412</ele>
        <time>2014-02-09T09:18:05.000Z</time>
      </trkpt>
      <trkpt lat="44.89238" lon="0.82836">
        <ele>103.40000152588</ele>
        <time>2014-02-09T09:18:09.000Z</time>
      </trkpt>
      <trkpt lat="44.89244" lon="0.82819">
        <ele>103</ele>
        <time>2014-02-09T09:18:15.000Z</time>
      </trkpt>
      <trkpt lat="44.8925" lon="0.8281">
        <ele>102.59999847412</ele>
        <time>2014-02-09T09:18:19.000Z</time>
      </trkpt>
      <trkpt lat="44.89257" lon="0.82792">
        <ele>103.80000305176</ele>
        <time>2014-02-09T09:18:25.000Z</time>
      </trkpt>
      <trkpt lat="44.89261" lon="0.82777">
        <ele>104.59999847412</ele>
        <time>2014-02-09T09:18:30.000Z</time>
      </trkpt>
      <trkpt lat="44.89266" lon="0.82756">
        <ele>105.59999847412</ele>
        <time>2014-02-09T09:18:36.000Z</time>
      </trkpt>
      <trkpt lat="44.89268" lon="0.82732">
        <ele>106.59999847412</ele>
        <time>2014-02-09T09:18:43.000Z</time>
      </trkpt>
      <trkpt lat="44.89269" lon="0.82725">
        <ele>107</ele>
        <time>2014-02-09T09:18:45.000Z</time>
      </trkpt>
      <trkpt lat="44.89281" lon="0.82716">
        <ele>108.59999847412</ele>
        <time>2014-02-09T09:18:51.000Z</time>
      </trkpt>
      <trkpt lat="44.89295" lon="0.82714">
        <ele>110.19999694824</ele>
        <time>2014-02-09T09:18:58.000Z</time>
      </trkpt>
      <trkpt lat="44.893" lon="0.82714">
        <ele>110.59999847412</ele>
        <time>2014-02-09T09:19:00.000Z</time>
      </trkpt>
      <trkpt lat="44.89312" lon="0.82722">
        <ele>111.80000305176</ele>
        <time>2014-02-09T09:19:06.000Z</time>
      </trkpt>
      <trkpt lat="44.89322" lon="0.8273">
        <ele>112.40000152588</ele>
        <time>2014-02-09T09:19:11.000Z</time>
      </trkpt>
      <trkpt lat="44.89329" lon="0.82736">
        <ele>113</ele>
        <time>2014-02-09T09:19:16.000Z</time>
      </trkpt>
      <trkpt lat="44.89335" lon="0.82738">
        <ele>113.59999847412</ele>
        <time>2014-02-09T09:19:19.000Z</time>
      </trkpt>
      <trkpt lat="44.89352" lon="0.82737">
        <ele>116</ele>
        <time>2014-02-09T09:19:27.000Z</time>
      </trkpt>
      <trkpt lat="44.89363" lon="0.8273">
        <ele>117.59999847412</ele>
        <time>2014-02-09T09:19:33.000Z</time>
      </trkpt>
      <trkpt lat="44.89376" lon="0.82724">
        <ele>119.40000152588</ele>
        <time>2014-02-09T09:19:39.000Z</time>
      </trkpt>
      <trkpt lat="44.89382" lon="0.82722">
        <ele>120.19999694824</ele>
        <time>2014-02-09T09:19:42.000Z</time>
      </trkpt>
      <trkpt lat="44.89395" lon="0.82714">
        <ele>121.80000305176</ele>
        <time>2014-02-09T09:19:48.000Z</time>
      </trkpt>
      <trkpt lat="44.89407" lon="0.82708">
        <ele>123.19999694824</ele>
        <time>2014-02-09T09:19:53.000Z</time>
      </trkpt>
      <trkpt lat="44.89417" lon="0.827">
        <ele>124.40000152588</ele>
        <time>2014-02-09T09:19:58.000Z</time>
      </trkpt>
      <trkpt lat="44.89419" lon="0.82698">
        <ele>124.40000152588</ele>
        <time>2014-02-09T09:19:59.000Z</time>
      </trkpt>
      <trkpt lat="44.89424" lon="0.82692">
        <ele>124.40000152588</ele>
        <time>2014-02-09T09:20:03.000Z</time>
      </trkpt>
      <trkpt lat="44.8943" lon="0.8269">
        <ele>124.59999847412</ele>
        <time>2014-02-09T09:20:10.000Z</time>
      </trkpt>
      <trkpt lat="44.89433" lon="0.82689">
        <ele>124.59999847412</ele>
        <time>2014-02-09T09:20:14.000Z</time>
      </trkpt>
      <trkpt lat="44.89437" lon="0.82686">
        <ele>124.59999847412</ele>
        <time>2014-02-09T09:20:20.000Z</time>
      </trkpt>
      <trkpt lat="44.89441" lon="0.82686">
        <ele>124.80000305176</ele>
        <time>2014-02-09T09:20:23.000Z</time>
      </trkpt>
      <trkpt lat="44.8945" lon="0.82684">
        <ele>124.80000305176</ele>
        <time>2014-02-09T09:20:30.000Z</time>
      </trkpt>
      <trkpt lat="44.89452" lon="0.82684">
        <ele>124.80000305176</ele>
        <time>2014-02-09T09:20:31.000Z</time>
      </trkpt>
      <trkpt lat="44.89454" lon="0.82684">
        <ele>125</ele>
        <time>2014-02-09T09:20:33.000Z</time>
      </trkpt>
      <trkpt lat="44.89457" lon="0.82682">
        <ele>125</ele>
        <time>2014-02-09T09:20:36.000Z</time>
      </trkpt>
      <trkpt lat="44.89462" lon="0.8268">
        <ele>125</ele>
        <time>2014-02-09T09:20:40.000Z</time>
      </trkpt>
      <trkpt lat="44.89472" lon="0.82679">
        <ele>125.19999694824</ele>
        <time>2014-02-09T09:20:48.000Z</time>
      </trkpt>
      <trkpt lat="44.89476" lon="0.82678">
        <ele>125.19999694824</ele>
        <time>2014-02-09T09:20:52.000Z</time>
      </trkpt>
      <trkpt lat="44.89482" lon="0.82676">
        <ele>125.19999694824</ele>
        <time>2014-02-09T09:20:58.000Z</time>
      </trkpt>
      <trkpt lat="44.89489" lon="0.82674">
        <ele>125.19999694824</ele>
        <time>2014-02-09T09:21:04.000Z</time>
      </trkpt>
      <trkpt lat="44.89492" lon="0.82674">
        <ele>125.19999694824</ele>
        <time>2014-02-09T09:21:06.000Z</time>
      </trkpt>
      <trkpt lat="44.89497" lon="0.82673">
        <ele>125.19999694824</ele>
        <time>2014-02-09T09:21:10.000Z</time>
      </trkpt>
      <trkpt lat="44.89503" lon="0.82673">
        <ele>125.19999694824</ele>
        <time>2014-02-09T09:21:15.000Z</time>
      </trkpt>
      <trkpt lat="44.89512" lon="0.82671">
        <ele>124.80000305176</ele>
        <time>2014-02-09T09:21:22.000Z</time>
      </trkpt>
      <trkpt lat="44.89522" lon="0.82672">
        <ele>124.40000152588</ele>
        <time>2014-02-09T09:21:29.000Z</time>
      </trkpt>
      <trkpt lat="44.89536" lon="0.82671">
        <ele>123.80000305176</ele>
        <time>2014-02-09T09:21:38.000Z</time>
      </trkpt>
      <trkpt lat="44.89552" lon="0.82669">
        <ele>123.19999694824</ele>
        <time>2014-02-09T09:21:44.000Z</time>
      </trkpt>
      <trkpt lat="44.89571" lon="0.82668">
        <ele>122.40000152588</ele>
        <time>2014-02-09T09:21:51.000Z</time>
      </trkpt>
      <trkpt lat="44.89587" lon="0.82669">
        <ele>121.59999847412</ele>
        <time>2014-02-09T09:21:57.000Z</time>
      </trkpt>
      <trkpt lat="44.89602" lon="0.8267">
        <ele>119.80000305176</ele>
        <time>2014-02-09T09:22:02.000Z</time>
      </trkpt>
      <trkpt lat="44.89617" lon="0.82668">
        <ele>118</ele>
        <time>2014-02-09T09:22:07.000Z</time>
      </trkpt>
      <trkpt lat="44.8963" lon="0.82665">
        <ele>116.40000152588</ele>
        <time>2014-02-09T09:22:12.000Z</time>
      </trkpt>
      <trkpt lat="44.89643" lon="0.82662">
        <ele>114.80000305176</ele>
        <time>2014-02-09T09:22:17.000Z</time>
      </trkpt>
      <trkpt lat="44.89659" lon="0.82656">
        <ele>113</ele>
        <time>2014-02-09T09:22:23.000Z</time>
      </trkpt>
      <trkpt lat="44.89675" lon="0.82646">
        <ele>111.40000152588</ele>
        <time>2014-02-09T09:22:29.000Z</time>
      </trkpt>
      <trkpt lat="44.89686" lon="0.8264">
        <ele>110.19999694824</ele>
        <time>2014-02-09T09:22:33.000Z</time>
      </trkpt>
      <trkpt lat="44.89695" lon="0.82638">
        <ele>109.19999694824</ele>
        <time>2014-02-09T09:22:38.000Z</time>
      </trkpt>
      <trkpt lat="44.89702" lon="0.82646">
        <ele>108.19999694824</ele>
        <time>2014-02-09T09:22:42.000Z</time>
      </trkpt>
      <trkpt lat="44.89715" lon="0.82655">
        <ele>106.19999694824</ele>
        <time>2014-02-09T09:22:48.000Z</time>
      </trkpt>
      <trkpt lat="44.89734" lon="0.82659">
        <ele>103.59999847412</ele>
        <time>2014-02-09T09:22:54.000Z</time>
      </trkpt>
      <trkpt lat="44.89749" lon="0.82666">
        <ele>101.19999694824</ele>
        <time>2014-02-09T09:22:58.000Z</time>
      </trkpt>
      <trkpt lat="44.89768" lon="0.82674">
        <ele>98.199996948242</ele>
        <time>2014-02-09T09:23:04.000Z</time>
      </trkpt>
      <trkpt lat="44.89784" lon="0.82664">
        <ele>97.199996948242</ele>
        <time>2014-02-09T09:23:09.000Z</time>
      </trkpt>
      <trkpt lat="44.89788" lon="0.82658">
        <ele>97</ele>
        <time>2014-02-09T09:23:11.000Z</time>
      </trkpt>
      <trkpt lat="44.89801" lon="0.82654">
        <ele>95.800003051758</ele>
        <time>2014-02-09T09:23:15.000Z</time>
      </trkpt>
      <trkpt lat="44.89812" lon="0.82653">
        <ele>94.599998474121</ele>
        <time>2014-02-09T09:23:20.000Z</time>
      </trkpt>
      <trkpt lat="44.89822" lon="0.82644">
        <ele>94</ele>
        <time>2014-02-09T09:23:26.000Z</time>
      </trkpt>
      <trkpt lat="44.89833" lon="0.8263">
        <ele>93.599998474121</ele>
        <time>2014-02-09T09:23:33.000Z</time>
      </trkpt>
      <trkpt lat="44.89839" lon="0.8262">
        <ele>94</ele>
        <time>2014-02-09T09:23:38.000Z</time>
      </trkpt>
      <trkpt lat="44.89845" lon="0.82611">
        <ele>94.400001525879</ele>
        <time>2014-02-09T09:23:44.000Z</time>
      </trkpt>
      <trkpt lat="44.89851" lon="0.826">
        <ele>94.800003051758</ele>
        <time>2014-02-09T09:23:49.000Z</time>
      </trkpt>
      <trkpt lat="44.89859" lon="0.82585">
        <ele>95</ele>
        <time>2014-02-09T09:23:55.000Z</time>
      </trkpt>
      <trkpt lat="44.89865" lon="0.8257">
        <ele>95.800003051758</ele>
        <time>2014-02-09T09:24:00.000Z</time>
      </trkpt>
      <trkpt lat="44.89871" lon="0.82553">
        <ele>96.800003051758</ele>
        <time>2014-02-09T09:24:06.000Z</time>
      </trkpt>
      <trkpt lat="44.8988" lon="0.82534">
        <ele>97.199996948242</ele>
        <time>2014-02-09T09:24:13.000Z</time>
      </trkpt>
      <trkpt lat="44.89885" lon="0.82523">
        <ele>97.400001525879</ele>
        <time>2014-02-09T09:24:17.000Z</time>
      </trkpt>
      <trkpt lat="44.89894" lon="0.82524">
        <ele>96.199996948242</ele>
        <time>2014-02-09T09:24:21.000Z</time>
      </trkpt>
      <trkpt lat="44.89905" lon="0.8254">
        <ele>93.800003051758</ele>
        <time>2014-02-09T09:24:27.000Z</time>
      </trkpt>
      <trkpt lat="44.89915" lon="0.82557">
        <ele>92.199996948242</ele>
        <time>2014-02-09T09:24:33.000Z</time>
      </trkpt>
      <trkpt lat="44.89925" lon="0.82571">
        <ele>91.599998474121</ele>
        <time>2014-02-09T09:24:39.000Z</time>
      </trkpt>
      <trkpt lat="44.89933" lon="0.82584">
        <ele>91.400001525879</ele>
        <time>2014-02-09T09:24:44.000Z</time>
      </trkpt>
      <trkpt lat="44.89944" lon="0.82599">
        <ele>92.199996948242</ele>
        <time>2014-02-09T09:24:50.000Z</time>
      </trkpt>
      <trkpt lat="44.89952" lon="0.8261">
        <ele>93.199996948242</ele>
        <time>2014-02-09T09:24:55.000Z</time>
      </trkpt>
      <trkpt lat="44.89962" lon="0.82621">
        <ele>94.599998474121</ele>
        <time>2014-02-09T09:25:00.000Z</time>
      </trkpt>
      <trkpt lat="44.89974" lon="0.82637">
        <ele>97</ele>
        <time>2014-02-09T09:25:06.000Z</time>
      </trkpt>
      <trkpt lat="44.89979" lon="0.82641">
        <ele>98</ele>
        <time>2014-02-09T09:25:08.000Z</time>
      </trkpt>
      <trkpt lat="44.89986" lon="0.82638">
        <ele>98.599998474121</ele>
        <time>2014-02-09T09:25:13.000Z</time>
      </trkpt>
      <trkpt lat="44.89996" lon="0.82626">
        <ele>98.199996948242</ele>
        <time>2014-02-09T09:25:19.000Z</time>
      </trkpt>
      <trkpt lat="44.90006" lon="0.82612">
        <ele>97.599998474121</ele>
        <time>2014-02-09T09:25:25.000Z</time>
      </trkpt>
      <trkpt lat="44.90016" lon="0.82599">
        <ele>97.199996948242</ele>
        <time>2014-02-09T09:25:31.000Z</time>
      </trkpt>
      <trkpt lat="44.9003" lon="0.82586">
        <ele>97.199996948242</ele>
        <time>2014-02-09T09:25:38.000Z</time>
      </trkpt>
      <trkpt lat="44.9004" lon="0.82572">
        <ele>97.800003051758</ele>
        <time>2014-02-09T09:25:44.000Z</time>
      </trkpt>
      <trkpt lat="44.90048" lon="0.82558">
        <ele>98.199996948242</ele>
        <time>2014-02-09T09:25:49.000Z</time>
      </trkpt>
      <trkpt lat="44.90058" lon="0.82548">
        <ele>98.800003051758</ele>
        <time>2014-02-09T09:25:54.000Z</time>
      </trkpt>
      <trkpt lat="44.90068" lon="0.82533">
        <ele>99.400001525879</ele>
        <time>2014-02-09T09:26:00.000Z</time>
      </trkpt>
      <trkpt lat="44.90075" lon="0.82521">
        <ele>99.400001525879</ele>
        <time>2014-02-09T09:26:05.000Z</time>
      </trkpt>
      <trkpt lat="44.90079" lon="0.82505">
        <ele>98.800003051758</ele>
        <time>2014-02-09T09:26:10.000Z</time>
      </trkpt>
      <trkpt lat="44.90082" lon="0.82491">
        <ele>99</ele>
        <time>2014-02-09T09:26:15.000Z</time>
      </trkpt>
      <trkpt lat="44.90083" lon="0.82488">
        <ele>99</ele>
        <time>2014-02-09T09:26:16.000Z</time>
      </trkpt>
      <trkpt lat="44.90085" lon="0.82474">
        <ele>99.400001525879</ele>
        <time>2014-02-09T09:26:21.000Z</time>
      </trkpt>
      <trkpt lat="44.9009" lon="0.82454">
        <ele>100.19999694824</ele>
        <time>2014-02-09T09:26:28.000Z</time>
      </trkpt>
      <trkpt lat="44.90093" lon="0.8243">
        <ele>100.80000305176</ele>
        <time>2014-02-09T09:26:35.000Z</time>
      </trkpt>
      <trkpt lat="44.90095" lon="0.82414">
        <ele>101.19999694824</ele>
        <time>2014-02-09T09:26:40.000Z</time>
      </trkpt>
      <trkpt lat="44.90096" lon="0.82411">
        <ele>101.40000152588</ele>
        <time>2014-02-09T09:26:41.000Z</time>
      </trkpt>
      <trkpt lat="44.90098" lon="0.82386">
        <ele>101.40000152588</ele>
        <time>2014-02-09T09:26:49.000Z</time>
      </trkpt>
      <trkpt lat="44.90097" lon="0.82379">
        <ele>101</ele>
        <time>2014-02-09T09:26:53.000Z</time>
      </trkpt>
      <trkpt lat="44.90096" lon="0.82375">
        <ele>100.59999847412</ele>
        <time>2014-02-09T09:26:57.000Z</time>
      </trkpt>
      <trkpt lat="44.90097" lon="0.82371">
        <ele>101</ele>
        <time>2014-02-09T09:27:04.000Z</time>
      </trkpt>
      <trkpt lat="44.90098" lon="0.82373">
        <ele>101</ele>
        <time>2014-02-09T09:27:15.000Z</time>
      </trkpt>
      <trkpt lat="44.90094" lon="0.82352">
        <ele>99.800003051758</ele>
        <time>2014-02-09T09:27:22.000Z</time>
      </trkpt>
      <trkpt lat="44.90093" lon="0.82335">
        <ele>99.199996948242</ele>
        <time>2014-02-09T09:27:27.000Z</time>
      </trkpt>
      <trkpt lat="44.90091" lon="0.82316">
        <ele>99.199996948242</ele>
        <time>2014-02-09T09:27:33.000Z</time>
      </trkpt>
      <trkpt lat="44.9009" lon="0.8231">
        <ele>99</ele>
        <time>2014-02-09T09:27:35.000Z</time>
      </trkpt>
      <trkpt lat="44.90085" lon="0.82296">
        <ele>98.400001525879</ele>
        <time>2014-02-09T09:27:39.000Z</time>
      </trkpt>
      <trkpt lat="44.90079" lon="0.82279">
        <ele>97.800003051758</ele>
        <time>2014-02-09T09:27:44.000Z</time>
      </trkpt>
      <trkpt lat="44.90075" lon="0.82259">
        <ele>98</ele>
        <time>2014-02-09T09:27:50.000Z</time>
      </trkpt>
      <trkpt lat="44.90074" lon="0.82241">
        <ele>98.400001525879</ele>
        <time>2014-02-09T09:27:56.000Z</time>
      </trkpt>
      <trkpt lat="44.9007" lon="0.82221">
        <ele>98.800003051758</ele>
        <time>2014-02-09T09:28:02.000Z</time>
      </trkpt>
      <trkpt lat="44.90068" lon="0.82205">
        <ele>99</ele>
        <time>2014-02-09T09:28:07.000Z</time>
      </trkpt>
      <trkpt lat="44.90064" lon="0.82186">
        <ele>99.199996948242</ele>
        <time>2014-02-09T09:28:13.000Z</time>
      </trkpt>
      <trkpt lat="44.90058" lon="0.8217">
        <ele>98.800003051758</ele>
        <time>2014-02-09T09:28:18.000Z</time>
      </trkpt>
      <trkpt lat="44.90054" lon="0.82156">
        <ele>99</ele>
        <time>2014-02-09T09:28:22.000Z</time>
      </trkpt>
      <trkpt lat="44.90048" lon="0.82136">
        <ele>99.400001525879</ele>
        <time>2014-02-09T09:28:28.000Z</time>
      </trkpt>
      <trkpt lat="44.90045" lon="0.82119">
        <ele>99.800003051758</ele>
        <time>2014-02-09T09:28:34.000Z</time>
      </trkpt>
      <trkpt lat="44.90037" lon="0.82104">
        <ele>99.199996948242</ele>
        <time>2014-02-09T09:28:39.000Z</time>
      </trkpt>
      <trkpt lat="44.90029" lon="0.82086">
        <ele>98.800003051758</ele>
        <time>2014-02-09T09:28:45.000Z</time>
      </trkpt>
      <trkpt lat="44.9002" lon="0.82062">
        <ele>97.599998474121</ele>
        <time>2014-02-09T09:28:52.000Z</time>
      </trkpt>
      <trkpt lat="44.90013" lon="0.8204">
        <ele>96.599998474121</ele>
        <time>2014-02-09T09:28:59.000Z</time>
      </trkpt>
      <trkpt lat="44.90009" lon="0.8202">
        <ele>96.199996948242</ele>
        <time>2014-02-09T09:29:05.000Z</time>
      </trkpt>
      <trkpt lat="44.90005" lon="0.82001">
        <ele>95.800003051758</ele>
        <time>2014-02-09T09:29:10.000Z</time>
      </trkpt>
      <trkpt lat="44.90005" lon="0.81978">
        <ele>95.199996948242</ele>
        <time>2014-02-09T09:29:16.000Z</time>
      </trkpt>
      <trkpt lat="44.90003" lon="0.8196">
        <ele>94.400001525879</ele>
        <time>2014-02-09T09:29:21.000Z</time>
      </trkpt>
      <trkpt lat="44.90003" lon="0.81942">
        <ele>94</ele>
        <time>2014-02-09T09:29:26.000Z</time>
      </trkpt>
      <trkpt lat="44.90006" lon="0.8193">
        <ele>94.199996948242</ele>
        <time>2014-02-09T09:29:31.000Z</time>
      </trkpt>
      <trkpt lat="44.90012" lon="0.81917">
        <ele>94.400001525879</ele>
        <time>2014-02-09T09:29:36.000Z</time>
      </trkpt>
      <trkpt lat="44.90019" lon="0.81902">
        <ele>95.199996948242</ele>
        <time>2014-02-09T09:29:41.000Z</time>
      </trkpt>
      <trkpt lat="44.90025" lon="0.81883">
        <ele>95.800003051758</ele>
        <time>2014-02-09T09:29:47.000Z</time>
      </trkpt>
      <trkpt lat="44.90027" lon="0.81866">
        <ele>95.800003051758</ele>
        <time>2014-02-09T09:29:52.000Z</time>
      </trkpt>
      <trkpt lat="44.90027" lon="0.81862">
        <ele>95.800003051758</ele>
        <time>2014-02-09T09:29:53.000Z</time>
      </trkpt>
      <trkpt lat="44.90022" lon="0.81852">
        <ele>95.199996948242</ele>
        <time>2014-02-09T09:29:57.000Z</time>
      </trkpt>
      <trkpt lat="44.90019" lon="0.81848">
        <ele>94.800003051758</ele>
        <time>2014-02-09T09:29:59.000Z</time>
      </trkpt>
      <trkpt lat="44.90021" lon="0.81837">
        <ele>95</ele>
        <time>2014-02-09T09:30:03.000Z</time>
      </trkpt>
      <trkpt lat="44.90031" lon="0.81823">
        <ele>96.199996948242</ele>
        <time>2014-02-09T09:30:09.000Z</time>
      </trkpt>
      <trkpt lat="44.90042" lon="0.81819">
        <ele>97.400001525879</ele>
        <time>2014-02-09T09:30:14.000Z</time>
      </trkpt>
      <trkpt lat="44.90054" lon="0.81817">
        <ele>98.800003051758</ele>
        <time>2014-02-09T09:30:19.000Z</time>
      </trkpt>
      <trkpt lat="44.90067" lon="0.81809">
        <ele>100.80000305176</ele>
        <time>2014-02-09T09:30:25.000Z</time>
      </trkpt>
      <trkpt lat="44.90077" lon="0.81801">
        <ele>102.59999847412</ele>
        <time>2014-02-09T09:30:30.000Z</time>
      </trkpt>
      <trkpt lat="44.90093" lon="0.81787">
        <ele>104.59999847412</ele>
        <time>2014-02-09T09:30:37.000Z</time>
      </trkpt>
      <trkpt lat="44.90108" lon="0.81774">
        <ele>106.19999694824</ele>
        <time>2014-02-09T09:30:44.000Z</time>
      </trkpt>
      <trkpt lat="44.90118" lon="0.81765">
        <ele>107.19999694824</ele>
        <time>2014-02-09T09:30:49.000Z</time>
      </trkpt>
      <trkpt lat="44.90134" lon="0.81752">
        <ele>108.59999847412</ele>
        <time>2014-02-09T09:30:56.000Z</time>
      </trkpt>
      <trkpt lat="44.90147" lon="0.81737">
        <ele>109.40000152588</ele>
        <time>2014-02-09T09:31:03.000Z</time>
      </trkpt>
      <trkpt lat="44.90159" lon="0.81718">
        <ele>110.19999694824</ele>
        <time>2014-02-09T09:31:10.000Z</time>
      </trkpt>
      <trkpt lat="44.90169" lon="0.81702">
        <ele>111.19999694824</ele>
        <time>2014-02-09T09:31:16.000Z</time>
      </trkpt>
      <trkpt lat="44.90179" lon="0.81691">
        <ele>112</ele>
        <time>2014-02-09T09:31:21.000Z</time>
      </trkpt>
      <trkpt lat="44.90189" lon="0.81678">
        <ele>113</ele>
        <time>2014-02-09T09:31:27.000Z</time>
      </trkpt>
      <trkpt lat="44.90202" lon="0.81669">
        <ele>114.40000152588</ele>
        <time>2014-02-09T09:31:33.000Z</time>
      </trkpt>
      <trkpt lat="44.90216" lon="0.81664">
        <ele>115</ele>
        <time>2014-02-09T09:31:39.000Z</time>
      </trkpt>
      <trkpt lat="44.9023" lon="0.8166">
        <ele>115.40000152588</ele>
        <time>2014-02-09T09:31:44.000Z</time>
      </trkpt>
      <trkpt lat="44.90245" lon="0.81655">
        <ele>116</ele>
        <time>2014-02-09T09:31:50.000Z</time>
      </trkpt>
      <trkpt lat="44.9026" lon="0.81653">
        <ele>116.59999847412</ele>
        <time>2014-02-09T09:31:56.000Z</time>
      </trkpt>
      <trkpt lat="44.90279" lon="0.81649">
        <ele>117.59999847412</ele>
        <time>2014-02-09T09:32:03.000Z</time>
      </trkpt>
      <trkpt lat="44.9029" lon="0.81647">
        <ele>118.19999694824</ele>
        <time>2014-02-09T09:32:08.000Z</time>
      </trkpt>
      <trkpt lat="44.90301" lon="0.8164">
        <ele>118.59999847412</ele>
        <time>2014-02-09T09:32:13.000Z</time>
      </trkpt>
      <trkpt lat="44.90316" lon="0.81631">
        <ele>120</ele>
        <time>2014-02-09T09:32:20.000Z</time>
      </trkpt>
      <trkpt lat="44.90327" lon="0.81624">
        <ele>121.19999694824</ele>
        <time>2014-02-09T09:32:25.000Z</time>
      </trkpt>
      <trkpt lat="44.90339" lon="0.81618">
        <ele>122.80000305176</ele>
        <time>2014-02-09T09:32:30.000Z</time>
      </trkpt>
      <trkpt lat="44.9034" lon="0.81617">
        <ele>123</ele>
        <time>2014-02-09T09:32:31.000Z</time>
      </trkpt>
      <trkpt lat="44.90342" lon="0.81615">
        <ele>123.19999694824</ele>
        <time>2014-02-09T09:32:36.000Z</time>
      </trkpt>
      <trkpt lat="44.90346" lon="0.81611">
        <ele>124</ele>
        <time>2014-02-09T09:32:41.000Z</time>
      </trkpt>
      <trkpt lat="44.9035" lon="0.81605">
        <ele>124.80000305176</ele>
        <time>2014-02-09T09:32:47.000Z</time>
      </trkpt>
      <trkpt lat="44.90351" lon="0.81603">
        <ele>125</ele>
        <time>2014-02-09T09:32:53.000Z</time>
      </trkpt>
      <trkpt lat="44.90351" lon="0.81602">
        <ele>125.19999694824</ele>
        <time>2014-02-09T09:32:58.000Z</time>
      </trkpt>
      <trkpt lat="44.90352" lon="0.816">
        <ele>125.40000152588</ele>
        <time>2014-02-09T09:33:04.000Z</time>
      </trkpt>
      <trkpt lat="44.90352" lon="0.81601">
        <ele>125.40000152588</ele>
        <time>2014-02-09T09:33:16.000Z</time>
      </trkpt>
      <trkpt lat="44.90351" lon="0.816">
        <ele>125.19999694824</ele>
        <time>2014-02-09T09:33:35.000Z</time>
      </trkpt>
      <trkpt lat="44.90351" lon="0.816">
        <ele>125.19999694824</ele>
        <time>2014-02-09T09:33:40.000Z</time>
      </trkpt>
      <trkpt lat="44.90352" lon="0.816">
        <ele>125.40000152588</ele>
        <time>2014-02-09T09:33:48.000Z</time>
      </trkpt>
      <trkpt lat="44.90353" lon="0.81595">
        <ele>126</ele>
        <time>2014-02-09T09:33:54.000Z</time>
      </trkpt>
      <trkpt lat="44.90354" lon="0.81593">
        <ele>126.19999694824</ele>
        <time>2014-02-09T09:33:55.000Z</time>
      </trkpt>
      <trkpt lat="44.90357" lon="0.81585">
        <ele>127.19999694824</ele>
        <time>2014-02-09T09:33:59.000Z</time>
      </trkpt>
      <trkpt lat="44.9036" lon="0.81574">
        <ele>126.80000305176</ele>
        <time>2014-02-09T09:34:03.000Z</time>
      </trkpt>
      <trkpt lat="44.90367" lon="0.81565">
        <ele>127.19999694824</ele>
        <time>2014-02-09T09:34:08.000Z</time>
      </trkpt>
      <trkpt lat="44.90368" lon="0.81561">
        <ele>127</ele>
        <time>2014-02-09T09:34:10.000Z</time>
      </trkpt>
      <trkpt lat="44.90373" lon="0.81546">
        <ele>126.80000305176</ele>
        <time>2014-02-09T09:34:15.000Z</time>
      </trkpt>
      <trkpt lat="44.9038" lon="0.81518">
        <ele>126</ele>
        <time>2014-02-09T09:34:23.000Z</time>
      </trkpt>
      <trkpt lat="44.90387" lon="0.81496">
        <ele>126</ele>
        <time>2014-02-09T09:34:29.000Z</time>
      </trkpt>
      <trkpt lat="44.90394" lon="0.81478">
        <ele>125.19999694824</ele>
        <time>2014-02-09T09:34:34.000Z</time>
      </trkpt>
      <trkpt lat="44.90403" lon="0.8146">
        <ele>124.80000305176</ele>
        <time>2014-02-09T09:34:39.000Z</time>
      </trkpt>
      <trkpt lat="44.90412" lon="0.81437">
        <ele>123.40000152588</ele>
        <time>2014-02-09T09:34:45.000Z</time>
      </trkpt>
      <trkpt lat="44.90416" lon="0.81417">
        <ele>121</ele>
        <time>2014-02-09T09:34:49.000Z</time>
      </trkpt>
      <trkpt lat="44.90418" lon="0.81407">
        <ele>120</ele>
        <time>2014-02-09T09:34:51.000Z</time>
      </trkpt>
      <trkpt lat="44.9042" lon="0.81399">
        <ele>119.59999847412</ele>
        <time>2014-02-09T09:34:53.000Z</time>
      </trkpt>
      <trkpt lat="44.90427" lon="0.81372">
        <ele>118.40000152588</ele>
        <time>2014-02-09T09:34:59.000Z</time>
      </trkpt>
      <trkpt lat="44.90432" lon="0.81351">
        <ele>117.19999694824</ele>
        <time>2014-02-09T09:35:04.000Z</time>
      </trkpt>
      <trkpt lat="44.90437" lon="0.81327">
        <ele>115.80000305176</ele>
        <time>2014-02-09T09:35:10.000Z</time>
      </trkpt>
      <trkpt lat="44.90443" lon="0.81313">
        <ele>116.19999694824</ele>
        <time>2014-02-09T09:35:14.000Z</time>
      </trkpt>
      <trkpt lat="44.90449" lon="0.81294">
        <ele>116.40000152588</ele>
        <time>2014-02-09T09:35:20.000Z</time>
      </trkpt>
      <trkpt lat="44.90454" lon="0.81283">
        <ele>116.59999847412</ele>
        <time>2014-02-09T09:35:24.000Z</time>
      </trkpt>
      <trkpt lat="44.90458" lon="0.81263">
        <ele>115.59999847412</ele>
        <time>2014-02-09T09:35:29.000Z</time>
      </trkpt>
      <trkpt lat="44.90464" lon="0.8125">
        <ele>115.40000152588</ele>
        <time>2014-02-09T09:35:33.000Z</time>
      </trkpt>
      <trkpt lat="44.90466" lon="0.81238">
        <ele>114.80000305176</ele>
        <time>2014-02-09T09:35:36.000Z</time>
      </trkpt>
      <trkpt lat="44.90469" lon="0.8121">
        <ele>112.80000305176</ele>
        <time>2014-02-09T09:35:42.000Z</time>
      </trkpt>
      <trkpt lat="44.90471" lon="0.81184">
        <ele>110.40000152588</ele>
        <time>2014-02-09T09:35:48.000Z</time>
      </trkpt>
      <trkpt lat="44.90473" lon="0.81165">
        <ele>109</ele>
        <time>2014-02-09T09:35:53.000Z</time>
      </trkpt>
      <trkpt lat="44.90476" lon="0.81136">
        <ele>107.19999694824</ele>
        <time>2014-02-09T09:36:00.000Z</time>
      </trkpt>
      <trkpt lat="44.90479" lon="0.81116">
        <ele>106.19999694824</ele>
        <time>2014-02-09T09:36:05.000Z</time>
      </trkpt>
      <trkpt lat="44.90483" lon="0.81103">
        <ele>105.40000152588</ele>
        <time>2014-02-09T09:36:09.000Z</time>
      </trkpt>
      <trkpt lat="44.90493" lon="0.81085">
        <ele>104.59999847412</ele>
        <time>2014-02-09T09:36:15.000Z</time>
      </trkpt>
      <trkpt lat="44.90504" lon="0.81066">
        <ele>105</ele>
        <time>2014-02-09T09:36:21.000Z</time>
      </trkpt>
      <trkpt lat="44.90514" lon="0.81053">
        <ele>106.19999694824</ele>
        <time>2014-02-09T09:36:26.000Z</time>
      </trkpt>
      <trkpt lat="44.90517" lon="0.81048">
        <ele>106.40000152588</ele>
        <time>2014-02-09T09:36:30.000Z</time>
      </trkpt>
      <trkpt lat="44.90517" lon="0.81046">
        <ele>106.19999694824</ele>
        <time>2014-02-09T09:36:32.000Z</time>
      </trkpt>
      <trkpt lat="44.90514" lon="0.81039">
        <ele>105</ele>
        <time>2014-02-09T09:36:45.000Z</time>
      </trkpt>
      <trkpt lat="44.90516" lon="0.81036">
        <ele>105.19999694824</ele>
        <time>2014-02-09T09:36:48.000Z</time>
      </trkpt>
      <trkpt lat="44.9053" lon="0.81024">
        <ele>106.19999694824</ele>
        <time>2014-02-09T09:36:55.000Z</time>
      </trkpt>
      <trkpt lat="44.9054" lon="0.81015">
        <ele>106.40000152588</ele>
        <time>2014-02-09T09:37:00.000Z</time>
      </trkpt>
      <trkpt lat="44.90551" lon="0.81007">
        <ele>106.59999847412</ele>
        <time>2014-02-09T09:37:05.000Z</time>
      </trkpt>
      <trkpt lat="44.90565" lon="0.81001">
        <ele>107.19999694824</ele>
        <time>2014-02-09T09:37:11.000Z</time>
      </trkpt>
      <trkpt lat="44.90577" lon="0.81001">
        <ele>108.40000152588</ele>
        <time>2014-02-09T09:37:17.000Z</time>
      </trkpt>
      <trkpt lat="44.90581" lon="0.81">
        <ele>108.80000305176</ele>
        <time>2014-02-09T09:37:19.000Z</time>
      </trkpt>
      <trkpt lat="44.90593" lon="0.80996">
        <ele>109.80000305176</ele>
        <time>2014-02-09T09:37:24.000Z</time>
      </trkpt>
      <trkpt lat="44.90596" lon="0.80995">
        <ele>110</ele>
        <time>2014-02-09T09:37:25.000Z</time>
      </trkpt>
      <trkpt lat="44.90613" lon="0.80986">
        <ele>110.80000305176</ele>
        <time>2014-02-09T09:37:31.000Z</time>
      </trkpt>
      <trkpt lat="44.90625" lon="0.80978">
        <ele>111</ele>
        <time>2014-02-09T09:37:36.000Z</time>
      </trkpt>
      <trkpt lat="44.90642" lon="0.80972">
        <ele>111.59999847412</ele>
        <time>2014-02-09T09:37:42.000Z</time>
      </trkpt>
      <trkpt lat="44.90657" lon="0.80966">
        <ele>112</ele>
        <time>2014-02-09T09:37:48.000Z</time>
      </trkpt>
      <trkpt lat="44.90672" lon="0.80959">
        <ele>112</ele>
        <time>2014-02-09T09:37:54.000Z</time>
      </trkpt>
      <trkpt lat="44.90688" lon="0.80956">
        <ele>112.40000152588</ele>
        <time>2014-02-09T09:38:00.000Z</time>
      </trkpt>
      <trkpt lat="44.907" lon="0.80953">
        <ele>112.59999847412</ele>
        <time>2014-02-09T09:38:05.000Z</time>
      </trkpt>
      <trkpt lat="44.90713" lon="0.80951">
        <ele>113</ele>
        <time>2014-02-09T09:38:10.000Z</time>
      </trkpt>
      <trkpt lat="44.90723" lon="0.80947">
        <ele>112.80000305176</ele>
        <time>2014-02-09T09:38:14.000Z</time>
      </trkpt>
      <trkpt lat="44.90738" lon="0.80943">
        <ele>113</ele>
        <time>2014-02-09T09:38:19.000Z</time>
      </trkpt>
      <trkpt lat="44.90757" lon="0.80941">
        <ele>113</ele>
        <time>2014-02-09T09:38:25.000Z</time>
      </trkpt>
      <trkpt lat="44.9077" lon="0.80936">
        <ele>111.80000305176</ele>
        <time>2014-02-09T09:38:30.000Z</time>
      </trkpt>
      <trkpt lat="44.90782" lon="0.80935">
        <ele>111.19999694824</ele>
        <time>2014-02-09T09:38:35.000Z</time>
      </trkpt>
      <trkpt lat="44.90789" lon="0.80933">
        <ele>110.80000305176</ele>
        <time>2014-02-09T09:38:38.000Z</time>
      </trkpt>
      <trkpt lat="44.90803" lon="0.8093">
        <ele>110</ele>
        <time>2014-02-09T09:38:44.000Z</time>
      </trkpt>
      <trkpt lat="44.9081" lon="0.8093">
        <ele>109.80000305176</ele>
        <time>2014-02-09T09:38:47.000Z</time>
      </trkpt>
      <trkpt lat="44.90827" lon="0.80933">
        <ele>110</ele>
        <time>2014-02-09T09:38:52.000Z</time>
      </trkpt>
      <trkpt lat="44.90841" lon="0.8093">
        <ele>110</ele>
        <time>2014-02-09T09:38:57.000Z</time>
      </trkpt>
      <trkpt lat="44.9086" lon="0.8093">
        <ele>111.59999847412</ele>
        <time>2014-02-09T09:39:04.000Z</time>
      </trkpt>
      <trkpt lat="44.90875" lon="0.80934">
        <ele>113.40000152588</ele>
        <time>2014-02-09T09:39:09.000Z</time>
      </trkpt>
      <trkpt lat="44.90889" lon="0.80926">
        <ele>113.40000152588</ele>
        <time>2014-02-09T09:39:15.000Z</time>
      </trkpt>
      <trkpt lat="44.90907" lon="0.80914">
        <ele>113</ele>
        <time>2014-02-09T09:39:22.000Z</time>
      </trkpt>
      <trkpt lat="44.90922" lon="0.80905">
        <ele>113</ele>
        <time>2014-02-09T09:39:28.000Z</time>
      </trkpt>
      <trkpt lat="44.90935" lon="0.80899">
        <ele>112.80000305176</ele>
        <time>2014-02-09T09:39:33.000Z</time>
      </trkpt>
      <trkpt lat="44.90944" lon="0.80889">
        <ele>112.19999694824</ele>
        <time>2014-02-09T09:39:37.000Z</time>
      </trkpt>
      <trkpt lat="44.90958" lon="0.80881">
        <ele>111.80000305176</ele>
        <time>2014-02-09T09:39:42.000Z</time>
      </trkpt>
      <trkpt lat="44.9097" lon="0.80878">
        <ele>112</ele>
        <time>2014-02-09T09:39:47.000Z</time>
      </trkpt>
      <trkpt lat="44.90979" lon="0.80877">
        <ele>112.40000152588</ele>
        <time>2014-02-09T09:39:50.000Z</time>
      </trkpt>
      <trkpt lat="44.9099" lon="0.80873">
        <ele>112.40000152588</ele>
        <time>2014-02-09T09:39:55.000Z</time>
      </trkpt>
      <trkpt lat="44.9101" lon="0.8087">
        <ele>112.19999694824</ele>
        <time>2014-02-09T09:40:02.000Z</time>
      </trkpt>
      <trkpt lat="44.91023" lon="0.80867">
        <ele>111.59999847412</ele>
        <time>2014-02-09T09:40:07.000Z</time>
      </trkpt>
      <trkpt lat="44.91037" lon="0.80865">
        <ele>111.19999694824</ele>
        <time>2014-02-09T09:40:12.000Z</time>
      </trkpt>
      <trkpt lat="44.91046" lon="0.80864">
        <ele>110.80000305176</ele>
        <time>2014-02-09T09:40:16.000Z</time>
      </trkpt>
      <trkpt lat="44.91063" lon="0.80862">
        <ele>110.40000152588</ele>
        <time>2014-02-09T09:40:22.000Z</time>
      </trkpt>
      <trkpt lat="44.91083" lon="0.80862">
        <ele>110.19999694824</ele>
        <time>2014-02-09T09:40:29.000Z</time>
      </trkpt>
      <trkpt lat="44.91087" lon="0.80862">
        <ele>110.19999694824</ele>
        <time>2014-02-09T09:40:31.000Z</time>
      </trkpt>
      <trkpt lat="44.91096" lon="0.80865">
        <ele>110.80000305176</ele>
        <time>2014-02-09T09:40:36.000Z</time>
      </trkpt>
      <trkpt lat="44.91101" lon="0.80863">
        <ele>110.80000305176</ele>
        <time>2014-02-09T09:40:44.000Z</time>
      </trkpt>
      <trkpt lat="44.91102" lon="0.80862">
        <ele>110.80000305176</ele>
        <time>2014-02-09T09:40:48.000Z</time>
      </trkpt>
      <trkpt lat="44.91112" lon="0.80847">
        <ele>110</ele>
        <time>2014-02-09T09:40:54.000Z</time>
      </trkpt>
      <trkpt lat="44.91117" lon="0.80841">
        <ele>109.80000305176</ele>
        <time>2014-02-09T09:40:58.000Z</time>
      </trkpt>
      <trkpt lat="44.9112" lon="0.80842">
        <ele>110</ele>
        <time>2014-02-09T09:41:03.000Z</time>
      </trkpt>
      <trkpt lat="44.91119" lon="0.80843">
        <ele>110</ele>
        <time>2014-02-09T09:41:11.000Z</time>
      </trkpt>
      <trkpt lat="44.9112" lon="0.80842">
        <ele>110</ele>
        <time>2014-02-09T09:41:19.000Z</time>
      </trkpt>
      <trkpt lat="44.91123" lon="0.80841">
        <ele>110</ele>
        <time>2014-02-09T09:41:31.000Z</time>
      </trkpt>
      <trkpt lat="44.91124" lon="0.80842">
        <ele>110.19999694824</ele>
        <time>2014-02-09T09:41:38.000Z</time>
      </trkpt>
      <trkpt lat="44.91127" lon="0.80844">
        <ele>110.40000152588</ele>
        <time>2014-02-09T09:41:44.000Z</time>
      </trkpt>
      <trkpt lat="44.91133" lon="0.80847">
        <ele>110.80000305176</ele>
        <time>2014-02-09T09:41:51.000Z</time>
      </trkpt>
      <trkpt lat="44.91136" lon="0.80849">
        <ele>111</ele>
        <time>2014-02-09T09:41:56.000Z</time>
      </trkpt>
      <trkpt lat="44.91139" lon="0.8085">
        <ele>111.40000152588</ele>
        <time>2014-02-09T09:42:02.000Z</time>
      </trkpt>
      <trkpt lat="44.91144" lon="0.80851">
        <ele>111.59999847412</ele>
        <time>2014-02-09T09:42:10.000Z</time>
      </trkpt>
      <trkpt lat="44.91149" lon="0.80852">
        <ele>112</ele>
        <time>2014-02-09T09:42:15.000Z</time>
      </trkpt>
      <trkpt lat="44.91154" lon="0.80852">
        <ele>112.19999694824</ele>
        <time>2014-02-09T09:42:21.000Z</time>
      </trkpt>
      <trkpt lat="44.91163" lon="0.80849">
        <ele>112.19999694824</ele>
        <time>2014-02-09T09:42:29.000Z</time>
      </trkpt>
      <trkpt lat="44.91164" lon="0.80849">
        <ele>112.19999694824</ele>
        <time>2014-02-09T09:42:30.000Z</time>
      </trkpt>
      <trkpt lat="44.91171" lon="0.80843">
        <ele>112.19999694824</ele>
        <time>2014-02-09T09:42:37.000Z</time>
      </trkpt>
      <trkpt lat="44.91178" lon="0.80836">
        <ele>112.19999694824</ele>
        <time>2014-02-09T09:42:45.000Z</time>
      </trkpt>
      <trkpt lat="44.91186" lon="0.80833">
        <ele>112.59999847412</ele>
        <time>2014-02-09T09:42:51.000Z</time>
      </trkpt>
      <trkpt lat="44.91194" lon="0.80827">
        <ele>113.19999694824</ele>
        <time>2014-02-09T09:42:57.000Z</time>
      </trkpt>
      <trkpt lat="44.91199" lon="0.80821">
        <ele>113.40000152588</ele>
        <time>2014-02-09T09:43:03.000Z</time>
      </trkpt>
      <trkpt lat="44.912" lon="0.8082">
        <ele>113.40000152588</ele>
        <time>2014-02-09T09:43:04.000Z</time>
      </trkpt>
      <trkpt lat="44.91209" lon="0.80813">
        <ele>114</ele>
        <time>2014-02-09T09:43:12.000Z</time>
      </trkpt>
      <trkpt lat="44.91222" lon="0.80809">
        <ele>114.80000305176</ele>
        <time>2014-02-09T09:43:19.000Z</time>
      </trkpt>
      <trkpt lat="44.91233" lon="0.8081">
        <ele>115.59999847412</ele>
        <time>2014-02-09T09:43:24.000Z</time>
      </trkpt>
      <trkpt lat="44.91243" lon="0.80812">
        <ele>116.40000152588</ele>
        <time>2014-02-09T09:43:29.000Z</time>
      </trkpt>
      <trkpt lat="44.91261" lon="0.8082">
        <ele>118</ele>
        <time>2014-02-09T09:43:38.000Z</time>
      </trkpt>
      <trkpt lat="44.91271" lon="0.80823">
        <ele>118.59999847412</ele>
        <time>2014-02-09T09:43:43.000Z</time>
      </trkpt>
      <trkpt lat="44.91283" lon="0.80826">
        <ele>119.59999847412</ele>
        <time>2014-02-09T09:43:49.000Z</time>
      </trkpt>
      <trkpt lat="44.91295" lon="0.8083">
        <ele>120.40000152588</ele>
        <time>2014-02-09T09:43:55.000Z</time>
      </trkpt>
      <trkpt lat="44.91303" lon="0.8083">
        <ele>121</ele>
        <time>2014-02-09T09:43:59.000Z</time>
      </trkpt>
      <trkpt lat="44.91305" lon="0.80818">
        <ele>120.19999694824</ele>
        <time>2014-02-09T09:44:04.000Z</time>
      </trkpt>
      <trkpt lat="44.91307" lon="0.80805">
        <ele>119.40000152588</ele>
        <time>2014-02-09T09:44:08.000Z</time>
      </trkpt>
      <trkpt lat="44.91309" lon="0.80788">
        <ele>118.19999694824</ele>
        <time>2014-02-09T09:44:13.000Z</time>
      </trkpt>
      <trkpt lat="44.91312" lon="0.80772">
        <ele>117.19999694824</ele>
        <time>2014-02-09T09:44:18.000Z</time>
      </trkpt>
      <trkpt lat="44.91314" lon="0.80757">
        <ele>116</ele>
        <time>2014-02-09T09:44:23.000Z</time>
      </trkpt>
      <trkpt lat="44.91316" lon="0.8074">
        <ele>115.19999694824</ele>
        <time>2014-02-09T09:44:29.000Z</time>
      </trkpt>
      <trkpt lat="44.91317" lon="0.80724">
        <ele>114.40000152588</ele>
        <time>2014-02-09T09:44:34.000Z</time>
      </trkpt>
      <trkpt lat="44.91317" lon="0.80721">
        <ele>114.19999694824</ele>
        <time>2014-02-09T09:44:35.000Z</time>
      </trkpt>
      <trkpt lat="44.91313" lon="0.80715">
        <ele>114</ele>
        <time>2014-02-09T09:44:41.000Z</time>
      </trkpt>
      <trkpt lat="44.91308" lon="0.807">
        <ele>113.19999694824</ele>
        <time>2014-02-09T09:44:46.000Z</time>
      </trkpt>
      <trkpt lat="44.91302" lon="0.80676">
        <ele>112</ele>
        <time>2014-02-09T09:44:53.000Z</time>
      </trkpt>
      <trkpt lat="44.91296" lon="0.8066">
        <ele>112</ele>
        <time>2014-02-09T09:44:58.000Z</time>
      </trkpt>
      <trkpt lat="44.91292" lon="0.80645">
        <ele>113</ele>
        <time>2014-02-09T09:45:03.000Z</time>
      </trkpt>
      <trkpt lat="44.91286" lon="0.80629">
        <ele>113.80000305176</ele>
        <time>2014-02-09T09:45:08.000Z</time>
      </trkpt>
      <trkpt lat="44.9128" lon="0.80609">
        <ele>114.59999847412</ele>
        <time>2014-02-09T09:45:14.000Z</time>
      </trkpt>
      <trkpt lat="44.91273" lon="0.80592">
        <ele>115.19999694824</ele>
        <time>2014-02-09T09:45:20.000Z</time>
      </trkpt>
      <trkpt lat="44.91268" lon="0.80569">
        <ele>115.19999694824</ele>
        <time>2014-02-09T09:45:27.000Z</time>
      </trkpt>
      <trkpt lat="44.91264" lon="0.80555">
        <ele>115</ele>
        <time>2014-02-09T09:45:31.000Z</time>
      </trkpt>
      <trkpt lat="44.91258" lon="0.80537">
        <ele>114.59999847412</ele>
        <time>2014-02-09T09:45:37.000Z</time>
      </trkpt>
      <trkpt lat="44.91253" lon="0.8052">
        <ele>114.19999694824</ele>
        <time>2014-02-09T09:45:42.000Z</time>
      </trkpt>
      <trkpt lat="44.91248" lon="0.80506">
        <ele>114</ele>
        <time>2014-02-09T09:45:47.000Z</time>
      </trkpt>
      <trkpt lat="44.91244" lon="0.80489">
        <ele>114.19999694824</ele>
        <time>2014-02-09T09:45:53.000Z</time>
      </trkpt>
      <trkpt lat="44.9124" lon="0.80472">
        <ele>114.59999847412</ele>
        <time>2014-02-09T09:45:59.000Z</time>
      </trkpt>
      <trkpt lat="44.91237" lon="0.8045">
        <ele>114.80000305176</ele>
        <time>2014-02-09T09:46:06.000Z</time>
      </trkpt>
      <trkpt lat="44.91233" lon="0.80443">
        <ele>115</ele>
        <time>2014-02-09T09:46:09.000Z</time>
      </trkpt>
      <trkpt lat="44.91236" lon="0.80422">
        <ele>115.19999694824</ele>
        <time>2014-02-09T09:46:16.000Z</time>
      </trkpt>
      <trkpt lat="44.91237" lon="0.80408">
        <ele>116</ele>
        <time>2014-02-09T09:46:21.000Z</time>
      </trkpt>
      <trkpt lat="44.9124" lon="0.80391">
        <ele>117</ele>
        <time>2014-02-09T09:46:26.000Z</time>
      </trkpt>
      <trkpt lat="44.91243" lon="0.80381">
        <ele>117.59999847412</ele>
        <time>2014-02-09T09:46:29.000Z</time>
      </trkpt>
      <trkpt lat="44.91246" lon="0.80366">
        <ele>118.59999847412</ele>
        <time>2014-02-09T09:46:34.000Z</time>
      </trkpt>
      <trkpt lat="44.91249" lon="0.80351">
        <ele>119.80000305176</ele>
        <time>2014-02-09T09:46:39.000Z</time>
      </trkpt>
      <trkpt lat="44.91256" lon="0.80332">
        <ele>120.80000305176</ele>
        <time>2014-02-09T09:46:46.000Z</time>
      </trkpt>
      <trkpt lat="44.9126" lon="0.80315">
        <ele>121.80000305176</ele>
        <time>2014-02-09T09:46:52.000Z</time>
      </trkpt>
      <trkpt lat="44.91265" lon="0.80298">
        <ele>122.80000305176</ele>
        <time>2014-02-09T09:46:58.000Z</time>
      </trkpt>
      <trkpt lat="44.9127" lon="0.80285">
        <ele>123.59999847412</ele>
        <time>2014-02-09T09:47:03.000Z</time>
      </trkpt>
      <trkpt lat="44.91276" lon="0.80267">
        <ele>124.80000305176</ele>
        <time>2014-02-09T09:47:09.000Z</time>
      </trkpt>
      <trkpt lat="44.91281" lon="0.80249">
        <ele>126</ele>
        <time>2014-02-09T09:47:15.000Z</time>
      </trkpt>
      <trkpt lat="44.91285" lon="0.8023">
        <ele>128</ele>
        <time>2014-02-09T09:47:22.000Z</time>
      </trkpt>
      <trkpt lat="44.91287" lon="0.80217">
        <ele>129.39999389648</ele>
        <time>2014-02-09T09:47:27.000Z</time>
      </trkpt>
      <trkpt lat="44.91291" lon="0.80209">
        <ele>130.39999389648</ele>
        <time>2014-02-09T09:47:31.000Z</time>
      </trkpt>
      <trkpt lat="44.91294" lon="0.80191">
        <ele>132.60000610352</ele>
        <time>2014-02-09T09:47:38.000Z</time>
      </trkpt>
      <trkpt lat="44.91298" lon="0.80174">
        <ele>134.80000305176</ele>
        <time>2014-02-09T09:47:44.000Z</time>
      </trkpt>
      <trkpt lat="44.91303" lon="0.80157">
        <ele>137.19999694824</ele>
        <time>2014-02-09T09:47:50.000Z</time>
      </trkpt>
      <trkpt lat="44.91309" lon="0.8014">
        <ele>139.60000610352</ele>
        <time>2014-02-09T09:47:56.000Z</time>
      </trkpt>
      <trkpt lat="44.91314" lon="0.80121">
        <ele>142.19999694824</ele>
        <time>2014-02-09T09:48:02.000Z</time>
      </trkpt>
      <trkpt lat="44.91317" lon="0.80101">
        <ele>144.80000305176</ele>
        <time>2014-02-09T09:48:08.000Z</time>
      </trkpt>
      <trkpt lat="44.9132" lon="0.80081">
        <ele>147.60000610352</ele>
        <time>2014-02-09T09:48:15.000Z</time>
      </trkpt>
      <trkpt lat="44.91319" lon="0.80064">
        <ele>149.80000305176</ele>
        <time>2014-02-09T09:48:20.000Z</time>
      </trkpt>
      <trkpt lat="44.9132" lon="0.80055">
        <ele>151</ele>
        <time>2014-02-09T09:48:23.000Z</time>
      </trkpt>
      <trkpt lat="44.91321" lon="0.80032">
        <ele>154.19999694824</ele>
        <time>2014-02-09T09:48:30.000Z</time>
      </trkpt>
      <trkpt lat="44.9132" lon="0.80019">
        <ele>155.80000305176</ele>
        <time>2014-02-09T09:48:34.000Z</time>
      </trkpt>
      <trkpt lat="44.91318" lon="0.79997">
        <ele>158.39999389648</ele>
        <time>2014-02-09T09:48:41.000Z</time>
      </trkpt>
      <trkpt lat="44.91317" lon="0.79984">
        <ele>158.80000305176</ele>
        <time>2014-02-09T09:48:45.000Z</time>
      </trkpt>
      <trkpt lat="44.91317" lon="0.79964">
        <ele>159.80000305176</ele>
        <time>2014-02-09T09:48:51.000Z</time>
      </trkpt>
      <trkpt lat="44.91316" lon="0.79946">
        <ele>160.60000610352</ele>
        <time>2014-02-09T09:48:57.000Z</time>
      </trkpt>
      <trkpt lat="44.91311" lon="0.79926">
        <ele>161.39999389648</ele>
        <time>2014-02-09T09:49:03.000Z</time>
      </trkpt>
      <trkpt lat="44.91311" lon="0.79919">
        <ele>161.80000305176</ele>
        <time>2014-02-09T09:49:05.000Z</time>
      </trkpt>
      <trkpt lat="44.9131" lon="0.79912">
        <ele>162</ele>
        <time>2014-02-09T09:49:07.000Z</time>
      </trkpt>
      <trkpt lat="44.91309" lon="0.79901">
        <ele>162.19999694824</ele>
        <time>2014-02-09T09:49:12.000Z</time>
      </trkpt>
      <trkpt lat="44.91308" lon="0.79902">
        <ele>162.19999694824</ele>
        <time>2014-02-09T09:49:19.000Z</time>
      </trkpt>
      <trkpt lat="44.91307" lon="0.79901">
        <ele>162.19999694824</ele>
        <time>2014-02-09T09:49:27.000Z</time>
      </trkpt>
      <trkpt lat="44.91307" lon="0.799">
        <ele>162.19999694824</ele>
        <time>2014-02-09T09:49:35.000Z</time>
      </trkpt>
      <trkpt lat="44.91308" lon="0.79898">
        <ele>162.19999694824</ele>
        <time>2014-02-09T09:49:41.000Z</time>
      </trkpt>
      <trkpt lat="44.91307" lon="0.79897">
        <ele>162.19999694824</ele>
        <time>2014-02-09T09:49:48.000Z</time>
      </trkpt>
      <trkpt lat="44.91308" lon="0.79894">
        <ele>162.39999389648</ele>
        <time>2014-02-09T09:49:59.000Z</time>
      </trkpt>
      <trkpt lat="44.91307" lon="0.79897">
        <ele>162.39999389648</ele>
        <time>2014-02-09T09:50:15.000Z</time>
      </trkpt>
      <trkpt lat="44.91308" lon="0.79897">
        <ele>162.39999389648</ele>
        <time>2014-02-09T09:50:36.000Z</time>
      </trkpt>
      <trkpt lat="44.91308" lon="0.79893">
        <ele>162.39999389648</ele>
        <time>2014-02-09T09:50:43.000Z</time>
      </trkpt>
      <trkpt lat="44.91308" lon="0.79883">
        <ele>162.80000305176</ele>
        <time>2014-02-09T09:50:50.000Z</time>
      </trkpt>
      <trkpt lat="44.91309" lon="0.79875">
        <ele>163</ele>
        <time>2014-02-09T09:50:55.000Z</time>
      </trkpt>
      <trkpt lat="44.91309" lon="0.79864">
        <ele>163.19999694824</ele>
        <time>2014-02-09T09:51:00.000Z</time>
      </trkpt>
      <trkpt lat="44.91308" lon="0.79854">
        <ele>163.60000610352</ele>
        <time>2014-02-09T09:51:06.000Z</time>
      </trkpt>
      <trkpt lat="44.91308" lon="0.79836">
        <ele>164</ele>
        <time>2014-02-09T09:51:13.000Z</time>
      </trkpt>
      <trkpt lat="44.91305" lon="0.79824">
        <ele>164</ele>
        <time>2014-02-09T09:51:18.000Z</time>
      </trkpt>
      <trkpt lat="44.91304" lon="0.79818">
        <ele>164.19999694824</ele>
        <time>2014-02-09T09:51:22.000Z</time>
      </trkpt>
      <trkpt lat="44.91301" lon="0.79808">
        <ele>164.19999694824</ele>
        <time>2014-02-09T09:51:26.000Z</time>
      </trkpt>
      <trkpt lat="44.91295" lon="0.79785">
        <ele>164.39999389648</ele>
        <time>2014-02-09T09:51:34.000Z</time>
      </trkpt>
      <trkpt lat="44.91291" lon="0.79768">
        <ele>164.60000610352</ele>
        <time>2014-02-09T09:51:40.000Z</time>
      </trkpt>
      <trkpt lat="44.91286" lon="0.7975">
        <ele>165</ele>
        <time>2014-02-09T09:51:46.000Z</time>
      </trkpt>
      <trkpt lat="44.91284" lon="0.79735">
        <ele>165.60000610352</ele>
        <time>2014-02-09T09:51:51.000Z</time>
      </trkpt>
      <trkpt lat="44.91284" lon="0.79729">
        <ele>165.80000305176</ele>
        <time>2014-02-09T09:51:53.000Z</time>
      </trkpt>
      <trkpt lat="44.91281" lon="0.7971">
        <ele>166.39999389648</ele>
        <time>2014-02-09T09:51:59.000Z</time>
      </trkpt>
      <trkpt lat="44.91281" lon="0.79707">
        <ele>166.60000610352</ele>
        <time>2014-02-09T09:52:00.000Z</time>
      </trkpt>
      <trkpt lat="44.91278" lon="0.79685">
        <ele>167.60000610352</ele>
        <time>2014-02-09T09:52:07.000Z</time>
      </trkpt>
      <trkpt lat="44.91277" lon="0.79673">
        <ele>168.19999694824</ele>
        <time>2014-02-09T09:52:11.000Z</time>
      </trkpt>
      <trkpt lat="44.91273" lon="0.79656">
        <ele>168.60000610352</ele>
        <time>2014-02-09T09:52:16.000Z</time>
      </trkpt>
      <trkpt lat="44.91269" lon="0.79638">
        <ele>169</ele>
        <time>2014-02-09T09:52:22.000Z</time>
      </trkpt>
      <trkpt lat="44.91265" lon="0.79625">
        <ele>169.39999389648</ele>
        <time>2014-02-09T09:52:27.000Z</time>
      </trkpt>
      <trkpt lat="44.91261" lon="0.79611">
        <ele>169.80000305176</ele>
        <time>2014-02-09T09:52:33.000Z</time>
      </trkpt>
      <trkpt lat="44.9126" lon="0.79605">
        <ele>169.80000305176</ele>
        <time>2014-02-09T09:52:35.000Z</time>
      </trkpt>
      <trkpt lat="44.91256" lon="0.79589">
        <ele>170.39999389648</ele>
        <time>2014-02-09T09:52:41.000Z</time>
      </trkpt>
      <trkpt lat="44.91253" lon="0.79577">
        <ele>170.80000305176</ele>
        <time>2014-02-09T09:52:46.000Z</time>
      </trkpt>
      <trkpt lat="44.91245" lon="0.79559">
        <ele>171.60000610352</ele>
        <time>2014-02-09T09:52:52.000Z</time>
      </trkpt>
      <trkpt lat="44.9124" lon="0.79545">
        <ele>172.19999694824</ele>
        <time>2014-02-09T09:52:57.000Z</time>
      </trkpt>
      <trkpt lat="44.91231" lon="0.79528">
        <ele>173</ele>
        <time>2014-02-09T09:53:04.000Z</time>
      </trkpt>
      <trkpt lat="44.91223" lon="0.79512">
        <ele>174.19999694824</ele>
        <time>2014-02-09T09:53:10.000Z</time>
      </trkpt>
      <trkpt lat="44.91217" lon="0.79499">
        <ele>175</ele>
        <time>2014-02-09T09:53:15.000Z</time>
      </trkpt>
      <trkpt lat="44.91209" lon="0.79485">
        <ele>175.19999694824</ele>
        <time>2014-02-09T09:53:21.000Z</time>
      </trkpt>
      <trkpt lat="44.91202" lon="0.79472">
        <ele>175.39999389648</ele>
        <time>2014-02-09T09:53:26.000Z</time>
      </trkpt>
      <trkpt lat="44.91195" lon="0.7946">
        <ele>175.60000610352</ele>
        <time>2014-02-09T09:53:31.000Z</time>
      </trkpt>
      <trkpt lat="44.9119" lon="0.79451">
        <ele>175.60000610352</ele>
        <time>2014-02-09T09:53:35.000Z</time>
      </trkpt>
      <trkpt lat="44.91181" lon="0.79438">
        <ele>175.80000305176</ele>
        <time>2014-02-09T09:53:40.000Z</time>
      </trkpt>
      <trkpt lat="44.91174" lon="0.7943">
        <ele>176</ele>
        <time>2014-02-09T09:53:44.000Z</time>
      </trkpt>
      <trkpt lat="44.91171" lon="0.79426">
        <ele>176</ele>
        <time>2014-02-09T09:53:46.000Z</time>
      </trkpt>
      <trkpt lat="44.91162" lon="0.79409">
        <ele>176</ele>
        <time>2014-02-09T09:53:52.000Z</time>
      </trkpt>
      <trkpt lat="44.91158" lon="0.79402">
        <ele>176</ele>
        <time>2014-02-09T09:53:55.000Z</time>
      </trkpt>
      <trkpt lat="44.91152" lon="0.79391">
        <ele>176.19999694824</ele>
        <time>2014-02-09T09:53:59.000Z</time>
      </trkpt>
      <trkpt lat="44.91146" lon="0.79381">
        <ele>176.39999389648</ele>
        <time>2014-02-09T09:54:03.000Z</time>
      </trkpt>
      <trkpt lat="44.91136" lon="0.79366">
        <ele>177</ele>
        <time>2014-02-09T09:54:09.000Z</time>
      </trkpt>
      <trkpt lat="44.91128" lon="0.7935">
        <ele>177.80000305176</ele>
        <time>2014-02-09T09:54:15.000Z</time>
      </trkpt>
      <trkpt lat="44.91119" lon="0.79336">
        <ele>179.19999694824</ele>
        <time>2014-02-09T09:54:21.000Z</time>
      </trkpt>
      <trkpt lat="44.9111" lon="0.79322">
        <ele>179.80000305176</ele>
        <time>2014-02-09T09:54:27.000Z</time>
      </trkpt>
      <trkpt lat="44.91102" lon="0.79311">
        <ele>180.19999694824</ele>
        <time>2014-02-09T09:54:32.000Z</time>
      </trkpt>
      <trkpt lat="44.91096" lon="0.793">
        <ele>180.39999389648</ele>
        <time>2014-02-09T09:54:37.000Z</time>
      </trkpt>
      <trkpt lat="44.91095" lon="0.79299">
        <ele>180.39999389648</ele>
        <time>2014-02-09T09:54:38.000Z</time>
      </trkpt>
      <trkpt lat="44.91084" lon="0.79285">
        <ele>181.19999694824</ele>
        <time>2014-02-09T09:54:45.000Z</time>
      </trkpt>
      <trkpt lat="44.91074" lon="0.79271">
        <ele>181.60000610352</ele>
        <time>2014-02-09T09:54:51.000Z</time>
      </trkpt>
      <trkpt lat="44.91061" lon="0.79253">
        <ele>182.19999694824</ele>
        <time>2014-02-09T09:54:59.000Z</time>
      </trkpt>
      <trkpt lat="44.91048" lon="0.79244">
        <ele>183.39999389648</ele>
        <time>2014-02-09T09:55:05.000Z</time>
      </trkpt>
      <trkpt lat="44.91034" lon="0.79233">
        <ele>184.80000305176</ele>
        <time>2014-02-09T09:55:12.000Z</time>
      </trkpt>
      <trkpt lat="44.91023" lon="0.79231">
        <ele>185.80000305176</ele>
        <time>2014-02-09T09:55:16.000Z</time>
      </trkpt>
      <trkpt lat="44.91012" lon="0.79234">
        <ele>186.80000305176</ele>
        <time>2014-02-09T09:55:21.000Z</time>
      </trkpt>
      <trkpt lat="44.91001" lon="0.79244">
        <ele>187.80000305176</ele>
        <time>2014-02-09T09:55:27.000Z</time>
      </trkpt>
      <trkpt lat="44.90989" lon="0.79256">
        <ele>188.19999694824</ele>
        <time>2014-02-09T09:55:32.000Z</time>
      </trkpt>
      <trkpt lat="44.90978" lon="0.79265">
        <ele>188.39999389648</ele>
        <time>2014-02-09T09:55:38.000Z</time>
      </trkpt>
      <trkpt lat="44.90968" lon="0.79267">
        <ele>188.60000610352</ele>
        <time>2014-02-09T09:55:43.000Z</time>
      </trkpt>
      <trkpt lat="44.90957" lon="0.79267">
        <ele>189</ele>
        <time>2014-02-09T09:55:48.000Z</time>
      </trkpt>
      <trkpt lat="44.90946" lon="0.79269">
        <ele>189.19999694824</ele>
        <time>2014-02-09T09:55:53.000Z</time>
      </trkpt>
      <trkpt lat="44.90932" lon="0.79267">
        <ele>189.60000610352</ele>
        <time>2014-02-09T09:55:59.000Z</time>
      </trkpt>
      <trkpt lat="44.90919" lon="0.79268">
        <ele>190</ele>
        <time>2014-02-09T09:56:05.000Z</time>
      </trkpt>
      <trkpt lat="44.90906" lon="0.7927">
        <ele>189.19999694824</ele>
        <time>2014-02-09T09:56:10.000Z</time>
      </trkpt>
      <trkpt lat="44.90892" lon="0.79275">
        <ele>188.39999389648</ele>
        <time>2014-02-09T09:56:15.000Z</time>
      </trkpt>
      <trkpt lat="44.90881" lon="0.79276">
        <ele>187.60000610352</ele>
        <time>2014-02-09T09:56:20.000Z</time>
      </trkpt>
      <trkpt lat="44.90875" lon="0.79285">
        <ele>187.19999694824</ele>
        <time>2014-02-09T09:56:24.000Z</time>
      </trkpt>
      <trkpt lat="44.9087" lon="0.79305">
        <ele>187</ele>
        <time>2014-02-09T09:56:31.000Z</time>
      </trkpt>
      <trkpt lat="44.90866" lon="0.79321">
        <ele>186.80000305176</ele>
        <time>2014-02-09T09:56:36.000Z</time>
      </trkpt>
      <trkpt lat="44.90861" lon="0.79341">
        <ele>186.39999389648</ele>
        <time>2014-02-09T09:56:42.000Z</time>
      </trkpt>
      <trkpt lat="44.90858" lon="0.79358">
        <ele>185.60000610352</ele>
        <time>2014-02-09T09:56:47.000Z</time>
      </trkpt>
      <trkpt lat="44.90855" lon="0.79377">
        <ele>184.80000305176</ele>
        <time>2014-02-09T09:56:52.000Z</time>
      </trkpt>
      <trkpt lat="44.90854" lon="0.79398">
        <ele>184</ele>
        <time>2014-02-09T09:56:58.000Z</time>
      </trkpt>
      <trkpt lat="44.90853" lon="0.79402">
        <ele>183.80000305176</ele>
        <time>2014-02-09T09:56:59.000Z</time>
      </trkpt>
      <trkpt lat="44.9085" lon="0.79417">
        <ele>183.19999694824</ele>
        <time>2014-02-09T09:57:03.000Z</time>
      </trkpt>
      <trkpt lat="44.90846" lon="0.79437">
        <ele>182.60000610352</ele>
        <time>2014-02-09T09:57:09.000Z</time>
      </trkpt>
      <trkpt lat="44.90845" lon="0.79455">
        <ele>182</ele>
        <time>2014-02-09T09:57:14.000Z</time>
      </trkpt>
      <trkpt lat="44.90843" lon="0.79473">
        <ele>181.80000305176</ele>
        <time>2014-02-09T09:57:19.000Z</time>
      </trkpt>
      <trkpt lat="44.90839" lon="0.79487">
        <ele>181.60000610352</ele>
        <time>2014-02-09T09:57:23.000Z</time>
      </trkpt>
      <trkpt lat="44.90837" lon="0.79498">
        <ele>181.60000610352</ele>
        <time>2014-02-09T09:57:26.000Z</time>
      </trkpt>
      <trkpt lat="44.90834" lon="0.79521">
        <ele>180.39999389648</ele>
        <time>2014-02-09T09:57:32.000Z</time>
      </trkpt>
      <trkpt lat="44.90829" lon="0.79546">
        <ele>178.19999694824</ele>
        <time>2014-02-09T09:57:39.000Z</time>
      </trkpt>
      <trkpt lat="44.90826" lon="0.79566">
        <ele>176.60000610352</ele>
        <time>2014-02-09T09:57:45.000Z</time>
      </trkpt>
      <trkpt lat="44.90824" lon="0.79583">
        <ele>175.39999389648</ele>
        <time>2014-02-09T09:57:50.000Z</time>
      </trkpt>
      <trkpt lat="44.90819" lon="0.79606">
        <ele>173.60000610352</ele>
        <time>2014-02-09T09:57:56.000Z</time>
      </trkpt>
      <trkpt lat="44.90815" lon="0.79624">
        <ele>172.39999389648</ele>
        <time>2014-02-09T09:58:01.000Z</time>
      </trkpt>
      <trkpt lat="44.90811" lon="0.7965">
        <ele>170.80000305176</ele>
        <time>2014-02-09T09:58:08.000Z</time>
      </trkpt>
      <trkpt lat="44.90808" lon="0.79673">
        <ele>169.60000610352</ele>
        <time>2014-02-09T09:58:14.000Z</time>
      </trkpt>
      <trkpt lat="44.9081" lon="0.797">
        <ele>169.19999694824</ele>
        <time>2014-02-09T09:58:21.000Z</time>
      </trkpt>
      <trkpt lat="44.90815" lon="0.79716">
        <ele>169.19999694824</ele>
        <time>2014-02-09T09:58:26.000Z</time>
      </trkpt>
      <trkpt lat="44.9081" lon="0.79742">
        <ele>168.39999389648</ele>
        <time>2014-02-09T09:58:33.000Z</time>
      </trkpt>
      <trkpt lat="44.90805" lon="0.79764">
        <ele>168.39999389648</ele>
        <time>2014-02-09T09:58:39.000Z</time>
      </trkpt>
      <trkpt lat="44.90799" lon="0.79778">
        <ele>168.19999694824</ele>
        <time>2014-02-09T09:58:44.000Z</time>
      </trkpt>
      <trkpt lat="44.90789" lon="0.79799">
        <ele>168</ele>
        <time>2014-02-09T09:58:51.000Z</time>
      </trkpt>
      <trkpt lat="44.90783" lon="0.79817">
        <ele>168</ele>
        <time>2014-02-09T09:58:57.000Z</time>
      </trkpt>
      <trkpt lat="44.90781" lon="0.79831">
        <ele>168.19999694824</ele>
        <time>2014-02-09T09:59:01.000Z</time>
      </trkpt>
      <trkpt lat="44.9078" lon="0.79847">
        <ele>168</ele>
        <time>2014-02-09T09:59:06.000Z</time>
      </trkpt>
      <trkpt lat="44.90778" lon="0.79861">
        <ele>167.80000305176</ele>
        <time>2014-02-09T09:59:10.000Z</time>
      </trkpt>
      <trkpt lat="44.90779" lon="0.79883">
        <ele>167.60000610352</ele>
        <time>2014-02-09T09:59:16.000Z</time>
      </trkpt>
      <trkpt lat="44.90779" lon="0.7989">
        <ele>167.60000610352</ele>
        <time>2014-02-09T09:59:18.000Z</time>
      </trkpt>
      <trkpt lat="44.90773" lon="0.79889">
        <ele>167.19999694824</ele>
        <time>2014-02-09T09:59:23.000Z</time>
      </trkpt>
      <trkpt lat="44.90772" lon="0.79881">
        <ele>167.19999694824</ele>
        <time>2014-02-09T09:59:25.000Z</time>
      </trkpt>
      <trkpt lat="44.90766" lon="0.79862">
        <ele>166.80000305176</ele>
        <time>2014-02-09T09:59:31.000Z</time>
      </trkpt>
      <trkpt lat="44.90762" lon="0.79839">
        <ele>166.80000305176</ele>
        <time>2014-02-09T09:59:37.000Z</time>
      </trkpt>
      <trkpt lat="44.90758" lon="0.79814">
        <ele>166.19999694824</ele>
        <time>2014-02-09T09:59:42.000Z</time>
      </trkpt>
      <trkpt lat="44.90755" lon="0.79785">
        <ele>165.19999694824</ele>
        <time>2014-02-09T09:59:47.000Z</time>
      </trkpt>
      <trkpt lat="44.90752" lon="0.79765">
        <ele>164.39999389648</ele>
        <time>2014-02-09T09:59:51.000Z</time>
      </trkpt>
      <trkpt lat="44.90747" lon="0.79745">
        <ele>163</ele>
        <time>2014-02-09T09:59:55.000Z</time>
      </trkpt>
      <trkpt lat="44.90735" lon="0.79715">
        <ele>160</ele>
        <time>2014-02-09T10:00:01.000Z</time>
      </trkpt>
      <trkpt lat="44.90728" lon="0.797">
        <ele>158.39999389648</ele>
        <time>2014-02-09T10:00:04.000Z</time>
      </trkpt>
      <trkpt lat="44.90717" lon="0.7968">
        <ele>155</ele>
        <time>2014-02-09T10:00:08.000Z</time>
      </trkpt>
      <trkpt lat="44.90708" lon="0.79661">
        <ele>152.80000305176</ele>
        <time>2014-02-09T10:00:12.000Z</time>
      </trkpt>
      <trkpt lat="44.90696" lon="0.79633">
        <ele>149.80000305176</ele>
        <time>2014-02-09T10:00:18.000Z</time>
      </trkpt>
      <trkpt lat="44.90689" lon="0.79617">
        <ele>148.39999389648</ele>
        <time>2014-02-09T10:00:21.000Z</time>
      </trkpt>
      <trkpt lat="44.90678" lon="0.79586">
        <ele>146.39999389648</ele>
        <time>2014-02-09T10:00:27.000Z</time>
      </trkpt>
      <trkpt lat="44.90676" lon="0.79581">
        <ele>146</ele>
        <time>2014-02-09T10:00:28.000Z</time>
      </trkpt>
      <trkpt lat="44.90666" lon="0.79549">
        <ele>144.60000610352</ele>
        <time>2014-02-09T10:00:34.000Z</time>
      </trkpt>
      <trkpt lat="44.90652" lon="0.79534">
        <ele>145.19999694824</ele>
        <time>2014-02-09T10:00:39.000Z</time>
      </trkpt>
      <trkpt lat="44.9065" lon="0.79532">
        <ele>145.19999694824</ele>
        <time>2014-02-09T10:00:40.000Z</time>
      </trkpt>
      <trkpt lat="44.90646" lon="0.7953">
        <ele>145.19999694824</ele>
        <time>2014-02-09T10:00:42.000Z</time>
      </trkpt>
      <trkpt lat="44.90636" lon="0.79517">
        <ele>145.19999694824</ele>
        <time>2014-02-09T10:00:49.000Z</time>
      </trkpt>
      <trkpt lat="44.90627" lon="0.79515">
        <ele>145</ele>
        <time>2014-02-09T10:00:54.000Z</time>
      </trkpt>
      <trkpt lat="44.90621" lon="0.79512">
        <ele>144.80000305176</ele>
        <time>2014-02-09T10:01:00.000Z</time>
      </trkpt>
      <trkpt lat="44.90618" lon="0.7951">
        <ele>144.60000610352</ele>
        <time>2014-02-09T10:01:06.000Z</time>
      </trkpt>
      <trkpt lat="44.90613" lon="0.79508">
        <ele>144.39999389648</ele>
        <time>2014-02-09T10:01:14.000Z</time>
      </trkpt>
      <trkpt lat="44.90612" lon="0.79507">
        <ele>144.39999389648</ele>
        <time>2014-02-09T10:01:19.000Z</time>
      </trkpt>
      <trkpt lat="44.90608" lon="0.79504">
        <ele>144.19999694824</ele>
        <time>2014-02-09T10:01:24.000Z</time>
      </trkpt>
      <trkpt lat="44.90601" lon="0.79499">
        <ele>143.80000305176</ele>
        <time>2014-02-09T10:01:29.000Z</time>
      </trkpt>
      <trkpt lat="44.90596" lon="0.79495">
        <ele>143.60000610352</ele>
        <time>2014-02-09T10:01:32.000Z</time>
      </trkpt>
      <trkpt lat="44.90587" lon="0.79489">
        <ele>143</ele>
        <time>2014-02-09T10:01:37.000Z</time>
      </trkpt>
      <trkpt lat="44.90579" lon="0.79483">
        <ele>144</ele>
        <time>2014-02-09T10:01:43.000Z</time>
      </trkpt>
      <trkpt lat="44.90569" lon="0.79477">
        <ele>146.19999694824</ele>
        <time>2014-02-09T10:01:49.000Z</time>
      </trkpt>
      <trkpt lat="44.90564" lon="0.79474">
        <ele>147.19999694824</ele>
        <time>2014-02-09T10:01:52.000Z</time>
      </trkpt>
      <trkpt lat="44.90552" lon="0.79465">
        <ele>149.80000305176</ele>
        <time>2014-02-09T10:01:58.000Z</time>
      </trkpt>
      <trkpt lat="44.90543" lon="0.79458">
        <ele>151.80000305176</ele>
        <time>2014-02-09T10:02:02.000Z</time>
      </trkpt>
      <trkpt lat="44.90529" lon="0.7945">
        <ele>154.60000610352</ele>
        <time>2014-02-09T10:02:08.000Z</time>
      </trkpt>
      <trkpt lat="44.9052" lon="0.79445">
        <ele>156.39999389648</ele>
        <time>2014-02-09T10:02:13.000Z</time>
      </trkpt>
      <trkpt lat="44.90507" lon="0.79437">
        <ele>159.19999694824</ele>
        <time>2014-02-09T10:02:19.000Z</time>
      </trkpt>
      <trkpt lat="44.90496" lon="0.79428">
        <ele>161</ele>
        <time>2014-02-09T10:02:25.000Z</time>
      </trkpt>
      <trkpt lat="44.90486" lon="0.79421">
        <ele>162.19999694824</ele>
        <time>2014-02-09T10:02:30.000Z</time>
      </trkpt>
      <trkpt lat="44.90477" lon="0.79415">
        <ele>163.39999389648</ele>
        <time>2014-02-09T10:02:35.000Z</time>
      </trkpt>
      <trkpt lat="44.90468" lon="0.79405">
        <ele>164.80000305176</ele>
        <time>2014-02-09T10:02:40.000Z</time>
      </trkpt>
      <trkpt lat="44.90457" lon="0.79398">
        <ele>166.60000610352</ele>
        <time>2014-02-09T10:02:45.000Z</time>
      </trkpt>
      <trkpt lat="44.90446" lon="0.79389">
        <ele>168.39999389648</ele>
        <time>2014-02-09T10:02:50.000Z</time>
      </trkpt>
      <trkpt lat="44.90436" lon="0.7938">
        <ele>170.19999694824</ele>
        <time>2014-02-09T10:02:55.000Z</time>
      </trkpt>
      <trkpt lat="44.90428" lon="0.79374">
        <ele>171.60000610352</ele>
        <time>2014-02-09T10:03:00.000Z</time>
      </trkpt>
      <trkpt lat="44.90419" lon="0.79368">
        <ele>173.39999389648</ele>
        <time>2014-02-09T10:03:06.000Z</time>
      </trkpt>
      <trkpt lat="44.90409" lon="0.79363">
        <ele>175</ele>
        <time>2014-02-09T10:03:12.000Z</time>
      </trkpt>
      <trkpt lat="44.904" lon="0.79358">
        <ele>176.60000610352</ele>
        <time>2014-02-09T10:03:17.000Z</time>
      </trkpt>
      <trkpt lat="44.90391" lon="0.7935">
        <ele>178.19999694824</ele>
        <time>2014-02-09T10:03:22.000Z</time>
      </trkpt>
      <trkpt lat="44.90383" lon="0.79341">
        <ele>179.80000305176</ele>
        <time>2014-02-09T10:03:27.000Z</time>
      </trkpt>
      <trkpt lat="44.90381" lon="0.79339">
        <ele>180</ele>
        <time>2014-02-09T10:03:28.000Z</time>
      </trkpt>
      <trkpt lat="44.90373" lon="0.79327">
        <ele>181</ele>
        <time>2014-02-09T10:03:34.000Z</time>
      </trkpt>
      <trkpt lat="44.90366" lon="0.79316">
        <ele>181.60000610352</ele>
        <time>2014-02-09T10:03:39.000Z</time>
      </trkpt>
      <trkpt lat="44.90357" lon="0.79304">
        <ele>182</ele>
        <time>2014-02-09T10:03:45.000Z</time>
      </trkpt>
      <trkpt lat="44.90343" lon="0.79296">
        <ele>183.19999694824</ele>
        <time>2014-02-09T10:03:51.000Z</time>
      </trkpt>
      <trkpt lat="44.90333" lon="0.79293">
        <ele>184.19999694824</ele>
        <time>2014-02-09T10:03:56.000Z</time>
      </trkpt>
      <trkpt lat="44.90321" lon="0.79289">
        <ele>184.60000610352</ele>
        <time>2014-02-09T10:04:02.000Z</time>
      </trkpt>
      <trkpt lat="44.9031" lon="0.79283">
        <ele>185</ele>
        <time>2014-02-09T10:04:08.000Z</time>
      </trkpt>
      <trkpt lat="44.90301" lon="0.79281">
        <ele>185.39999389648</ele>
        <time>2014-02-09T10:04:13.000Z</time>
      </trkpt>
      <trkpt lat="44.90296" lon="0.79277">
        <ele>185.60000610352</ele>
        <time>2014-02-09T10:04:19.000Z</time>
      </trkpt>
      <trkpt lat="44.90294" lon="0.79274">
        <ele>185.39999389648</ele>
        <time>2014-02-09T10:04:26.000Z</time>
      </trkpt>
      <trkpt lat="44.90297" lon="0.79275">
        <ele>185.39999389648</ele>
        <time>2014-02-09T10:04:33.000Z</time>
      </trkpt>
      <trkpt lat="44.90299" lon="0.79273">
        <ele>185</ele>
        <time>2014-02-09T10:04:39.000Z</time>
      </trkpt>
      <trkpt lat="44.90297" lon="0.79262">
        <ele>184.39999389648</ele>
        <time>2014-02-09T10:05:32.000Z</time>
      </trkpt>
      <trkpt lat="44.90297" lon="0.79263">
        <ele>184.39999389648</ele>
        <time>2014-02-09T10:05:40.000Z</time>
      </trkpt>
      <trkpt lat="44.90296" lon="0.79262">
        <ele>184.39999389648</ele>
        <time>2014-02-09T10:05:52.000Z</time>
      </trkpt>
      <trkpt lat="44.90293" lon="0.79261">
        <ele>184.60000610352</ele>
        <time>2014-02-09T10:06:04.000Z</time>
      </trkpt>
      <trkpt lat="44.90288" lon="0.7926">
        <ele>185</ele>
        <time>2014-02-09T10:06:09.000Z</time>
      </trkpt>
      <trkpt lat="44.9028" lon="0.79258">
        <ele>185.39999389648</ele>
        <time>2014-02-09T10:06:17.000Z</time>
      </trkpt>
      <trkpt lat="44.9027" lon="0.79255">
        <ele>186</ele>
        <time>2014-02-09T10:06:25.000Z</time>
      </trkpt>
      <trkpt lat="44.90261" lon="0.79252">
        <ele>186.39999389648</ele>
        <time>2014-02-09T10:06:32.000Z</time>
      </trkpt>
      <trkpt lat="44.90254" lon="0.79247">
        <ele>186.60000610352</ele>
        <time>2014-02-09T10:06:38.000Z</time>
      </trkpt>
      <trkpt lat="44.90247" lon="0.79243">
        <ele>186.60000610352</ele>
        <time>2014-02-09T10:06:44.000Z</time>
      </trkpt>
      <trkpt lat="44.90245" lon="0.79242">
        <ele>186.60000610352</ele>
        <time>2014-02-09T10:06:46.000Z</time>
      </trkpt>
      <trkpt lat="44.90239" lon="0.79236">
        <ele>186.19999694824</ele>
        <time>2014-02-09T10:06:53.000Z</time>
      </trkpt>
      <trkpt lat="44.90238" lon="0.79234">
        <ele>186</ele>
        <time>2014-02-09T10:06:55.000Z</time>
      </trkpt>
      <trkpt lat="44.90229" lon="0.79224">
        <ele>185.39999389648</ele>
        <time>2014-02-09T10:07:04.000Z</time>
      </trkpt>
      <trkpt lat="44.9022" lon="0.79215">
        <ele>185</ele>
        <time>2014-02-09T10:07:12.000Z</time>
      </trkpt>
      <trkpt lat="44.90211" lon="0.79204">
        <ele>184.60000610352</ele>
        <time>2014-02-09T10:07:17.000Z</time>
      </trkpt>
      <trkpt lat="44.902" lon="0.79193">
        <ele>184.19999694824</ele>
        <time>2014-02-09T10:07:23.000Z</time>
      </trkpt>
      <trkpt lat="44.90193" lon="0.79185">
        <ele>184.19999694824</ele>
        <time>2014-02-09T10:07:27.000Z</time>
      </trkpt>
      <trkpt lat="44.90197" lon="0.79171">
        <ele>183.80000305176</ele>
        <time>2014-02-09T10:07:32.000Z</time>
      </trkpt>
      <trkpt lat="44.90202" lon="0.79156">
        <ele>183.60000610352</ele>
        <time>2014-02-09T10:07:37.000Z</time>
      </trkpt>
      <trkpt lat="44.9021" lon="0.79136">
        <ele>183.39999389648</ele>
        <time>2014-02-09T10:07:44.000Z</time>
      </trkpt>
      <trkpt lat="44.90218" lon="0.79117">
        <ele>183.19999694824</ele>
        <time>2014-02-09T10:07:50.000Z</time>
      </trkpt>
      <trkpt lat="44.90224" lon="0.79099">
        <ele>182.60000610352</ele>
        <time>2014-02-09T10:07:56.000Z</time>
      </trkpt>
      <trkpt lat="44.90223" lon="0.79087">
        <ele>182.60000610352</ele>
        <time>2014-02-09T10:08:00.000Z</time>
      </trkpt>
      <trkpt lat="44.90216" lon="0.79078">
        <ele>183.19999694824</ele>
        <time>2014-02-09T10:08:04.000Z</time>
      </trkpt>
      <trkpt lat="44.90205" lon="0.79066">
        <ele>184.19999694824</ele>
        <time>2014-02-09T10:08:11.000Z</time>
      </trkpt>
      <trkpt lat="44.90195" lon="0.79057">
        <ele>184.80000305176</ele>
        <time>2014-02-09T10:08:16.000Z</time>
      </trkpt>
      <trkpt lat="44.90183" lon="0.79044">
        <ele>185.39999389648</ele>
        <time>2014-02-09T10:08:22.000Z</time>
      </trkpt>
      <trkpt lat="44.90175" lon="0.79038">
        <ele>185.80000305176</ele>
        <time>2014-02-09T10:08:26.000Z</time>
      </trkpt>
      <trkpt lat="44.90164" lon="0.79045">
        <ele>185.80000305176</ele>
        <time>2014-02-09T10:08:31.000Z</time>
      </trkpt>
      <trkpt lat="44.90154" lon="0.79064">
        <ele>185.19999694824</ele>
        <time>2014-02-09T10:08:38.000Z</time>
      </trkpt>
      <trkpt lat="44.90145" lon="0.7908">
        <ele>184.60000610352</ele>
        <time>2014-02-09T10:08:44.000Z</time>
      </trkpt>
      <trkpt lat="44.90132" lon="0.791">
        <ele>183</ele>
        <time>2014-02-09T10:08:52.000Z</time>
      </trkpt>
      <trkpt lat="44.90126" lon="0.79102">
        <ele>182.60000610352</ele>
        <time>2014-02-09T10:08:55.000Z</time>
      </trkpt>
      <trkpt lat="44.90111" lon="0.79093">
        <ele>182</ele>
        <time>2014-02-09T10:09:03.000Z</time>
      </trkpt>
      <trkpt lat="44.90097" lon="0.79085">
        <ele>181.80000305176</ele>
        <time>2014-02-09T10:09:09.000Z</time>
      </trkpt>
      <trkpt lat="44.90083" lon="0.79077">
        <ele>181</ele>
        <time>2014-02-09T10:09:15.000Z</time>
      </trkpt>
      <trkpt lat="44.90062" lon="0.79071">
        <ele>179.60000610352</ele>
        <time>2014-02-09T10:09:24.000Z</time>
      </trkpt>
      <trkpt lat="44.90047" lon="0.7908">
        <ele>179.19999694824</ele>
        <time>2014-02-09T10:09:30.000Z</time>
      </trkpt>
      <trkpt lat="44.90032" lon="0.79088">
        <ele>178.19999694824</ele>
        <time>2014-02-09T10:09:36.000Z</time>
      </trkpt>
      <trkpt lat="44.90019" lon="0.79093">
        <ele>177.19999694824</ele>
        <time>2014-02-09T10:09:41.000Z</time>
      </trkpt>
      <trkpt lat="44.90005" lon="0.79099">
        <ele>176.19999694824</ele>
        <time>2014-02-09T10:09:47.000Z</time>
      </trkpt>
      <trkpt lat="44.8999" lon="0.79105">
        <ele>174.60000610352</ele>
        <time>2014-02-09T10:09:53.000Z</time>
      </trkpt>
      <trkpt lat="44.89977" lon="0.79111">
        <ele>173.39999389648</ele>
        <time>2014-02-09T10:09:58.000Z</time>
      </trkpt>
      <trkpt lat="44.89967" lon="0.79116">
        <ele>172.39999389648</ele>
        <time>2014-02-09T10:10:02.000Z</time>
      </trkpt>
      <trkpt lat="44.89948" lon="0.79125">
        <ele>171</ele>
        <time>2014-02-09T10:10:09.000Z</time>
      </trkpt>
      <trkpt lat="44.89946" lon="0.79126">
        <ele>170.80000305176</ele>
        <time>2014-02-09T10:10:10.000Z</time>
      </trkpt>
      <trkpt lat="44.89928" lon="0.79139">
        <ele>169.60000610352</ele>
        <time>2014-02-09T10:10:17.000Z</time>
      </trkpt>
      <trkpt lat="44.89909" lon="0.79149">
        <ele>167.39999389648</ele>
        <time>2014-02-09T10:10:23.000Z</time>
      </trkpt>
      <trkpt lat="44.89895" lon="0.79157">
        <ele>164.60000610352</ele>
        <time>2014-02-09T10:10:27.000Z</time>
      </trkpt>
      <trkpt lat="44.89882" lon="0.79166">
        <ele>161.80000305176</ele>
        <time>2014-02-09T10:10:31.000Z</time>
      </trkpt>
      <trkpt lat="44.89865" lon="0.79176">
        <ele>157.60000610352</ele>
        <time>2014-02-09T10:10:36.000Z</time>
      </trkpt>
      <trkpt lat="44.89846" lon="0.79193">
        <ele>153.19999694824</ele>
        <time>2014-02-09T10:10:41.000Z</time>
      </trkpt>
      <trkpt lat="44.8984" lon="0.79202">
        <ele>151.80000305176</ele>
        <time>2014-02-09T10:10:43.000Z</time>
      </trkpt>
      <trkpt lat="44.89834" lon="0.79223">
        <ele>150</ele>
        <time>2014-02-09T10:10:47.000Z</time>
      </trkpt>
      <trkpt lat="44.89825" lon="0.79244">
        <ele>147.39999389648</ele>
        <time>2014-02-09T10:10:52.000Z</time>
      </trkpt>
      <trkpt lat="44.89816" lon="0.79262">
        <ele>144.39999389648</ele>
        <time>2014-02-09T10:10:56.000Z</time>
      </trkpt>
      <trkpt lat="44.89809" lon="0.79271">
        <ele>142.39999389648</ele>
        <time>2014-02-09T10:10:59.000Z</time>
      </trkpt>
      <trkpt lat="44.89778" lon="0.79286">
        <ele>136.19999694824</ele>
        <time>2014-02-09T10:11:07.000Z</time>
      </trkpt>
      <trkpt lat="44.89773" lon="0.79288">
        <ele>135.39999389648</ele>
        <time>2014-02-09T10:11:08.000Z</time>
      </trkpt>
      <trkpt lat="44.89751" lon="0.79299">
        <ele>131.80000305176</ele>
        <time>2014-02-09T10:11:13.000Z</time>
      </trkpt>
      <trkpt lat="44.89739" lon="0.79305">
        <ele>130.60000610352</ele>
        <time>2014-02-09T10:11:16.000Z</time>
      </trkpt>
      <trkpt lat="44.89727" lon="0.79311">
        <ele>129.60000610352</ele>
        <time>2014-02-09T10:11:19.000Z</time>
      </trkpt>
      <trkpt lat="44.89707" lon="0.79319">
        <ele>127.40000152588</ele>
        <time>2014-02-09T10:11:24.000Z</time>
      </trkpt>
      <trkpt lat="44.89702" lon="0.79321">
        <ele>127</ele>
        <time>2014-02-09T10:11:25.000Z</time>
      </trkpt>
      <trkpt lat="44.89694" lon="0.79327">
        <ele>126</ele>
        <time>2014-02-09T10:11:27.000Z</time>
      </trkpt>
      <trkpt lat="44.89674" lon="0.79339">
        <ele>124.19999694824</ele>
        <time>2014-02-09T10:11:32.000Z</time>
      </trkpt>
      <trkpt lat="44.89665" lon="0.79347">
        <ele>124</ele>
        <time>2014-02-09T10:11:36.000Z</time>
      </trkpt>
      <trkpt lat="44.89661" lon="0.79356">
        <ele>124.59999847412</ele>
        <time>2014-02-09T10:11:39.000Z</time>
      </trkpt>
      <trkpt lat="44.89653" lon="0.79364">
        <ele>124.80000305176</ele>
        <time>2014-02-09T10:11:43.000Z</time>
      </trkpt>
      <trkpt lat="44.89636" lon="0.79369">
        <ele>124.59999847412</ele>
        <time>2014-02-09T10:11:50.000Z</time>
      </trkpt>
      <trkpt lat="44.89623" lon="0.79376">
        <ele>124.40000152588</ele>
        <time>2014-02-09T10:11:55.000Z</time>
      </trkpt>
      <trkpt lat="44.89604" lon="0.79392">
        <ele>124</ele>
        <time>2014-02-09T10:12:02.000Z</time>
      </trkpt>
      <trkpt lat="44.89593" lon="0.79405">
        <ele>123.59999847412</ele>
        <time>2014-02-09T10:12:07.000Z</time>
      </trkpt>
      <trkpt lat="44.89591" lon="0.79406">
        <ele>123.40000152588</ele>
        <time>2014-02-09T10:12:13.000Z</time>
      </trkpt>
      <trkpt lat="44.89591" lon="0.79407">
        <ele>123.40000152588</ele>
        <time>2014-02-09T10:12:20.000Z</time>
      </trkpt>
      <trkpt lat="44.89591" lon="0.79407">
        <ele>123.59999847412</ele>
        <time>2014-02-09T10:12:26.000Z</time>
      </trkpt>
      <trkpt lat="44.89591" lon="0.79408">
        <ele>123.40000152588</ele>
        <time>2014-02-09T10:12:31.000Z</time>
      </trkpt>
      <trkpt lat="44.89591" lon="0.79408">
        <ele>123.59999847412</ele>
        <time>2014-02-09T10:12:36.000Z</time>
      </trkpt>
      <trkpt lat="44.89592" lon="0.79409">
        <ele>123.59999847412</ele>
        <time>2014-02-09T10:12:47.000Z</time>
      </trkpt>
      <trkpt lat="44.89592" lon="0.79409">
        <ele>123.59999847412</ele>
        <time>2014-02-09T10:13:06.000Z</time>
      </trkpt>
      <trkpt lat="44.89593" lon="0.79409">
        <ele>123.59999847412</ele>
        <time>2014-02-09T10:13:12.000Z</time>
      </trkpt>
      <trkpt lat="44.89592" lon="0.79408">
        <ele>123.59999847412</ele>
        <time>2014-02-09T10:13:24.000Z</time>
      </trkpt>
      <trkpt lat="44.89591" lon="0.79409">
        <ele>123.40000152588</ele>
        <time>2014-02-09T10:13:33.000Z</time>
      </trkpt>
      <trkpt lat="44.89586" lon="0.79412">
        <ele>123.19999694824</ele>
        <time>2014-02-09T10:13:38.000Z</time>
      </trkpt>
      <trkpt lat="44.89583" lon="0.79417">
        <ele>123</ele>
        <time>2014-02-09T10:13:42.000Z</time>
      </trkpt>
      <trkpt lat="44.89578" lon="0.79426">
        <ele>123.19999694824</ele>
        <time>2014-02-09T10:13:47.000Z</time>
      </trkpt>
      <trkpt lat="44.89571" lon="0.7943">
        <ele>123</ele>
        <time>2014-02-09T10:13:52.000Z</time>
      </trkpt>
      <trkpt lat="44.89565" lon="0.79432">
        <ele>122.59999847412</ele>
        <time>2014-02-09T10:13:56.000Z</time>
      </trkpt>
      <trkpt lat="44.89559" lon="0.79428">
        <ele>121.80000305176</ele>
        <time>2014-02-09T10:14:02.000Z</time>
      </trkpt>
      <trkpt lat="44.89553" lon="0.7942">
        <ele>120.59999847412</ele>
        <time>2014-02-09T10:14:10.000Z</time>
      </trkpt>
      <trkpt lat="44.89552" lon="0.7942">
        <ele>120.59999847412</ele>
        <time>2014-02-09T10:14:17.000Z</time>
      </trkpt>
      <trkpt lat="44.89551" lon="0.79416">
        <ele>120.40000152588</ele>
        <time>2014-02-09T10:14:26.000Z</time>
      </trkpt>
      <trkpt lat="44.8955" lon="0.79414">
        <ele>120.40000152588</ele>
        <time>2014-02-09T10:14:27.000Z</time>
      </trkpt>
      <trkpt lat="44.89545" lon="0.79401">
        <ele>121</ele>
        <time>2014-02-09T10:14:36.000Z</time>
      </trkpt>
      <trkpt lat="44.8954" lon="0.79394">
        <ele>121.19999694824</ele>
        <time>2014-02-09T10:14:42.000Z</time>
      </trkpt>
      <trkpt lat="44.89534" lon="0.79389">
        <ele>121.40000152588</ele>
        <time>2014-02-09T10:14:48.000Z</time>
      </trkpt>
      <trkpt lat="44.89525" lon="0.79382">
        <ele>121.80000305176</ele>
        <time>2014-02-09T10:14:53.000Z</time>
      </trkpt>
      <trkpt lat="44.89513" lon="0.79377">
        <ele>122.19999694824</ele>
        <time>2014-02-09T10:14:59.000Z</time>
      </trkpt>
      <trkpt lat="44.89503" lon="0.79376">
        <ele>122.40000152588</ele>
        <time>2014-02-09T10:15:04.000Z</time>
      </trkpt>
      <trkpt lat="44.89499" lon="0.79376">
        <ele>122.19999694824</ele>
        <time>2014-02-09T10:15:06.000Z</time>
      </trkpt>
      <trkpt lat="44.89486" lon="0.7938">
        <ele>121.80000305176</ele>
        <time>2014-02-09T10:15:12.000Z</time>
      </trkpt>
      <trkpt lat="44.89474" lon="0.79381">
        <ele>121.80000305176</ele>
        <time>2014-02-09T10:15:17.000Z</time>
      </trkpt>
      <trkpt lat="44.89462" lon="0.79384">
        <ele>121.59999847412</ele>
        <time>2014-02-09T10:15:22.000Z</time>
      </trkpt>
      <trkpt lat="44.89447" lon="0.79387">
        <ele>121.40000152588</ele>
        <time>2014-02-09T10:15:28.000Z</time>
      </trkpt>
      <trkpt lat="44.89433" lon="0.79386">
        <ele>121.59999847412</ele>
        <time>2014-02-09T10:15:34.000Z</time>
      </trkpt>
      <trkpt lat="44.89421" lon="0.79388">
        <ele>121.40000152588</ele>
        <time>2014-02-09T10:15:39.000Z</time>
      </trkpt>
      <trkpt lat="44.89409" lon="0.7939">
        <ele>121.59999847412</ele>
        <time>2014-02-09T10:15:44.000Z</time>
      </trkpt>
      <trkpt lat="44.89399" lon="0.79379">
        <ele>124</ele>
        <time>2014-02-09T10:15:50.000Z</time>
      </trkpt>
      <trkpt lat="44.89385" lon="0.79378">
        <ele>125</ele>
        <time>2014-02-09T10:15:56.000Z</time>
      </trkpt>
      <trkpt lat="44.89375" lon="0.79383">
        <ele>125</ele>
        <time>2014-02-09T10:16:01.000Z</time>
      </trkpt>
      <trkpt lat="44.89364" lon="0.79393">
        <ele>124.80000305176</ele>
        <time>2014-02-09T10:16:06.000Z</time>
      </trkpt>
      <trkpt lat="44.89357" lon="0.794">
        <ele>124.40000152588</ele>
        <time>2014-02-09T10:16:10.000Z</time>
      </trkpt>
      <trkpt lat="44.89356" lon="0.79402">
        <ele>124.40000152588</ele>
        <time>2014-02-09T10:16:11.000Z</time>
      </trkpt>
      <trkpt lat="44.89351" lon="0.79406">
        <ele>124.40000152588</ele>
        <time>2014-02-09T10:16:13.000Z</time>
      </trkpt>
      <trkpt lat="44.89338" lon="0.79411">
        <ele>125</ele>
        <time>2014-02-09T10:16:19.000Z</time>
      </trkpt>
      <trkpt lat="44.89333" lon="0.79413">
        <ele>125.40000152588</ele>
        <time>2014-02-09T10:16:22.000Z</time>
      </trkpt>
      <trkpt lat="44.89327" lon="0.79419">
        <ele>125.19999694824</ele>
        <time>2014-02-09T10:16:26.000Z</time>
      </trkpt>
      <trkpt lat="44.89315" lon="0.79435">
        <ele>123.40000152588</ele>
        <time>2014-02-09T10:16:34.000Z</time>
      </trkpt>
      <trkpt lat="44.89308" lon="0.7944">
        <ele>123.40000152588</ele>
        <time>2014-02-09T10:16:39.000Z</time>
      </trkpt>
      <trkpt lat="44.89298" lon="0.79443">
        <ele>124.19999694824</ele>
        <time>2014-02-09T10:16:45.000Z</time>
      </trkpt>
      <trkpt lat="44.89296" lon="0.79444">
        <ele>124.19999694824</ele>
        <time>2014-02-09T10:16:46.000Z</time>
      </trkpt>
      <trkpt lat="44.8929" lon="0.79447">
        <ele>124.80000305176</ele>
        <time>2014-02-09T10:16:50.000Z</time>
      </trkpt>
      <trkpt lat="44.89274" lon="0.79456">
        <ele>125.59999847412</ele>
        <time>2014-02-09T10:16:59.000Z</time>
      </trkpt>
      <trkpt lat="44.89271" lon="0.79458">
        <ele>125.80000305176</ele>
        <time>2014-02-09T10:17:01.000Z</time>
      </trkpt>
      <trkpt lat="44.89262" lon="0.79469">
        <ele>126</ele>
        <time>2014-02-09T10:17:07.000Z</time>
      </trkpt>
      <trkpt lat="44.8926" lon="0.79471">
        <ele>126.19999694824</ele>
        <time>2014-02-09T10:17:08.000Z</time>
      </trkpt>
      <trkpt lat="44.89251" lon="0.79481">
        <ele>126.59999847412</ele>
        <time>2014-02-09T10:17:13.000Z</time>
      </trkpt>
      <trkpt lat="44.89239" lon="0.79494">
        <ele>126.19999694824</ele>
        <time>2014-02-09T10:17:19.000Z</time>
      </trkpt>
      <trkpt lat="44.89233" lon="0.79497">
        <ele>126.19999694824</ele>
        <time>2014-02-09T10:17:22.000Z</time>
      </trkpt>
      <trkpt lat="44.89228" lon="0.79506">
        <ele>125.59999847412</ele>
        <time>2014-02-09T10:17:26.000Z</time>
      </trkpt>
      <trkpt lat="44.89218" lon="0.79513">
        <ele>125.19999694824</ele>
        <time>2014-02-09T10:17:31.000Z</time>
      </trkpt>
      <trkpt lat="44.89209" lon="0.79513">
        <ele>126</ele>
        <time>2014-02-09T10:17:35.000Z</time>
      </trkpt>
      <trkpt lat="44.89197" lon="0.79501">
        <ele>128</ele>
        <time>2014-02-09T10:17:41.000Z</time>
      </trkpt>
      <trkpt lat="44.89185" lon="0.79498">
        <ele>129</ele>
        <time>2014-02-09T10:17:46.000Z</time>
      </trkpt>
      <trkpt lat="44.89175" lon="0.7949">
        <ele>130</ele>
        <time>2014-02-09T10:17:51.000Z</time>
      </trkpt>
      <trkpt lat="44.89173" lon="0.79488">
        <ele>130</ele>
        <time>2014-02-09T10:17:52.000Z</time>
      </trkpt>
      <trkpt lat="44.8917" lon="0.79479">
        <ele>130.60000610352</ele>
        <time>2014-02-09T10:17:56.000Z</time>
      </trkpt>
      <trkpt lat="44.89168" lon="0.79469">
        <ele>131</ele>
        <time>2014-02-09T10:18:00.000Z</time>
      </trkpt>
      <trkpt lat="44.89165" lon="0.79464">
        <ele>131.39999389648</ele>
        <time>2014-02-09T10:18:02.000Z</time>
      </trkpt>
      <trkpt lat="44.89151" lon="0.79453">
        <ele>133.19999694824</ele>
        <time>2014-02-09T10:18:09.000Z</time>
      </trkpt>
      <trkpt lat="44.89141" lon="0.79447">
        <ele>134.39999389648</ele>
        <time>2014-02-09T10:18:15.000Z</time>
      </trkpt>
      <trkpt lat="44.89127" lon="0.79456">
        <ele>135.60000610352</ele>
        <time>2014-02-09T10:18:21.000Z</time>
      </trkpt>
      <trkpt lat="44.89118" lon="0.79462">
        <ele>136.39999389648</ele>
        <time>2014-02-09T10:18:25.000Z</time>
      </trkpt>
      <trkpt lat="44.89105" lon="0.79479">
        <ele>137.19999694824</ele>
        <time>2014-02-09T10:18:32.000Z</time>
      </trkpt>
      <trkpt lat="44.89099" lon="0.79487">
        <ele>137.60000610352</ele>
        <time>2014-02-09T10:18:35.000Z</time>
      </trkpt>
      <trkpt lat="44.89092" lon="0.79496">
        <ele>138.19999694824</ele>
        <time>2014-02-09T10:18:40.000Z</time>
      </trkpt>
      <trkpt lat="44.89086" lon="0.79509">
        <ele>138.39999389648</ele>
        <time>2014-02-09T10:18:46.000Z</time>
      </trkpt>
      <trkpt lat="44.89082" lon="0.79522">
        <ele>138.60000610352</ele>
        <time>2014-02-09T10:18:51.000Z</time>
      </trkpt>
      <trkpt lat="44.89081" lon="0.79524">
        <ele>138.80000305176</ele>
        <time>2014-02-09T10:18:52.000Z</time>
      </trkpt>
      <trkpt lat="44.89072" lon="0.79544">
        <ele>139.80000305176</ele>
        <time>2014-02-09T10:18:59.000Z</time>
      </trkpt>
      <trkpt lat="44.8907" lon="0.79549">
        <ele>140.19999694824</ele>
        <time>2014-02-09T10:19:01.000Z</time>
      </trkpt>
      <trkpt lat="44.89062" lon="0.79566">
        <ele>140.80000305176</ele>
        <time>2014-02-09T10:19:07.000Z</time>
      </trkpt>
      <trkpt lat="44.89058" lon="0.79575">
        <ele>141</ele>
        <time>2014-02-09T10:19:10.000Z</time>
      </trkpt>
      <trkpt lat="44.89046" lon="0.79594">
        <ele>141.60000610352</ele>
        <time>2014-02-09T10:19:17.000Z</time>
      </trkpt>
      <trkpt lat="44.89037" lon="0.79609">
        <ele>141.60000610352</ele>
        <time>2014-02-09T10:19:23.000Z</time>
      </trkpt>
      <trkpt lat="44.89029" lon="0.79622">
        <ele>141.80000305176</ele>
        <time>2014-02-09T10:19:29.000Z</time>
      </trkpt>
      <trkpt lat="44.8902" lon="0.79631">
        <ele>142.19999694824</ele>
        <time>2014-02-09T10:19:33.000Z</time>
      </trkpt>
      <trkpt lat="44.89014" lon="0.7964">
        <ele>142.39999389648</ele>
        <time>2014-02-09T10:19:38.000Z</time>
      </trkpt>
      <trkpt lat="44.89004" lon="0.79651">
        <ele>142.80000305176</ele>
        <time>2014-02-09T10:19:44.000Z</time>
      </trkpt>
      <trkpt lat="44.88991" lon="0.79664">
        <ele>142.19999694824</ele>
        <time>2014-02-09T10:19:50.000Z</time>
      </trkpt>
      <trkpt lat="44.88983" lon="0.79676">
        <ele>141</ele>
        <time>2014-02-09T10:19:55.000Z</time>
      </trkpt>
      <trkpt lat="44.88977" lon="0.79682">
        <ele>140.60000610352</ele>
        <time>2014-02-09T10:19:58.000Z</time>
      </trkpt>
      <trkpt lat="44.88973" lon="0.79687">
        <ele>140</ele>
        <time>2014-02-09T10:20:00.000Z</time>
      </trkpt>
      <trkpt lat="44.8896" lon="0.79696">
        <ele>139.39999389648</ele>
        <time>2014-02-09T10:20:06.000Z</time>
      </trkpt>
      <trkpt lat="44.88947" lon="0.79697">
        <ele>139.39999389648</ele>
        <time>2014-02-09T10:20:11.000Z</time>
      </trkpt>
      <trkpt lat="44.88939" lon="0.79696">
        <ele>139.60000610352</ele>
        <time>2014-02-09T10:20:14.000Z</time>
      </trkpt>
      <trkpt lat="44.88924" lon="0.79709">
        <ele>138.80000305176</ele>
        <time>2014-02-09T10:20:21.000Z</time>
      </trkpt>
      <trkpt lat="44.88914" lon="0.7972">
        <ele>137.80000305176</ele>
        <time>2014-02-09T10:20:26.000Z</time>
      </trkpt>
      <trkpt lat="44.88904" lon="0.79725">
        <ele>136.19999694824</ele>
        <time>2014-02-09T10:20:30.000Z</time>
      </trkpt>
      <trkpt lat="44.88892" lon="0.79733">
        <ele>134.19999694824</ele>
        <time>2014-02-09T10:20:35.000Z</time>
      </trkpt>
      <trkpt lat="44.88876" lon="0.79727">
        <ele>132.60000610352</ele>
        <time>2014-02-09T10:20:41.000Z</time>
      </trkpt>
      <trkpt lat="44.8887" lon="0.79724">
        <ele>132</ele>
        <time>2014-02-09T10:20:43.000Z</time>
      </trkpt>
      <trkpt lat="44.88851" lon="0.79714">
        <ele>130</ele>
        <time>2014-02-09T10:20:49.000Z</time>
      </trkpt>
      <trkpt lat="44.8884" lon="0.79703">
        <ele>129.19999694824</ele>
        <time>2014-02-09T10:20:53.000Z</time>
      </trkpt>
      <trkpt lat="44.88826" lon="0.79686">
        <ele>128.60000610352</ele>
        <time>2014-02-09T10:20:58.000Z</time>
      </trkpt>
      <trkpt lat="44.8881" lon="0.7967">
        <ele>128.60000610352</ele>
        <time>2014-02-09T10:21:03.000Z</time>
      </trkpt>
      <trkpt lat="44.88795" lon="0.79663">
        <ele>128.80000305176</ele>
        <time>2014-02-09T10:21:07.000Z</time>
      </trkpt>
      <trkpt lat="44.88776" lon="0.79656">
        <ele>129</ele>
        <time>2014-02-09T10:21:12.000Z</time>
      </trkpt>
      <trkpt lat="44.88762" lon="0.79652">
        <ele>128.80000305176</ele>
        <time>2014-02-09T10:21:16.000Z</time>
      </trkpt>
      <trkpt lat="44.88747" lon="0.79652">
        <ele>128.60000610352</ele>
        <time>2014-02-09T10:21:20.000Z</time>
      </trkpt>
      <trkpt lat="44.88732" lon="0.79657">
        <ele>129.39999389648</ele>
        <time>2014-02-09T10:21:25.000Z</time>
      </trkpt>
      <trkpt lat="44.8873" lon="0.79658">
        <ele>129.39999389648</ele>
        <time>2014-02-09T10:21:26.000Z</time>
      </trkpt>
      <trkpt lat="44.88726" lon="0.7966">
        <ele>129.60000610352</ele>
        <time>2014-02-09T10:21:31.000Z</time>
      </trkpt>
      <trkpt lat="44.88722" lon="0.79658">
        <ele>130.39999389648</ele>
        <time>2014-02-09T10:21:36.000Z</time>
      </trkpt>
      <trkpt lat="44.88711" lon="0.79645">
        <ele>132.60000610352</ele>
        <time>2014-02-09T10:21:44.000Z</time>
      </trkpt>
      <trkpt lat="44.88706" lon="0.79638">
        <ele>133.60000610352</ele>
        <time>2014-02-09T10:21:48.000Z</time>
      </trkpt>
      <trkpt lat="44.88697" lon="0.79631">
        <ele>134.60000610352</ele>
        <time>2014-02-09T10:21:54.000Z</time>
      </trkpt>
      <trkpt lat="44.88696" lon="0.79629">
        <ele>134.80000305176</ele>
        <time>2014-02-09T10:21:55.000Z</time>
      </trkpt>
      <trkpt lat="44.88688" lon="0.79624">
        <ele>135.60000610352</ele>
        <time>2014-02-09T10:22:00.000Z</time>
      </trkpt>
      <trkpt lat="44.88677" lon="0.79617">
        <ele>136.19999694824</ele>
        <time>2014-02-09T10:22:06.000Z</time>
      </trkpt>
      <trkpt lat="44.88672" lon="0.79612">
        <ele>136.60000610352</ele>
        <time>2014-02-09T10:22:09.000Z</time>
      </trkpt>
      <trkpt lat="44.88659" lon="0.79606">
        <ele>137.39999389648</ele>
        <time>2014-02-09T10:22:15.000Z</time>
      </trkpt>
      <trkpt lat="44.88656" lon="0.79605">
        <ele>137.60000610352</ele>
        <time>2014-02-09T10:22:16.000Z</time>
      </trkpt>
      <trkpt lat="44.88651" lon="0.79595">
        <ele>138.19999694824</ele>
        <time>2014-02-09T10:22:20.000Z</time>
      </trkpt>
      <trkpt lat="44.8864" lon="0.7959">
        <ele>139.19999694824</ele>
        <time>2014-02-09T10:22:26.000Z</time>
      </trkpt>
      <trkpt lat="44.88631" lon="0.79595">
        <ele>139.80000305176</ele>
        <time>2014-02-09T10:22:33.000Z</time>
      </trkpt>
      <trkpt lat="44.88631" lon="0.79606">
        <ele>139.80000305176</ele>
        <time>2014-02-09T10:22:38.000Z</time>
      </trkpt>
      <trkpt lat="44.8863" lon="0.7962">
        <ele>139.60000610352</ele>
        <time>2014-02-09T10:22:43.000Z</time>
      </trkpt>
      <trkpt lat="44.88624" lon="0.7963">
        <ele>140</ele>
        <time>2014-02-09T10:22:48.000Z</time>
      </trkpt>
      <trkpt lat="44.88613" lon="0.79641">
        <ele>140.80000305176</ele>
        <time>2014-02-09T10:22:54.000Z</time>
      </trkpt>
      <trkpt lat="44.88604" lon="0.79645">
        <ele>141.60000610352</ele>
        <time>2014-02-09T10:22:59.000Z</time>
      </trkpt>
      <trkpt lat="44.88594" lon="0.7965">
        <ele>142.39999389648</ele>
        <time>2014-02-09T10:23:05.000Z</time>
      </trkpt>
      <trkpt lat="44.88591" lon="0.79651">
        <ele>142.60000610352</ele>
        <time>2014-02-09T10:23:06.000Z</time>
      </trkpt>
      <trkpt lat="44.88584" lon="0.79655">
        <ele>143</ele>
        <time>2014-02-09T10:23:10.000Z</time>
      </trkpt>
      <trkpt lat="44.88578" lon="0.79657">
        <ele>143.39999389648</ele>
        <time>2014-02-09T10:23:14.000Z</time>
      </trkpt>
      <trkpt lat="44.88574" lon="0.7966">
        <ele>143.60000610352</ele>
        <time>2014-02-09T10:23:18.000Z</time>
      </trkpt>
      <trkpt lat="44.88567" lon="0.79664">
        <ele>143.80000305176</ele>
        <time>2014-02-09T10:23:24.000Z</time>
      </trkpt>
      <trkpt lat="44.8856" lon="0.79667">
        <ele>144</ele>
        <time>2014-02-09T10:23:29.000Z</time>
      </trkpt>
      <trkpt lat="44.88557" lon="0.7967">
        <ele>144</ele>
        <time>2014-02-09T10:23:34.000Z</time>
      </trkpt>
      <trkpt lat="44.88553" lon="0.79668">
        <ele>144.39999389648</ele>
        <time>2014-02-09T10:23:45.000Z</time>
      </trkpt>
      <trkpt lat="44.88549" lon="0.7967">
        <ele>144.39999389648</ele>
        <time>2014-02-09T10:23:50.000Z</time>
      </trkpt>
      <trkpt lat="44.88547" lon="0.79676">
        <ele>144</ele>
        <time>2014-02-09T10:23:56.000Z</time>
      </trkpt>
      <trkpt lat="44.88542" lon="0.79681">
        <ele>144</ele>
        <time>2014-02-09T10:24:03.000Z</time>
      </trkpt>
      <trkpt lat="44.88537" lon="0.79681">
        <ele>144.19999694824</ele>
        <time>2014-02-09T10:24:09.000Z</time>
      </trkpt>
      <trkpt lat="44.88536" lon="0.7968">
        <ele>144.39999389648</ele>
        <time>2014-02-09T10:24:10.000Z</time>
      </trkpt>
      <trkpt lat="44.8853" lon="0.79677">
        <ele>144.80000305176</ele>
        <time>2014-02-09T10:24:16.000Z</time>
      </trkpt>
      <trkpt lat="44.88525" lon="0.79675">
        <ele>145.19999694824</ele>
        <time>2014-02-09T10:24:20.000Z</time>
      </trkpt>
      <trkpt lat="44.8852" lon="0.79673">
        <ele>145.60000610352</ele>
        <time>2014-02-09T10:24:25.000Z</time>
      </trkpt>
      <trkpt lat="44.88514" lon="0.79672">
        <ele>146</ele>
        <time>2014-02-09T10:24:31.000Z</time>
      </trkpt>
      <trkpt lat="44.88509" lon="0.79673">
        <ele>146</ele>
        <time>2014-02-09T10:24:37.000Z</time>
      </trkpt>
      <trkpt lat="44.88504" lon="0.79675">
        <ele>146.19999694824</ele>
        <time>2014-02-09T10:24:42.000Z</time>
      </trkpt>
      <trkpt lat="44.88496" lon="0.7968">
        <ele>146.39999389648</ele>
        <time>2014-02-09T10:24:49.000Z</time>
      </trkpt>
      <trkpt lat="44.88488" lon="0.79685">
        <ele>147</ele>
        <time>2014-02-09T10:24:56.000Z</time>
      </trkpt>
      <trkpt lat="44.88481" lon="0.79689">
        <ele>147.80000305176</ele>
        <time>2014-02-09T10:25:02.000Z</time>
      </trkpt>
      <trkpt lat="44.88474" lon="0.79694">
        <ele>148.39999389648</ele>
        <time>2014-02-09T10:25:09.000Z</time>
      </trkpt>
      <trkpt lat="44.88468" lon="0.79699">
        <ele>148.80000305176</ele>
        <time>2014-02-09T10:25:15.000Z</time>
      </trkpt>
      <trkpt lat="44.88464" lon="0.79703">
        <ele>149.19999694824</ele>
        <time>2014-02-09T10:25:18.000Z</time>
      </trkpt>
      <trkpt lat="44.88461" lon="0.7971">
        <ele>149.19999694824</ele>
        <time>2014-02-09T10:25:24.000Z</time>
      </trkpt>
      <trkpt lat="44.88457" lon="0.79715">
        <ele>149.39999389648</ele>
        <time>2014-02-09T10:25:30.000Z</time>
      </trkpt>
      <trkpt lat="44.88452" lon="0.79723">
        <ele>150</ele>
        <time>2014-02-09T10:25:35.000Z</time>
      </trkpt>
      <trkpt lat="44.88444" lon="0.79731">
        <ele>151</ele>
        <time>2014-02-09T10:25:40.000Z</time>
      </trkpt>
      <trkpt lat="44.88433" lon="0.79739">
        <ele>152.39999389648</ele>
        <time>2014-02-09T10:25:46.000Z</time>
      </trkpt>
      <trkpt lat="44.88421" lon="0.7975">
        <ele>154.19999694824</ele>
        <time>2014-02-09T10:25:53.000Z</time>
      </trkpt>
      <trkpt lat="44.88418" lon="0.79754">
        <ele>154.60000610352</ele>
        <time>2014-02-09T10:25:55.000Z</time>
      </trkpt>
      <trkpt lat="44.88407" lon="0.79761">
        <ele>155.19999694824</ele>
        <time>2014-02-09T10:26:01.000Z</time>
      </trkpt>
      <trkpt lat="44.88397" lon="0.7977">
        <ele>155.80000305176</ele>
        <time>2014-02-09T10:26:06.000Z</time>
      </trkpt>
      <trkpt lat="44.88383" lon="0.79782">
        <ele>156.60000610352</ele>
        <time>2014-02-09T10:26:13.000Z</time>
      </trkpt>
      <trkpt lat="44.88374" lon="0.79795">
        <ele>156.60000610352</ele>
        <time>2014-02-09T10:26:18.000Z</time>
      </trkpt>
      <trkpt lat="44.88367" lon="0.79805">
        <ele>156.60000610352</ele>
        <time>2014-02-09T10:26:23.000Z</time>
      </trkpt>
      <trkpt lat="44.88358" lon="0.79818">
        <ele>156.60000610352</ele>
        <time>2014-02-09T10:26:28.000Z</time>
      </trkpt>
      <trkpt lat="44.88347" lon="0.79824">
        <ele>157.19999694824</ele>
        <time>2014-02-09T10:26:33.000Z</time>
      </trkpt>
      <trkpt lat="44.88338" lon="0.79826">
        <ele>158.19999694824</ele>
        <time>2014-02-09T10:26:37.000Z</time>
      </trkpt>
      <trkpt lat="44.88324" lon="0.79828">
        <ele>157.80000305176</ele>
        <time>2014-02-09T10:26:43.000Z</time>
      </trkpt>
      <trkpt lat="44.88311" lon="0.79823">
        <ele>157.39999389648</ele>
        <time>2014-02-09T10:26:49.000Z</time>
      </trkpt>
      <trkpt lat="44.88299" lon="0.79813">
        <ele>157.19999694824</ele>
        <time>2014-02-09T10:26:55.000Z</time>
      </trkpt>
      <trkpt lat="44.88289" lon="0.79809">
        <ele>156.80000305176</ele>
        <time>2014-02-09T10:27:00.000Z</time>
      </trkpt>
      <trkpt lat="44.88273" lon="0.7981">
        <ele>155.60000610352</ele>
        <time>2014-02-09T10:27:06.000Z</time>
      </trkpt>
      <trkpt lat="44.88263" lon="0.79813">
        <ele>154.60000610352</ele>
        <time>2014-02-09T10:27:10.000Z</time>
      </trkpt>
      <trkpt lat="44.88247" lon="0.7982">
        <ele>153.19999694824</ele>
        <time>2014-02-09T10:27:15.000Z</time>
      </trkpt>
      <trkpt lat="44.88231" lon="0.79824">
        <ele>151.80000305176</ele>
        <time>2014-02-09T10:27:21.000Z</time>
      </trkpt>
      <trkpt lat="44.88224" lon="0.79826">
        <ele>151.19999694824</ele>
        <time>2014-02-09T10:27:24.000Z</time>
      </trkpt>
      <trkpt lat="44.88206" lon="0.79825">
        <ele>149.60000610352</ele>
        <time>2014-02-09T10:27:31.000Z</time>
      </trkpt>
      <trkpt lat="44.88192" lon="0.79823">
        <ele>148.60000610352</ele>
        <time>2014-02-09T10:27:36.000Z</time>
      </trkpt>
      <trkpt lat="44.88185" lon="0.7982">
        <ele>148.19999694824</ele>
        <time>2014-02-09T10:27:39.000Z</time>
      </trkpt>
      <trkpt lat="44.8818" lon="0.79817">
        <ele>148</ele>
        <time>2014-02-09T10:27:41.000Z</time>
      </trkpt>
      <trkpt lat="44.88169" lon="0.7981">
        <ele>147.60000610352</ele>
        <time>2014-02-09T10:27:46.000Z</time>
      </trkpt>
      <trkpt lat="44.88157" lon="0.79805">
        <ele>145.80000305176</ele>
        <time>2014-02-09T10:27:50.000Z</time>
      </trkpt>
      <trkpt lat="44.88142" lon="0.79797">
        <ele>143.80000305176</ele>
        <time>2014-02-09T10:27:55.000Z</time>
      </trkpt>
      <trkpt lat="44.88126" lon="0.7979">
        <ele>142.19999694824</ele>
        <time>2014-02-09T10:28:00.000Z</time>
      </trkpt>
      <trkpt lat="44.88108" lon="0.79781">
        <ele>141.60000610352</ele>
        <time>2014-02-09T10:28:06.000Z</time>
      </trkpt>
      <trkpt lat="44.88097" lon="0.79772">
        <ele>142.60000610352</ele>
        <time>2014-02-09T10:28:11.000Z</time>
      </trkpt>
      <trkpt lat="44.88081" lon="0.79762">
        <ele>143.80000305176</ele>
        <time>2014-02-09T10:28:17.000Z</time>
      </trkpt>
      <trkpt lat="44.88067" lon="0.79753">
        <ele>144.60000610352</ele>
        <time>2014-02-09T10:28:22.000Z</time>
      </trkpt>
      <trkpt lat="44.88054" lon="0.79744">
        <ele>143.80000305176</ele>
        <time>2014-02-09T10:28:27.000Z</time>
      </trkpt>
      <trkpt lat="44.88037" lon="0.79733">
        <ele>142</ele>
        <time>2014-02-09T10:28:33.000Z</time>
      </trkpt>
      <trkpt lat="44.88025" lon="0.79726">
        <ele>141.19999694824</ele>
        <time>2014-02-09T10:28:38.000Z</time>
      </trkpt>
      <trkpt lat="44.88008" lon="0.79718">
        <ele>140.39999389648</ele>
        <time>2014-02-09T10:28:45.000Z</time>
      </trkpt>
      <trkpt lat="44.87998" lon="0.79712">
        <ele>140.19999694824</ele>
        <time>2014-02-09T10:28:49.000Z</time>
      </trkpt>
      <trkpt lat="44.87985" lon="0.79706">
        <ele>139.60000610352</ele>
        <time>2014-02-09T10:28:54.000Z</time>
      </trkpt>
      <trkpt lat="44.87976" lon="0.797">
        <ele>139.80000305176</ele>
        <time>2014-02-09T10:28:58.000Z</time>
      </trkpt>
      <trkpt lat="44.87959" lon="0.79692">
        <ele>140.39999389648</ele>
        <time>2014-02-09T10:29:05.000Z</time>
      </trkpt>
      <trkpt lat="44.87945" lon="0.79682">
        <ele>142.80000305176</ele>
        <time>2014-02-09T10:29:11.000Z</time>
      </trkpt>
      <trkpt lat="44.87935" lon="0.79669">
        <ele>147.39999389648</ele>
        <time>2014-02-09T10:29:16.000Z</time>
      </trkpt>
      <trkpt lat="44.87926" lon="0.79654">
        <ele>148.80000305176</ele>
        <time>2014-02-09T10:29:22.000Z</time>
      </trkpt>
      <trkpt lat="44.87918" lon="0.7964">
        <ele>149.60000610352</ele>
        <time>2014-02-09T10:29:27.000Z</time>
      </trkpt>
      <trkpt lat="44.87904" lon="0.79629">
        <ele>149.19999694824</ele>
        <time>2014-02-09T10:29:33.000Z</time>
      </trkpt>
      <trkpt lat="44.8789" lon="0.79623">
        <ele>148.60000610352</ele>
        <time>2014-02-09T10:29:39.000Z</time>
      </trkpt>
      <trkpt lat="44.87875" lon="0.79621">
        <ele>148.19999694824</ele>
        <time>2014-02-09T10:29:45.000Z</time>
      </trkpt>
      <trkpt lat="44.87862" lon="0.79619">
        <ele>147.60000610352</ele>
        <time>2014-02-09T10:29:50.000Z</time>
      </trkpt>
      <trkpt lat="44.87852" lon="0.79616">
        <ele>147.39999389648</ele>
        <time>2014-02-09T10:29:54.000Z</time>
      </trkpt>
      <trkpt lat="44.87835" lon="0.7961">
        <ele>147.60000610352</ele>
        <time>2014-02-09T10:30:01.000Z</time>
      </trkpt>
      <trkpt lat="44.87822" lon="0.79608">
        <ele>146.39999389648</ele>
        <time>2014-02-09T10:30:06.000Z</time>
      </trkpt>
      <trkpt lat="44.8781" lon="0.79606">
        <ele>145.19999694824</ele>
        <time>2014-02-09T10:30:11.000Z</time>
      </trkpt>
      <trkpt lat="44.87799" lon="0.79605">
        <ele>144.19999694824</ele>
        <time>2014-02-09T10:30:16.000Z</time>
      </trkpt>
      <trkpt lat="44.87796" lon="0.79605">
        <ele>144</ele>
        <time>2014-02-09T10:30:21.000Z</time>
      </trkpt>
      <trkpt lat="44.87791" lon="0.79604">
        <ele>143.39999389648</ele>
        <time>2014-02-09T10:30:27.000Z</time>
      </trkpt>
      <trkpt lat="44.87786" lon="0.79603">
        <ele>143.19999694824</ele>
        <time>2014-02-09T10:30:33.000Z</time>
      </trkpt>
      <trkpt lat="44.87782" lon="0.79602">
        <ele>143</ele>
        <time>2014-02-09T10:30:39.000Z</time>
      </trkpt>
      <trkpt lat="44.87776" lon="0.79603">
        <ele>142.19999694824</ele>
        <time>2014-02-09T10:30:45.000Z</time>
      </trkpt>
      <trkpt lat="44.8777" lon="0.79601">
        <ele>142.19999694824</ele>
        <time>2014-02-09T10:30:51.000Z</time>
      </trkpt>
      <trkpt lat="44.87758" lon="0.79597">
        <ele>142.19999694824</ele>
        <time>2014-02-09T10:30:59.000Z</time>
      </trkpt>
      <trkpt lat="44.87747" lon="0.79592">
        <ele>142.80000305176</ele>
        <time>2014-02-09T10:31:07.000Z</time>
      </trkpt>
      <trkpt lat="44.87742" lon="0.7959">
        <ele>143.19999694824</ele>
        <time>2014-02-09T10:31:11.000Z</time>
      </trkpt>
      <trkpt lat="44.87736" lon="0.79587">
        <ele>143.80000305176</ele>
        <time>2014-02-09T10:31:16.000Z</time>
      </trkpt>
      <trkpt lat="44.87733" lon="0.79587">
        <ele>144</ele>
        <time>2014-02-09T10:31:18.000Z</time>
      </trkpt>
      <trkpt lat="44.8773" lon="0.79585">
        <ele>144.39999389648</ele>
        <time>2014-02-09T10:31:25.000Z</time>
      </trkpt>
      <trkpt lat="44.8773" lon="0.79585">
        <ele>144.19999694824</ele>
        <time>2014-02-09T10:31:34.000Z</time>
      </trkpt>
      <trkpt lat="44.8773" lon="0.79585">
        <ele>144.39999389648</ele>
        <time>2014-02-09T10:31:43.000Z</time>
      </trkpt>
      <trkpt lat="44.87727" lon="0.79584">
        <ele>144.39999389648</ele>
        <time>2014-02-09T10:31:48.000Z</time>
      </trkpt>
      <trkpt lat="44.87726" lon="0.79584">
        <ele>144.60000610352</ele>
        <time>2014-02-09T10:31:49.000Z</time>
      </trkpt>
      <trkpt lat="44.87714" lon="0.79582">
        <ele>144.39999389648</ele>
        <time>2014-02-09T10:31:58.000Z</time>
      </trkpt>
      <trkpt lat="44.87704" lon="0.79579">
        <ele>144</ele>
        <time>2014-02-09T10:32:02.000Z</time>
      </trkpt>
      <trkpt lat="44.87683" lon="0.79577">
        <ele>143.19999694824</ele>
        <time>2014-02-09T10:32:08.000Z</time>
      </trkpt>
      <trkpt lat="44.87668" lon="0.79574">
        <ele>142.80000305176</ele>
        <time>2014-02-09T10:32:12.000Z</time>
      </trkpt>
      <trkpt lat="44.87648" lon="0.7957">
        <ele>142.39999389648</ele>
        <time>2014-02-09T10:32:17.000Z</time>
      </trkpt>
      <trkpt lat="44.87629" lon="0.7957">
        <ele>141.80000305176</ele>
        <time>2014-02-09T10:32:22.000Z</time>
      </trkpt>
      <trkpt lat="44.87611" lon="0.79566">
        <ele>141.39999389648</ele>
        <time>2014-02-09T10:32:27.000Z</time>
      </trkpt>
      <trkpt lat="44.87594" lon="0.79563">
        <ele>141</ele>
        <time>2014-02-09T10:32:31.000Z</time>
      </trkpt>
      <trkpt lat="44.87578" lon="0.79559">
        <ele>140.60000610352</ele>
        <time>2014-02-09T10:32:35.000Z</time>
      </trkpt>
      <trkpt lat="44.8757" lon="0.79558">
        <ele>140</ele>
        <time>2014-02-09T10:32:37.000Z</time>
      </trkpt>
      <trkpt lat="44.87553" lon="0.79555">
        <ele>138.80000305176</ele>
        <time>2014-02-09T10:32:41.000Z</time>
      </trkpt>
      <trkpt lat="44.87541" lon="0.79552">
        <ele>138</ele>
        <time>2014-02-09T10:32:44.000Z</time>
      </trkpt>
      <trkpt lat="44.87533" lon="0.79551">
        <ele>137.39999389648</ele>
        <time>2014-02-09T10:32:46.000Z</time>
      </trkpt>
      <trkpt lat="44.87524" lon="0.79552">
        <ele>136.39999389648</ele>
        <time>2014-02-09T10:32:48.000Z</time>
      </trkpt>
      <trkpt lat="44.87507" lon="0.79556">
        <ele>134.60000610352</ele>
        <time>2014-02-09T10:32:52.000Z</time>
      </trkpt>
      <trkpt lat="44.87485" lon="0.79562">
        <ele>132.19999694824</ele>
        <time>2014-02-09T10:32:58.000Z</time>
      </trkpt>
      <trkpt lat="44.87475" lon="0.79565">
        <ele>131.39999389648</ele>
        <time>2014-02-09T10:33:01.000Z</time>
      </trkpt>
      <trkpt lat="44.8745" lon="0.79566">
        <ele>129.80000305176</ele>
        <time>2014-02-09T10:33:07.000Z</time>
      </trkpt>
      <trkpt lat="44.87431" lon="0.79568">
        <ele>128.60000610352</ele>
        <time>2014-02-09T10:33:12.000Z</time>
      </trkpt>
      <trkpt lat="44.87409" lon="0.79573">
        <ele>127</ele>
        <time>2014-02-09T10:33:18.000Z</time>
      </trkpt>
      <trkpt lat="44.87393" lon="0.79575">
        <ele>126.19999694824</ele>
        <time>2014-02-09T10:33:22.000Z</time>
      </trkpt>
      <trkpt lat="44.87379" lon="0.79576">
        <ele>125.59999847412</ele>
        <time>2014-02-09T10:33:26.000Z</time>
      </trkpt>
      <trkpt lat="44.87363" lon="0.79579">
        <ele>125</ele>
        <time>2014-02-09T10:33:30.000Z</time>
      </trkpt>
      <trkpt lat="44.87345" lon="0.79581">
        <ele>124.40000152588</ele>
        <time>2014-02-09T10:33:35.000Z</time>
      </trkpt>
      <trkpt lat="44.87327" lon="0.79588">
        <ele>121.80000305176</ele>
        <time>2014-02-09T10:33:40.000Z</time>
      </trkpt>
      <trkpt lat="44.87323" lon="0.7959">
        <ele>121</ele>
        <time>2014-02-09T10:33:41.000Z</time>
      </trkpt>
      <trkpt lat="44.87307" lon="0.79591">
        <ele>120.59999847412</ele>
        <time>2014-02-09T10:33:45.000Z</time>
      </trkpt>
      <trkpt lat="44.87293" lon="0.79595">
        <ele>119</ele>
        <time>2014-02-09T10:33:49.000Z</time>
      </trkpt>
      <trkpt lat="44.87289" lon="0.79597">
        <ele>118.40000152588</ele>
        <time>2014-02-09T10:33:50.000Z</time>
      </trkpt>
      <trkpt lat="44.87268" lon="0.79601">
        <ele>117.19999694824</ele>
        <time>2014-02-09T10:33:56.000Z</time>
      </trkpt>
      <trkpt lat="44.87252" lon="0.79601">
        <ele>117.40000152588</ele>
        <time>2014-02-09T10:34:01.000Z</time>
      </trkpt>
      <trkpt lat="44.8724" lon="0.796">
        <ele>118</ele>
        <time>2014-02-09T10:34:06.000Z</time>
      </trkpt>
      <trkpt lat="44.87228" lon="0.79596">
        <ele>119.40000152588</ele>
        <time>2014-02-09T10:34:11.000Z</time>
      </trkpt>
      <trkpt lat="44.87214" lon="0.79595">
        <ele>120.19999694824</ele>
        <time>2014-02-09T10:34:15.000Z</time>
      </trkpt>
      <trkpt lat="44.872" lon="0.79591">
        <ele>121.40000152588</ele>
        <time>2014-02-09T10:34:20.000Z</time>
      </trkpt>
      <trkpt lat="44.87195" lon="0.7959">
        <ele>121.59999847412</ele>
        <time>2014-02-09T10:34:23.000Z</time>
      </trkpt>
      <trkpt lat="44.87182" lon="0.79589">
        <ele>122.19999694824</ele>
        <time>2014-02-09T10:34:28.000Z</time>
      </trkpt>
      <trkpt lat="44.87169" lon="0.79588">
        <ele>122.80000305176</ele>
        <time>2014-02-09T10:34:33.000Z</time>
      </trkpt>
      <trkpt lat="44.87157" lon="0.7959">
        <ele>122.59999847412</ele>
        <time>2014-02-09T10:34:37.000Z</time>
      </trkpt>
      <trkpt lat="44.87136" lon="0.79588">
        <ele>124</ele>
        <time>2014-02-09T10:34:43.000Z</time>
      </trkpt>
      <trkpt lat="44.87121" lon="0.79586">
        <ele>125.40000152588</ele>
        <time>2014-02-09T10:34:48.000Z</time>
      </trkpt>
      <trkpt lat="44.87104" lon="0.79588">
        <ele>125.40000152588</ele>
        <time>2014-02-09T10:34:54.000Z</time>
      </trkpt>
      <trkpt lat="44.87091" lon="0.79589">
        <ele>125.80000305176</ele>
        <time>2014-02-09T10:34:59.000Z</time>
      </trkpt>
      <trkpt lat="44.87072" lon="0.79592">
        <ele>125.80000305176</ele>
        <time>2014-02-09T10:35:05.000Z</time>
      </trkpt>
      <trkpt lat="44.87057" lon="0.79597">
        <ele>124.80000305176</ele>
        <time>2014-02-09T10:35:10.000Z</time>
      </trkpt>
      <trkpt lat="44.87043" lon="0.79603">
        <ele>124</ele>
        <time>2014-02-09T10:35:15.000Z</time>
      </trkpt>
      <trkpt lat="44.87024" lon="0.79609">
        <ele>123.80000305176</ele>
        <time>2014-02-09T10:35:21.000Z</time>
      </trkpt>
      <trkpt lat="44.87007" lon="0.79615">
        <ele>123.59999847412</ele>
        <time>2014-02-09T10:35:26.000Z</time>
      </trkpt>
      <trkpt lat="44.86997" lon="0.79619">
        <ele>123.40000152588</ele>
        <time>2014-02-09T10:35:29.000Z</time>
      </trkpt>
      <trkpt lat="44.86981" lon="0.79622">
        <ele>123</ele>
        <time>2014-02-09T10:35:34.000Z</time>
      </trkpt>
      <trkpt lat="44.86962" lon="0.79629">
        <ele>122.19999694824</ele>
        <time>2014-02-09T10:35:39.000Z</time>
      </trkpt>
      <trkpt lat="44.86946" lon="0.79634">
        <ele>122</ele>
        <time>2014-02-09T10:35:44.000Z</time>
      </trkpt>
      <trkpt lat="44.86932" lon="0.79639">
        <ele>122</ele>
        <time>2014-02-09T10:35:48.000Z</time>
      </trkpt>
      <trkpt lat="44.86916" lon="0.79643">
        <ele>122.19999694824</ele>
        <time>2014-02-09T10:35:53.000Z</time>
      </trkpt>
      <trkpt lat="44.86897" lon="0.79648">
        <ele>122.40000152588</ele>
        <time>2014-02-09T10:35:58.000Z</time>
      </trkpt>
      <trkpt lat="44.86879" lon="0.79655">
        <ele>122.19999694824</ele>
        <time>2014-02-09T10:36:03.000Z</time>
      </trkpt>
      <trkpt lat="44.86876" lon="0.79657">
        <ele>122.19999694824</ele>
        <time>2014-02-09T10:36:04.000Z</time>
      </trkpt>
      <trkpt lat="44.86856" lon="0.79658">
        <ele>122.80000305176</ele>
        <time>2014-02-09T10:36:10.000Z</time>
      </trkpt>
      <trkpt lat="44.86838" lon="0.79667">
        <ele>122.80000305176</ele>
        <time>2014-02-09T10:36:16.000Z</time>
      </trkpt>
      <trkpt lat="44.86821" lon="0.79673">
        <ele>118.59999847412</ele>
        <time>2014-02-09T10:36:21.000Z</time>
      </trkpt>
      <trkpt lat="44.86802" lon="0.79676">
        <ele>115.59999847412</ele>
        <time>2014-02-09T10:36:26.000Z</time>
      </trkpt>
      <trkpt lat="44.86798" lon="0.79675">
        <ele>115.59999847412</ele>
        <time>2014-02-09T10:36:27.000Z</time>
      </trkpt>
      <trkpt lat="44.86778" lon="0.79676">
        <ele>113.59999847412</ele>
        <time>2014-02-09T10:36:33.000Z</time>
      </trkpt>
      <trkpt lat="44.86761" lon="0.7967">
        <ele>114.59999847412</ele>
        <time>2014-02-09T10:36:38.000Z</time>
      </trkpt>
      <trkpt lat="44.86754" lon="0.79662">
        <ele>115.80000305176</ele>
        <time>2014-02-09T10:36:41.000Z</time>
      </trkpt>
      <trkpt lat="44.86749" lon="0.79642">
        <ele>117</ele>
        <time>2014-02-09T10:36:47.000Z</time>
      </trkpt>
      <trkpt lat="44.86742" lon="0.7963">
        <ele>117.19999694824</ele>
        <time>2014-02-09T10:36:51.000Z</time>
      </trkpt>
      <trkpt lat="44.86726" lon="0.79606">
        <ele>117.80000305176</ele>
        <time>2014-02-09T10:36:58.000Z</time>
      </trkpt>
      <trkpt lat="44.86717" lon="0.7959">
        <ele>118.59999847412</ele>
        <time>2014-02-09T10:37:02.000Z</time>
      </trkpt>
      <trkpt lat="44.86705" lon="0.79577">
        <ele>118</ele>
        <time>2014-02-09T10:37:06.000Z</time>
      </trkpt>
      <trkpt lat="44.8669" lon="0.79561">
        <ele>115.80000305176</ele>
        <time>2014-02-09T10:37:11.000Z</time>
      </trkpt>
      <trkpt lat="44.86673" lon="0.79548">
        <ele>113.80000305176</ele>
        <time>2014-02-09T10:37:16.000Z</time>
      </trkpt>
      <trkpt lat="44.86655" lon="0.79545">
        <ele>111.80000305176</ele>
        <time>2014-02-09T10:37:21.000Z</time>
      </trkpt>
      <trkpt lat="44.86636" lon="0.79545">
        <ele>109.19999694824</ele>
        <time>2014-02-09T10:37:26.000Z</time>
      </trkpt>
      <trkpt lat="44.86617" lon="0.79543">
        <ele>106.80000305176</ele>
        <time>2014-02-09T10:37:31.000Z</time>
      </trkpt>
      <trkpt lat="44.86598" lon="0.79544">
        <ele>104.40000152588</ele>
        <time>2014-02-09T10:37:36.000Z</time>
      </trkpt>
      <trkpt lat="44.86575" lon="0.79542">
        <ele>99.400001525879</ele>
        <time>2014-02-09T10:37:42.000Z</time>
      </trkpt>
      <trkpt lat="44.8656" lon="0.79542">
        <ele>94.199996948242</ele>
        <time>2014-02-09T10:37:46.000Z</time>
      </trkpt>
      <trkpt lat="44.8655" lon="0.7954">
        <ele>90.800003051758</ele>
        <time>2014-02-09T10:37:49.000Z</time>
      </trkpt>
      <trkpt lat="44.86558" lon="0.79521">
        <ele>92.599998474121</ele>
        <time>2014-02-09T10:37:53.000Z</time>
      </trkpt>
      <trkpt lat="44.86578" lon="0.79489">
        <ele>96.199996948242</ele>
        <time>2014-02-09T10:38:00.000Z</time>
      </trkpt>
      <trkpt lat="44.86591" lon="0.79472">
        <ele>95.800003051758</ele>
        <time>2014-02-09T10:38:04.000Z</time>
      </trkpt>
      <trkpt lat="44.86598" lon="0.79461">
        <ele>94.800003051758</ele>
        <time>2014-02-09T10:38:07.000Z</time>
      </trkpt>
      <trkpt lat="44.86605" lon="0.79449">
        <ele>94</ele>
        <time>2014-02-09T10:38:10.000Z</time>
      </trkpt>
      <trkpt lat="44.86619" lon="0.79424">
        <ele>92</ele>
        <time>2014-02-09T10:38:16.000Z</time>
      </trkpt>
      <trkpt lat="44.86636" lon="0.79405">
        <ele>91.199996948242</ele>
        <time>2014-02-09T10:38:22.000Z</time>
      </trkpt>
      <trkpt lat="44.86648" lon="0.79392">
        <ele>90.199996948242</ele>
        <time>2014-02-09T10:38:26.000Z</time>
      </trkpt>
      <trkpt lat="44.86665" lon="0.79384">
        <ele>91.400001525879</ele>
        <time>2014-02-09T10:38:31.000Z</time>
      </trkpt>
      <trkpt lat="44.8668" lon="0.79378">
        <ele>91.599998474121</ele>
        <time>2014-02-09T10:38:36.000Z</time>
      </trkpt>
      <trkpt lat="44.86674" lon="0.7937">
        <ele>89</ele>
        <time>2014-02-09T10:38:41.000Z</time>
      </trkpt>
      <trkpt lat="44.86666" lon="0.79371">
        <ele>88.400001525879</ele>
        <time>2014-02-09T10:38:43.000Z</time>
      </trkpt>
      <trkpt lat="44.86643" lon="0.79369">
        <ele>83.599998474121</ele>
        <time>2014-02-09T10:38:49.000Z</time>
      </trkpt>
      <trkpt lat="44.86628" lon="0.79373">
        <ele>82</ele>
        <time>2014-02-09T10:38:53.000Z</time>
      </trkpt>
      <trkpt lat="44.86607" lon="0.79384">
        <ele>80.599998474121</ele>
        <time>2014-02-09T10:38:59.000Z</time>
      </trkpt>
      <trkpt lat="44.8659" lon="0.79399">
        <ele>81</ele>
        <time>2014-02-09T10:39:04.000Z</time>
      </trkpt>
      <trkpt lat="44.86579" lon="0.79408">
        <ele>80.800003051758</ele>
        <time>2014-02-09T10:39:07.000Z</time>
      </trkpt>
      <trkpt lat="44.86565" lon="0.79423">
        <ele>80</ele>
        <time>2014-02-09T10:39:11.000Z</time>
      </trkpt>
      <trkpt lat="44.8655" lon="0.79439">
        <ele>78.199996948242</ele>
        <time>2014-02-09T10:39:16.000Z</time>
      </trkpt>
      <trkpt lat="44.86537" lon="0.79453">
        <ele>76.599998474121</ele>
        <time>2014-02-09T10:39:20.000Z</time>
      </trkpt>
      <trkpt lat="44.86522" lon="0.79474">
        <ele>75.199996948242</ele>
        <time>2014-02-09T10:39:25.000Z</time>
      </trkpt>
      <trkpt lat="44.86509" lon="0.79488">
        <ele>73.199996948242</ele>
        <time>2014-02-09T10:39:29.000Z</time>
      </trkpt>
      <trkpt lat="44.86491" lon="0.79511">
        <ele>70.199996948242</ele>
        <time>2014-02-09T10:39:35.000Z</time>
      </trkpt>
      <trkpt lat="44.86483" lon="0.79524">
        <ele>68.599998474121</ele>
        <time>2014-02-09T10:39:38.000Z</time>
      </trkpt>
      <trkpt lat="44.86474" lon="0.79537">
        <ele>66.599998474121</ele>
        <time>2014-02-09T10:39:41.000Z</time>
      </trkpt>
      <trkpt lat="44.86465" lon="0.79562">
        <ele>64.800003051758</ele>
        <time>2014-02-09T10:39:46.000Z</time>
      </trkpt>
      <trkpt lat="44.86469" lon="0.79589">
        <ele>65.199996948242</ele>
        <time>2014-02-09T10:39:50.000Z</time>
      </trkpt>
      <trkpt lat="44.86474" lon="0.79613">
        <ele>63.799999237061</ele>
        <time>2014-02-09T10:39:54.000Z</time>
      </trkpt>
      <trkpt lat="44.86483" lon="0.79633">
        <ele>63.200000762939</ele>
        <time>2014-02-09T10:39:58.000Z</time>
      </trkpt>
      <trkpt lat="44.8649" lon="0.79647">
        <ele>62.799999237061</ele>
        <time>2014-02-09T10:40:01.000Z</time>
      </trkpt>
      <trkpt lat="44.86501" lon="0.79662">
        <ele>63</ele>
        <time>2014-02-09T10:40:05.000Z</time>
      </trkpt>
      <trkpt lat="44.86526" lon="0.79683">
        <ele>65.800003051758</ele>
        <time>2014-02-09T10:40:13.000Z</time>
      </trkpt>
      <trkpt lat="44.86546" lon="0.79703">
        <ele>65.199996948242</ele>
        <time>2014-02-09T10:40:19.000Z</time>
      </trkpt>
      <trkpt lat="44.86559" lon="0.79718">
        <ele>63.200000762939</ele>
        <time>2014-02-09T10:40:23.000Z</time>
      </trkpt>
      <trkpt lat="44.86575" lon="0.79737">
        <ele>58.799999237061</ele>
        <time>2014-02-09T10:40:28.000Z</time>
      </trkpt>
      <trkpt lat="44.86577" lon="0.79759">
        <ele>53.599998474121</ele>
        <time>2014-02-09T10:40:32.000Z</time>
      </trkpt>
      <trkpt lat="44.86572" lon="0.79774">
        <ele>51.799999237061</ele>
        <time>2014-02-09T10:40:35.000Z</time>
      </trkpt>
      <trkpt lat="44.86569" lon="0.79784">
        <ele>50.799999237061</ele>
        <time>2014-02-09T10:40:37.000Z</time>
      </trkpt>
      <trkpt lat="44.86561" lon="0.79797">
        <ele>49.599998474121</ele>
        <time>2014-02-09T10:40:40.000Z</time>
      </trkpt>
      <trkpt lat="44.86548" lon="0.79814">
        <ele>48.200000762939</ele>
        <time>2014-02-09T10:40:45.000Z</time>
      </trkpt>
      <trkpt lat="44.86545" lon="0.7982">
        <ele>47.799999237061</ele>
        <time>2014-02-09T10:40:49.000Z</time>
      </trkpt>
      <trkpt lat="44.86543" lon="0.79826">
        <ele>47.400001525879</ele>
        <time>2014-02-09T10:40:55.000Z</time>
      </trkpt>
      <trkpt lat="44.86535" lon="0.7983">
        <ele>47.400001525879</ele>
        <time>2014-02-09T10:41:00.000Z</time>
      </trkpt>
      <trkpt lat="44.86524" lon="0.79831">
        <ele>47.599998474121</ele>
        <time>2014-02-09T10:41:04.000Z</time>
      </trkpt>
      <trkpt lat="44.86509" lon="0.79831">
        <ele>47.799999237061</ele>
        <time>2014-02-09T10:41:10.000Z</time>
      </trkpt>
      <trkpt lat="44.86492" lon="0.79825">
        <ele>48</ele>
        <time>2014-02-09T10:41:17.000Z</time>
      </trkpt>
      <trkpt lat="44.86487" lon="0.79822">
        <ele>48.200000762939</ele>
        <time>2014-02-09T10:41:19.000Z</time>
      </trkpt>
      <trkpt lat="44.8648" lon="0.79813">
        <ele>48.200000762939</ele>
        <time>2014-02-09T10:41:23.000Z</time>
      </trkpt>
      <trkpt lat="44.86478" lon="0.79804">
        <ele>48.200000762939</ele>
        <time>2014-02-09T10:41:26.000Z</time>
      </trkpt>
      <trkpt lat="44.86473" lon="0.79798">
        <ele>48.200000762939</ele>
        <time>2014-02-09T10:41:31.000Z</time>
      </trkpt>
      <trkpt lat="44.86471" lon="0.79795">
        <ele>48.200000762939</ele>
        <time>2014-02-09T10:41:33.000Z</time>
      </trkpt>
      <trkpt lat="44.86468" lon="0.79789">
        <ele>48.400001525879</ele>
        <time>2014-02-09T10:41:37.000Z</time>
      </trkpt>
      <trkpt lat="44.86464" lon="0.79776">
        <ele>48.400001525879</ele>
        <time>2014-02-09T10:41:45.000Z</time>
      </trkpt>
      <trkpt lat="44.86462" lon="0.79772">
        <ele>48.400001525879</ele>
        <time>2014-02-09T10:41:48.000Z</time>
      </trkpt>
      <trkpt lat="44.8646" lon="0.7976">
        <ele>48.400001525879</ele>
        <time>2014-02-09T10:41:56.000Z</time>
      </trkpt>
      <trkpt lat="44.86457" lon="0.7975">
        <ele>48.599998474121</ele>
        <time>2014-02-09T10:42:03.000Z</time>
      </trkpt>
      <trkpt lat="44.86454" lon="0.79744">
        <ele>48.799999237061</ele>
        <time>2014-02-09T10:42:12.000Z</time>
      </trkpt>
      <trkpt lat="44.86456" lon="0.79744">
        <ele>49</ele>
        <time>2014-02-09T10:42:20.000Z</time>
      </trkpt>
      <trkpt lat="44.86456" lon="0.79741">
        <ele>49.200000762939</ele>
        <time>2014-02-09T10:42:26.000Z</time>
      </trkpt>
      <trkpt lat="44.86458" lon="0.79739">
        <ele>49.400001525879</ele>
        <time>2014-02-09T10:42:32.000Z</time>
      </trkpt>
      <trkpt lat="44.86459" lon="0.79739">
        <ele>49.400001525879</ele>
        <time>2014-02-09T10:42:38.000Z</time>
      </trkpt>
      <trkpt lat="44.86459" lon="0.79739">
        <ele>49.400001525879</ele>
        <time>2014-02-09T10:42:46.000Z</time>
      </trkpt>
      <trkpt lat="44.86458" lon="0.79739">
        <ele>49.400001525879</ele>
        <time>2014-02-09T10:42:53.000Z</time>
      </trkpt>
      <trkpt lat="44.86457" lon="0.79742">
        <ele>49.200000762939</ele>
        <time>2014-02-09T10:43:06.000Z</time>
      </trkpt>
      <trkpt lat="44.86457" lon="0.79743">
        <ele>49</ele>
        <time>2014-02-09T10:43:12.000Z</time>
      </trkpt>
      <trkpt lat="44.86457" lon="0.79743">
        <ele>49</ele>
        <time>2014-02-09T10:43:14.000Z</time>
      </trkpt>
    </trkseg>
  </trk>
</gpx>